<?xml version="1.0" encoding="UTF-8" standalone="no" ?>
<gpx xmlns="http://www.topografix.com/GPX/1/1" xmlns:xsi="http://www.w3.org/2001/XMLSchema-instance" xsi:schemaLocation="http://www.topografix.com/GPX/1/1 http://www.topografix.com/GPX/1/1/gpx.xsd" version="1.1" creator="VisuGPX - https://www.visugpx.com">
  <metadata>
    <name>Dent du Pra</name>
    <desc><![CDATA[
]]></desc>
  </metadata>
  <trk>
    <name><![CDATA[Dent du Pra_1]]></name>
    <extensions>
      <line xmlns="http://www.topografix.com/GPX/gpx_style/0/2">
        <color>0000FF</color>
        <width>4</width>
      </line>
    </extensions>
    <trkseg>
      <trkpt lat="45.26454" lon="6.01519">
        <ele>1563.4549560547</ele>
        <time>2017-11-24T07:34:57Z</time>
      </trkpt>
      <trkpt lat="45.26462" lon="6.01505">
        <ele>1542.4549560547</ele>
        <time>2017-11-24T07:35:02Z</time>
      </trkpt>
      <trkpt lat="45.26459" lon="6.0151">
        <ele>1543.4549560547</ele>
        <time>2017-11-24T07:35:25Z</time>
      </trkpt>
      <trkpt lat="45.26455" lon="6.01515">
        <ele>1547.4549560547</ele>
        <time>2017-11-24T07:35:33Z</time>
      </trkpt>
      <trkpt lat="45.26456" lon="6.01522">
        <ele>1548.4549560547</ele>
        <time>2017-11-24T07:35:42Z</time>
      </trkpt>
      <trkpt lat="45.26455" lon="6.0153">
        <ele>1552.4549560547</ele>
        <time>2017-11-24T07:35:46Z</time>
      </trkpt>
      <trkpt lat="45.26452" lon="6.01541">
        <ele>1558.4549560547</ele>
        <time>2017-11-24T07:35:51Z</time>
      </trkpt>
      <trkpt lat="45.26453" lon="6.01549">
        <ele>1563.4549560547</ele>
        <time>2017-11-24T07:35:58Z</time>
      </trkpt>
      <trkpt lat="45.26457" lon="6.01554">
        <ele>1562.4549560547</ele>
        <time>2017-11-24T07:36:02Z</time>
      </trkpt>
      <trkpt lat="45.26459" lon="6.0156">
        <ele>1561.4549560547</ele>
        <time>2017-11-24T07:36:07Z</time>
      </trkpt>
      <trkpt lat="45.26461" lon="6.01568">
        <ele>1558.4549560547</ele>
        <time>2017-11-24T07:36:12Z</time>
      </trkpt>
      <trkpt lat="45.2646" lon="6.01576">
        <ele>1557.4549560547</ele>
        <time>2017-11-24T07:36:16Z</time>
      </trkpt>
      <trkpt lat="45.26459" lon="6.01586">
        <ele>1556.4549560547</ele>
        <time>2017-11-24T07:36:21Z</time>
      </trkpt>
      <trkpt lat="45.2646" lon="6.01592">
        <ele>1555.4549560547</ele>
        <time>2017-11-24T07:36:24Z</time>
      </trkpt>
      <trkpt lat="45.2646" lon="6.01599">
        <ele>1557.4549560547</ele>
        <time>2017-11-24T07:36:27Z</time>
      </trkpt>
      <trkpt lat="45.26459" lon="6.01607">
        <ele>1560.4549560547</ele>
        <time>2017-11-24T07:36:30Z</time>
      </trkpt>
      <trkpt lat="45.2646" lon="6.01614">
        <ele>1561.4549560547</ele>
        <time>2017-11-24T07:36:33Z</time>
      </trkpt>
      <trkpt lat="45.2646" lon="6.01622">
        <ele>1563.4549560547</ele>
        <time>2017-11-24T07:36:37Z</time>
      </trkpt>
      <trkpt lat="45.2646" lon="6.01629">
        <ele>1562.4549560547</ele>
        <time>2017-11-24T07:36:41Z</time>
      </trkpt>
      <trkpt lat="45.26461" lon="6.01636">
        <ele>1564.4549560547</ele>
        <time>2017-11-24T07:37:04Z</time>
      </trkpt>
      <trkpt lat="45.26461" lon="6.01644">
        <ele>1567.4549560547</ele>
        <time>2017-11-24T07:37:08Z</time>
      </trkpt>
      <trkpt lat="45.26461" lon="6.01652">
        <ele>1569.4549560547</ele>
        <time>2017-11-24T07:37:14Z</time>
      </trkpt>
      <trkpt lat="45.26461" lon="6.0166">
        <ele>1569.4549560547</ele>
        <time>2017-11-24T07:37:19Z</time>
      </trkpt>
      <trkpt lat="45.26459" lon="6.01667">
        <ele>1572.4549560547</ele>
        <time>2017-11-24T07:37:23Z</time>
      </trkpt>
      <trkpt lat="45.26457" lon="6.01673">
        <ele>1573.4549560547</ele>
        <time>2017-11-24T07:37:27Z</time>
      </trkpt>
      <trkpt lat="45.26455" lon="6.0168">
        <ele>1575.4549560547</ele>
        <time>2017-11-24T07:37:31Z</time>
      </trkpt>
      <trkpt lat="45.26453" lon="6.01686">
        <ele>1574.4549560547</ele>
        <time>2017-11-24T07:37:36Z</time>
      </trkpt>
      <trkpt lat="45.26452" lon="6.01693">
        <ele>1576.4549560547</ele>
        <time>2017-11-24T07:37:40Z</time>
      </trkpt>
      <trkpt lat="45.2645" lon="6.01701">
        <ele>1576.4549560547</ele>
        <time>2017-11-24T07:37:46Z</time>
      </trkpt>
      <trkpt lat="45.26449" lon="6.01709">
        <ele>1576.4549560547</ele>
        <time>2017-11-24T07:37:50Z</time>
      </trkpt>
      <trkpt lat="45.26447" lon="6.01716">
        <ele>1577.4549560547</ele>
        <time>2017-11-24T07:37:54Z</time>
      </trkpt>
      <trkpt lat="45.26446" lon="6.01723">
        <ele>1577.4549560547</ele>
        <time>2017-11-24T07:37:58Z</time>
      </trkpt>
      <trkpt lat="45.26444" lon="6.01729">
        <ele>1574.4549560547</ele>
        <time>2017-11-24T07:38:02Z</time>
      </trkpt>
      <trkpt lat="45.2644" lon="6.01735">
        <ele>1576.4549560547</ele>
        <time>2017-11-24T07:38:07Z</time>
      </trkpt>
      <trkpt lat="45.26438" lon="6.01742">
        <ele>1579.4549560547</ele>
        <time>2017-11-24T07:38:12Z</time>
      </trkpt>
      <trkpt lat="45.26437" lon="6.0175">
        <ele>1577.4549560547</ele>
        <time>2017-11-24T07:38:17Z</time>
      </trkpt>
      <trkpt lat="45.26434" lon="6.01758">
        <ele>1574.4549560547</ele>
        <time>2017-11-24T07:38:22Z</time>
      </trkpt>
      <trkpt lat="45.26431" lon="6.01763">
        <ele>1576.4549560547</ele>
        <time>2017-11-24T07:38:25Z</time>
      </trkpt>
      <trkpt lat="45.26428" lon="6.01771">
        <ele>1577.4549560547</ele>
        <time>2017-11-24T07:38:30Z</time>
      </trkpt>
      <trkpt lat="45.26426" lon="6.0178">
        <ele>1580.4549560547</ele>
        <time>2017-11-24T07:38:34Z</time>
      </trkpt>
      <trkpt lat="45.26423" lon="6.01786">
        <ele>1582.4549560547</ele>
        <time>2017-11-24T07:38:39Z</time>
      </trkpt>
      <trkpt lat="45.26422" lon="6.01793">
        <ele>1581.4549560547</ele>
        <time>2017-11-24T07:38:43Z</time>
      </trkpt>
      <trkpt lat="45.2642" lon="6.01799">
        <ele>1583.4549560547</ele>
        <time>2017-11-24T07:38:49Z</time>
      </trkpt>
      <trkpt lat="45.2642" lon="6.01807">
        <ele>1587.4549560547</ele>
        <time>2017-11-24T07:38:54Z</time>
      </trkpt>
      <trkpt lat="45.2642" lon="6.01814">
        <ele>1588.4549560547</ele>
        <time>2017-11-24T07:38:57Z</time>
      </trkpt>
      <trkpt lat="45.26417" lon="6.0182">
        <ele>1589.4549560547</ele>
        <time>2017-11-24T07:39:02Z</time>
      </trkpt>
      <trkpt lat="45.26417" lon="6.01827">
        <ele>1588.4549560547</ele>
        <time>2017-11-24T07:39:10Z</time>
      </trkpt>
      <trkpt lat="45.26415" lon="6.01835">
        <ele>1589.4549560547</ele>
        <time>2017-11-24T07:39:13Z</time>
      </trkpt>
      <trkpt lat="45.26413" lon="6.01841">
        <ele>1590.4549560547</ele>
        <time>2017-11-24T07:39:19Z</time>
      </trkpt>
      <trkpt lat="45.2641" lon="6.01848">
        <ele>1589.4549560547</ele>
        <time>2017-11-24T07:39:23Z</time>
      </trkpt>
      <trkpt lat="45.26408" lon="6.01856">
        <ele>1593.4549560547</ele>
        <time>2017-11-24T07:39:27Z</time>
      </trkpt>
      <trkpt lat="45.26407" lon="6.01862">
        <ele>1592.4549560547</ele>
        <time>2017-11-24T07:39:31Z</time>
      </trkpt>
      <trkpt lat="45.26407" lon="6.0187">
        <ele>1594.4549560547</ele>
        <time>2017-11-24T07:39:36Z</time>
      </trkpt>
      <trkpt lat="45.26405" lon="6.01878">
        <ele>1595.4549560547</ele>
        <time>2017-11-24T07:39:40Z</time>
      </trkpt>
      <trkpt lat="45.26404" lon="6.01884">
        <ele>1598.4549560547</ele>
        <time>2017-11-24T07:39:43Z</time>
      </trkpt>
      <trkpt lat="45.26402" lon="6.01891">
        <ele>1600.4549560547</ele>
        <time>2017-11-24T07:39:47Z</time>
      </trkpt>
      <trkpt lat="45.26401" lon="6.01899">
        <ele>1601.4549560547</ele>
        <time>2017-11-24T07:39:53Z</time>
      </trkpt>
      <trkpt lat="45.26402" lon="6.01907">
        <ele>1602.4549560547</ele>
        <time>2017-11-24T07:39:57Z</time>
      </trkpt>
      <trkpt lat="45.26402" lon="6.01914">
        <ele>1598.4549560547</ele>
        <time>2017-11-24T07:40:03Z</time>
      </trkpt>
      <trkpt lat="45.26403" lon="6.01921">
        <ele>1600.4549560547</ele>
        <time>2017-11-24T07:40:08Z</time>
      </trkpt>
      <trkpt lat="45.26402" lon="6.01928">
        <ele>1601.4549560547</ele>
        <time>2017-11-24T07:40:15Z</time>
      </trkpt>
      <trkpt lat="45.26404" lon="6.01934">
        <ele>1599.4549560547</ele>
        <time>2017-11-24T07:40:22Z</time>
      </trkpt>
      <trkpt lat="45.26406" lon="6.0194">
        <ele>1599.4549560547</ele>
        <time>2017-11-24T07:40:27Z</time>
      </trkpt>
      <trkpt lat="45.26407" lon="6.01948">
        <ele>1600.4549560547</ele>
        <time>2017-11-24T07:40:34Z</time>
      </trkpt>
      <trkpt lat="45.26406" lon="6.01955">
        <ele>1602.4549560547</ele>
        <time>2017-11-24T07:40:39Z</time>
      </trkpt>
      <trkpt lat="45.26404" lon="6.01963">
        <ele>1603.4549560547</ele>
        <time>2017-11-24T07:40:44Z</time>
      </trkpt>
      <trkpt lat="45.26402" lon="6.01969">
        <ele>1607.4549560547</ele>
        <time>2017-11-24T07:40:51Z</time>
      </trkpt>
      <trkpt lat="45.26402" lon="6.01979">
        <ele>1613.4560546875</ele>
        <time>2017-11-24T07:41:03Z</time>
      </trkpt>
      <trkpt lat="45.26403" lon="6.01986">
        <ele>1613.4560546875</ele>
        <time>2017-11-24T07:41:08Z</time>
      </trkpt>
      <trkpt lat="45.26401" lon="6.01992">
        <ele>1617.4560546875</ele>
        <time>2017-11-24T07:41:13Z</time>
      </trkpt>
      <trkpt lat="45.26396" lon="6.01993">
        <ele>1618.4560546875</ele>
        <time>2017-11-24T07:41:21Z</time>
      </trkpt>
      <trkpt lat="45.26392" lon="6.01999">
        <ele>1619.4560546875</ele>
        <time>2017-11-24T07:41:29Z</time>
      </trkpt>
      <trkpt lat="45.26391" lon="6.02006">
        <ele>1620.4560546875</ele>
        <time>2017-11-24T07:41:40Z</time>
      </trkpt>
      <trkpt lat="45.26391" lon="6.02013">
        <ele>1622.4560546875</ele>
        <time>2017-11-24T07:41:45Z</time>
      </trkpt>
      <trkpt lat="45.26387" lon="6.02018">
        <ele>1623.4560546875</ele>
        <time>2017-11-24T07:41:52Z</time>
      </trkpt>
      <trkpt lat="45.26386" lon="6.02024">
        <ele>1626.4560546875</ele>
        <time>2017-11-24T07:41:57Z</time>
      </trkpt>
      <trkpt lat="45.26387" lon="6.02031">
        <ele>1628.4560546875</ele>
        <time>2017-11-24T07:42:03Z</time>
      </trkpt>
      <trkpt lat="45.26385" lon="6.02037">
        <ele>1628.4560546875</ele>
        <time>2017-11-24T07:42:09Z</time>
      </trkpt>
      <trkpt lat="45.26383" lon="6.02044">
        <ele>1632.4560546875</ele>
        <time>2017-11-24T07:42:14Z</time>
      </trkpt>
      <trkpt lat="45.26377" lon="6.02049">
        <ele>1634.4560546875</ele>
        <time>2017-11-24T07:42:21Z</time>
      </trkpt>
      <trkpt lat="45.26373" lon="6.02052">
        <ele>1636.4560546875</ele>
        <time>2017-11-24T07:42:25Z</time>
      </trkpt>
      <trkpt lat="45.26375" lon="6.02059">
        <ele>1639.4560546875</ele>
        <time>2017-11-24T07:42:29Z</time>
      </trkpt>
      <trkpt lat="45.26377" lon="6.02064">
        <ele>1640.4560546875</ele>
        <time>2017-11-24T07:42:35Z</time>
      </trkpt>
      <trkpt lat="45.26381" lon="6.02069">
        <ele>1637.4560546875</ele>
        <time>2017-11-24T07:42:42Z</time>
      </trkpt>
      <trkpt lat="45.26382" lon="6.02076">
        <ele>1637.4560546875</ele>
        <time>2017-11-24T07:42:50Z</time>
      </trkpt>
      <trkpt lat="45.26379" lon="6.02081">
        <ele>1636.4560546875</ele>
        <time>2017-11-24T07:42:58Z</time>
      </trkpt>
      <trkpt lat="45.26375" lon="6.02085">
        <ele>1641.4560546875</ele>
        <time>2017-11-24T07:43:09Z</time>
      </trkpt>
      <trkpt lat="45.26372" lon="6.02091">
        <ele>1642.4560546875</ele>
        <time>2017-11-24T07:43:18Z</time>
      </trkpt>
      <trkpt lat="45.26372" lon="6.02098">
        <ele>1644.4560546875</ele>
        <time>2017-11-24T07:43:31Z</time>
      </trkpt>
      <trkpt lat="45.26375" lon="6.02104">
        <ele>1644.4560546875</ele>
        <time>2017-11-24T07:43:37Z</time>
      </trkpt>
      <trkpt lat="45.26373" lon="6.0211">
        <ele>1647.4560546875</ele>
        <time>2017-11-24T07:43:46Z</time>
      </trkpt>
      <trkpt lat="45.26368" lon="6.02111">
        <ele>1646.4560546875</ele>
        <time>2017-11-24T07:43:54Z</time>
      </trkpt>
      <trkpt lat="45.26365" lon="6.02117">
        <ele>1650.4560546875</ele>
        <time>2017-11-24T07:44:06Z</time>
      </trkpt>
      <trkpt lat="45.26363" lon="6.02123">
        <ele>1651.4560546875</ele>
        <time>2017-11-24T07:44:15Z</time>
      </trkpt>
      <trkpt lat="45.26361" lon="6.02129">
        <ele>1656.4560546875</ele>
        <time>2017-11-24T07:44:21Z</time>
      </trkpt>
      <trkpt lat="45.26362" lon="6.02136">
        <ele>1658.4560546875</ele>
        <time>2017-11-24T07:44:36Z</time>
      </trkpt>
      <trkpt lat="45.26357" lon="6.02138">
        <ele>1660.4560546875</ele>
        <time>2017-11-24T07:44:43Z</time>
      </trkpt>
      <trkpt lat="45.26358" lon="6.02144">
        <ele>1660.4560546875</ele>
        <time>2017-11-24T07:45:00Z</time>
      </trkpt>
      <trkpt lat="45.2636" lon="6.0215">
        <ele>1656.4560546875</ele>
        <time>2017-11-24T07:45:07Z</time>
      </trkpt>
      <trkpt lat="45.26358" lon="6.02157">
        <ele>1659.4560546875</ele>
        <time>2017-11-24T07:45:12Z</time>
      </trkpt>
      <trkpt lat="45.26354" lon="6.02159">
        <ele>1662.4560546875</ele>
        <time>2017-11-24T07:45:16Z</time>
      </trkpt>
      <trkpt lat="45.26353" lon="6.02167">
        <ele>1664.4560546875</ele>
        <time>2017-11-24T07:45:32Z</time>
      </trkpt>
      <trkpt lat="45.26353" lon="6.02173">
        <ele>1666.4560546875</ele>
        <time>2017-11-24T07:45:38Z</time>
      </trkpt>
      <trkpt lat="45.26351" lon="6.02179">
        <ele>1670.4560546875</ele>
        <time>2017-11-24T07:45:44Z</time>
      </trkpt>
      <trkpt lat="45.26349" lon="6.02187">
        <ele>1670.4560546875</ele>
        <time>2017-11-24T07:45:51Z</time>
      </trkpt>
      <trkpt lat="45.26346" lon="6.02193">
        <ele>1672.4560546875</ele>
        <time>2017-11-24T07:45:54Z</time>
      </trkpt>
      <trkpt lat="45.26345" lon="6.02201">
        <ele>1678.4560546875</ele>
        <time>2017-11-24T07:45:58Z</time>
      </trkpt>
      <trkpt lat="45.26344" lon="6.02208">
        <ele>1680.4560546875</ele>
        <time>2017-11-24T07:46:01Z</time>
      </trkpt>
      <trkpt lat="45.26343" lon="6.02214">
        <ele>1679.4560546875</ele>
        <time>2017-11-24T07:46:09Z</time>
      </trkpt>
      <trkpt lat="45.26341" lon="6.02221">
        <ele>1680.4560546875</ele>
        <time>2017-11-24T07:46:13Z</time>
      </trkpt>
      <trkpt lat="45.2634" lon="6.02228">
        <ele>1681.4560546875</ele>
        <time>2017-11-24T07:46:21Z</time>
      </trkpt>
      <trkpt lat="45.26338" lon="6.02234">
        <ele>1680.4560546875</ele>
        <time>2017-11-24T07:46:29Z</time>
      </trkpt>
      <trkpt lat="45.26337" lon="6.02241">
        <ele>1682.4560546875</ele>
        <time>2017-11-24T07:46:32Z</time>
      </trkpt>
      <trkpt lat="45.26335" lon="6.02247">
        <ele>1680.4560546875</ele>
        <time>2017-11-24T07:46:38Z</time>
      </trkpt>
      <trkpt lat="45.26334" lon="6.02254">
        <ele>1682.4560546875</ele>
        <time>2017-11-24T07:46:43Z</time>
      </trkpt>
      <trkpt lat="45.26331" lon="6.02259">
        <ele>1682.4560546875</ele>
        <time>2017-11-24T07:46:48Z</time>
      </trkpt>
      <trkpt lat="45.26331" lon="6.02265">
        <ele>1683.4560546875</ele>
        <time>2017-11-24T07:46:52Z</time>
      </trkpt>
      <trkpt lat="45.26329" lon="6.02273">
        <ele>1685.4560546875</ele>
        <time>2017-11-24T07:46:55Z</time>
      </trkpt>
      <trkpt lat="45.2633" lon="6.0228">
        <ele>1687.4560546875</ele>
        <time>2017-11-24T07:46:58Z</time>
      </trkpt>
      <trkpt lat="45.26327" lon="6.02287">
        <ele>1688.4560546875</ele>
        <time>2017-11-24T07:47:04Z</time>
      </trkpt>
      <trkpt lat="45.26326" lon="6.02297">
        <ele>1693.4560546875</ele>
        <time>2017-11-24T07:47:09Z</time>
      </trkpt>
      <trkpt lat="45.26325" lon="6.02303">
        <ele>1695.4560546875</ele>
        <time>2017-11-24T07:47:12Z</time>
      </trkpt>
      <trkpt lat="45.26324" lon="6.0231">
        <ele>1694.4560546875</ele>
        <time>2017-11-24T07:47:16Z</time>
      </trkpt>
      <trkpt lat="45.26322" lon="6.02316">
        <ele>1695.4560546875</ele>
        <time>2017-11-24T07:47:20Z</time>
      </trkpt>
      <trkpt lat="45.2632" lon="6.02323">
        <ele>1696.4560546875</ele>
        <time>2017-11-24T07:47:25Z</time>
      </trkpt>
      <trkpt lat="45.26317" lon="6.02329">
        <ele>1698.4560546875</ele>
        <time>2017-11-24T07:47:33Z</time>
      </trkpt>
      <trkpt lat="45.26314" lon="6.02335">
        <ele>1699.4560546875</ele>
        <time>2017-11-24T07:47:38Z</time>
      </trkpt>
      <trkpt lat="45.26311" lon="6.02341">
        <ele>1701.4560546875</ele>
        <time>2017-11-24T07:47:41Z</time>
      </trkpt>
      <trkpt lat="45.26308" lon="6.02346">
        <ele>1702.4560546875</ele>
        <time>2017-11-24T07:47:44Z</time>
      </trkpt>
      <trkpt lat="45.26308" lon="6.02354">
        <ele>1703.4560546875</ele>
        <time>2017-11-24T07:47:47Z</time>
      </trkpt>
      <trkpt lat="45.26307" lon="6.02361">
        <ele>1704.4560546875</ele>
        <time>2017-11-24T07:47:52Z</time>
      </trkpt>
      <trkpt lat="45.26305" lon="6.02367">
        <ele>1705.4560546875</ele>
        <time>2017-11-24T07:47:57Z</time>
      </trkpt>
      <trkpt lat="45.26305" lon="6.02373">
        <ele>1706.4560546875</ele>
        <time>2017-11-24T07:48:01Z</time>
      </trkpt>
      <trkpt lat="45.26303" lon="6.02382">
        <ele>1705.4560546875</ele>
        <time>2017-11-24T07:48:07Z</time>
      </trkpt>
      <trkpt lat="45.26301" lon="6.0239">
        <ele>1710.4560546875</ele>
        <time>2017-11-24T07:48:12Z</time>
      </trkpt>
      <trkpt lat="45.263" lon="6.02398">
        <ele>1709.4560546875</ele>
        <time>2017-11-24T07:48:16Z</time>
      </trkpt>
      <trkpt lat="45.26299" lon="6.02405">
        <ele>1711.4560546875</ele>
        <time>2017-11-24T07:48:24Z</time>
      </trkpt>
      <trkpt lat="45.26296" lon="6.02411">
        <ele>1710.4560546875</ele>
        <time>2017-11-24T07:48:28Z</time>
      </trkpt>
      <trkpt lat="45.26295" lon="6.02417">
        <ele>1711.4560546875</ele>
        <time>2017-11-24T07:48:32Z</time>
      </trkpt>
      <trkpt lat="45.26292" lon="6.02423">
        <ele>1711.4560546875</ele>
        <time>2017-11-24T07:48:46Z</time>
      </trkpt>
      <trkpt lat="45.26292" lon="6.02429">
        <ele>1713.4560546875</ele>
        <time>2017-11-24T07:50:34Z</time>
      </trkpt>
      <trkpt lat="45.2629" lon="6.02436">
        <ele>1712.4560546875</ele>
        <time>2017-11-24T07:50:38Z</time>
      </trkpt>
      <trkpt lat="45.26288" lon="6.02443">
        <ele>1713.4560546875</ele>
        <time>2017-11-24T07:50:42Z</time>
      </trkpt>
      <trkpt lat="45.26286" lon="6.02451">
        <ele>1716.4560546875</ele>
        <time>2017-11-24T07:50:48Z</time>
      </trkpt>
      <trkpt lat="45.26285" lon="6.02457">
        <ele>1719.4560546875</ele>
        <time>2017-11-24T07:50:51Z</time>
      </trkpt>
      <trkpt lat="45.26284" lon="6.02465">
        <ele>1722.4560546875</ele>
        <time>2017-11-24T07:50:56Z</time>
      </trkpt>
      <trkpt lat="45.26284" lon="6.02471">
        <ele>1721.4560546875</ele>
        <time>2017-11-24T07:51:00Z</time>
      </trkpt>
      <trkpt lat="45.26281" lon="6.02478">
        <ele>1723.4560546875</ele>
        <time>2017-11-24T07:51:05Z</time>
      </trkpt>
      <trkpt lat="45.26279" lon="6.02484">
        <ele>1724.4560546875</ele>
        <time>2017-11-24T07:51:10Z</time>
      </trkpt>
      <trkpt lat="45.26278" lon="6.02493">
        <ele>1723.4560546875</ele>
        <time>2017-11-24T07:51:19Z</time>
      </trkpt>
      <trkpt lat="45.26276" lon="6.025">
        <ele>1722.4560546875</ele>
        <time>2017-11-24T07:51:24Z</time>
      </trkpt>
      <trkpt lat="45.26276" lon="6.02507">
        <ele>1724.4560546875</ele>
        <time>2017-11-24T07:51:27Z</time>
      </trkpt>
      <trkpt lat="45.26275" lon="6.02514">
        <ele>1724.4560546875</ele>
        <time>2017-11-24T07:51:30Z</time>
      </trkpt>
      <trkpt lat="45.26275" lon="6.0252">
        <ele>1726.4560546875</ele>
        <time>2017-11-24T07:51:33Z</time>
      </trkpt>
      <trkpt lat="45.26278" lon="6.02526">
        <ele>1725.4560546875</ele>
        <time>2017-11-24T07:51:38Z</time>
      </trkpt>
      <trkpt lat="45.26278" lon="6.02532">
        <ele>1725.4560546875</ele>
        <time>2017-11-24T07:51:41Z</time>
      </trkpt>
      <trkpt lat="45.2628" lon="6.02539">
        <ele>1726.4560546875</ele>
        <time>2017-11-24T07:51:45Z</time>
      </trkpt>
      <trkpt lat="45.26286" lon="6.02541">
        <ele>1723.4560546875</ele>
        <time>2017-11-24T07:51:49Z</time>
      </trkpt>
      <trkpt lat="45.2629" lon="6.02546">
        <ele>1724.4560546875</ele>
        <time>2017-11-24T07:51:53Z</time>
      </trkpt>
      <trkpt lat="45.26294" lon="6.0255">
        <ele>1725.4560546875</ele>
        <time>2017-11-24T07:51:56Z</time>
      </trkpt>
      <trkpt lat="45.26299" lon="6.02554">
        <ele>1726.4560546875</ele>
        <time>2017-11-24T07:52:00Z</time>
      </trkpt>
      <trkpt lat="45.26303" lon="6.02559">
        <ele>1727.4560546875</ele>
        <time>2017-11-24T07:52:04Z</time>
      </trkpt>
      <trkpt lat="45.26308" lon="6.02564">
        <ele>1727.4560546875</ele>
        <time>2017-11-24T07:52:08Z</time>
      </trkpt>
      <trkpt lat="45.26312" lon="6.02567">
        <ele>1728.4560546875</ele>
        <time>2017-11-24T07:52:11Z</time>
      </trkpt>
      <trkpt lat="45.26315" lon="6.02571">
        <ele>1728.4560546875</ele>
        <time>2017-11-24T07:52:14Z</time>
      </trkpt>
      <trkpt lat="45.2632" lon="6.02575">
        <ele>1728.4560546875</ele>
        <time>2017-11-24T07:52:18Z</time>
      </trkpt>
      <trkpt lat="45.26324" lon="6.02579">
        <ele>1728.4560546875</ele>
        <time>2017-11-24T07:52:22Z</time>
      </trkpt>
      <trkpt lat="45.26327" lon="6.02585">
        <ele>1729.4560546875</ele>
        <time>2017-11-24T07:52:26Z</time>
      </trkpt>
      <trkpt lat="45.26329" lon="6.02592">
        <ele>1729.4560546875</ele>
        <time>2017-11-24T07:52:31Z</time>
      </trkpt>
      <trkpt lat="45.26327" lon="6.02599">
        <ele>1730.4560546875</ele>
        <time>2017-11-24T07:52:35Z</time>
      </trkpt>
      <trkpt lat="45.26325" lon="6.02605">
        <ele>1729.4560546875</ele>
        <time>2017-11-24T07:52:39Z</time>
      </trkpt>
      <trkpt lat="45.26322" lon="6.02611">
        <ele>1725.4560546875</ele>
        <time>2017-11-24T07:52:45Z</time>
      </trkpt>
      <trkpt lat="45.2632" lon="6.02618">
        <ele>1725.4560546875</ele>
        <time>2017-11-24T07:52:53Z</time>
      </trkpt>
      <trkpt lat="45.26316" lon="6.02623">
        <ele>1729.4560546875</ele>
        <time>2017-11-24T07:52:57Z</time>
      </trkpt>
      <trkpt lat="45.26311" lon="6.02628">
        <ele>1730.4560546875</ele>
        <time>2017-11-24T07:53:01Z</time>
      </trkpt>
      <trkpt lat="45.26307" lon="6.0263">
        <ele>1732.4560546875</ele>
        <time>2017-11-24T07:53:05Z</time>
      </trkpt>
      <trkpt lat="45.26302" lon="6.02632">
        <ele>1732.4560546875</ele>
        <time>2017-11-24T07:53:10Z</time>
      </trkpt>
      <trkpt lat="45.26298" lon="6.02634">
        <ele>1732.4560546875</ele>
        <time>2017-11-24T07:53:14Z</time>
      </trkpt>
      <trkpt lat="45.26293" lon="6.02637">
        <ele>1731.4560546875</ele>
        <time>2017-11-24T07:53:18Z</time>
      </trkpt>
      <trkpt lat="45.26289" lon="6.02637">
        <ele>1732.4560546875</ele>
        <time>2017-11-24T07:53:22Z</time>
      </trkpt>
      <trkpt lat="45.26284" lon="6.0264">
        <ele>1735.4560546875</ele>
        <time>2017-11-24T07:53:28Z</time>
      </trkpt>
      <trkpt lat="45.26279" lon="6.02644">
        <ele>1734.4560546875</ele>
        <time>2017-11-24T07:53:35Z</time>
      </trkpt>
      <trkpt lat="45.26276" lon="6.0265">
        <ele>1737.4560546875</ele>
        <time>2017-11-24T07:53:40Z</time>
      </trkpt>
      <trkpt lat="45.26272" lon="6.02653">
        <ele>1737.4560546875</ele>
        <time>2017-11-24T07:53:45Z</time>
      </trkpt>
      <trkpt lat="45.26268" lon="6.02655">
        <ele>1739.4560546875</ele>
        <time>2017-11-24T07:53:50Z</time>
      </trkpt>
      <trkpt lat="45.26263" lon="6.02659">
        <ele>1744.4560546875</ele>
        <time>2017-11-24T07:53:57Z</time>
      </trkpt>
      <trkpt lat="45.26258" lon="6.0266">
        <ele>1745.4560546875</ele>
        <time>2017-11-24T07:54:02Z</time>
      </trkpt>
      <trkpt lat="45.26254" lon="6.02664">
        <ele>1745.4560546875</ele>
        <time>2017-11-24T07:54:08Z</time>
      </trkpt>
      <trkpt lat="45.26248" lon="6.02667">
        <ele>1747.4560546875</ele>
        <time>2017-11-24T07:54:17Z</time>
      </trkpt>
      <trkpt lat="45.26243" lon="6.0267">
        <ele>1743.4560546875</ele>
        <time>2017-11-24T07:54:23Z</time>
      </trkpt>
      <trkpt lat="45.26242" lon="6.02676">
        <ele>1744.4560546875</ele>
        <time>2017-11-24T07:54:30Z</time>
      </trkpt>
      <trkpt lat="45.2624" lon="6.02682">
        <ele>1748.4560546875</ele>
        <time>2017-11-24T07:54:33Z</time>
      </trkpt>
      <trkpt lat="45.26238" lon="6.02688">
        <ele>1753.4560546875</ele>
        <time>2017-11-24T07:54:38Z</time>
      </trkpt>
      <trkpt lat="45.26234" lon="6.02692">
        <ele>1757.4560546875</ele>
        <time>2017-11-24T07:54:44Z</time>
      </trkpt>
      <trkpt lat="45.26233" lon="6.02698">
        <ele>1758.4560546875</ele>
        <time>2017-11-24T07:54:48Z</time>
      </trkpt>
      <trkpt lat="45.26228" lon="6.02697">
        <ele>1762.4560546875</ele>
        <time>2017-11-24T07:54:57Z</time>
      </trkpt>
      <trkpt lat="45.26224" lon="6.02693">
        <ele>1765.4560546875</ele>
        <time>2017-11-24T07:55:02Z</time>
      </trkpt>
      <trkpt lat="45.26219" lon="6.02689">
        <ele>1766.4560546875</ele>
        <time>2017-11-24T07:55:10Z</time>
      </trkpt>
      <trkpt lat="45.26215" lon="6.02688">
        <ele>1767.4560546875</ele>
        <time>2017-11-24T07:55:18Z</time>
      </trkpt>
      <trkpt lat="45.2621" lon="6.02686">
        <ele>1766.4560546875</ele>
        <time>2017-11-24T07:55:27Z</time>
      </trkpt>
      <trkpt lat="45.26207" lon="6.02692">
        <ele>1767.4560546875</ele>
        <time>2017-11-24T07:55:34Z</time>
      </trkpt>
      <trkpt lat="45.2621" lon="6.02699">
        <ele>1768.4560546875</ele>
        <time>2017-11-24T07:55:40Z</time>
      </trkpt>
      <trkpt lat="45.26212" lon="6.02705">
        <ele>1768.4560546875</ele>
        <time>2017-11-24T07:55:46Z</time>
      </trkpt>
      <trkpt lat="45.26213" lon="6.02712">
        <ele>1770.4560546875</ele>
        <time>2017-11-24T07:55:53Z</time>
      </trkpt>
      <trkpt lat="45.26215" lon="6.02719">
        <ele>1772.4560546875</ele>
        <time>2017-11-24T07:55:59Z</time>
      </trkpt>
      <trkpt lat="45.2621" lon="6.02718">
        <ele>1773.4560546875</ele>
        <time>2017-11-24T07:56:13Z</time>
      </trkpt>
      <trkpt lat="45.26204" lon="6.02717">
        <ele>1775.4560546875</ele>
        <time>2017-11-24T07:56:19Z</time>
      </trkpt>
      <trkpt lat="45.262" lon="6.02714">
        <ele>1777.4560546875</ele>
        <time>2017-11-24T07:56:25Z</time>
      </trkpt>
      <trkpt lat="45.26195" lon="6.02711">
        <ele>1775.4560546875</ele>
        <time>2017-11-24T07:56:31Z</time>
      </trkpt>
      <trkpt lat="45.26191" lon="6.02707">
        <ele>1778.4560546875</ele>
        <time>2017-11-24T07:56:36Z</time>
      </trkpt>
      <trkpt lat="45.26186" lon="6.02705">
        <ele>1780.4560546875</ele>
        <time>2017-11-24T07:56:42Z</time>
      </trkpt>
      <trkpt lat="45.26182" lon="6.02701">
        <ele>1783.4560546875</ele>
        <time>2017-11-24T07:56:47Z</time>
      </trkpt>
      <trkpt lat="45.26178" lon="6.02698">
        <ele>1783.4560546875</ele>
        <time>2017-11-24T07:56:53Z</time>
      </trkpt>
      <trkpt lat="45.26174" lon="6.02695">
        <ele>1785.4560546875</ele>
        <time>2017-11-24T07:56:58Z</time>
      </trkpt>
      <trkpt lat="45.26175" lon="6.02702">
        <ele>1786.4560546875</ele>
        <time>2017-11-24T07:57:06Z</time>
      </trkpt>
      <trkpt lat="45.26176" lon="6.02709">
        <ele>1792.4560546875</ele>
        <time>2017-11-24T07:57:13Z</time>
      </trkpt>
      <trkpt lat="45.26176" lon="6.02716">
        <ele>1792.4560546875</ele>
        <time>2017-11-24T07:57:26Z</time>
      </trkpt>
      <trkpt lat="45.26179" lon="6.0272">
        <ele>1795.4560546875</ele>
        <time>2017-11-24T07:57:35Z</time>
      </trkpt>
      <trkpt lat="45.26174" lon="6.02719">
        <ele>1797.4560546875</ele>
        <time>2017-11-24T07:57:53Z</time>
      </trkpt>
      <trkpt lat="45.2617" lon="6.02715">
        <ele>1798.4560546875</ele>
        <time>2017-11-24T07:57:57Z</time>
      </trkpt>
      <trkpt lat="45.26172" lon="6.02722">
        <ele>1802.4560546875</ele>
        <time>2017-11-24T07:58:11Z</time>
      </trkpt>
      <trkpt lat="45.26169" lon="6.02728">
        <ele>1803.4560546875</ele>
        <time>2017-11-24T07:58:26Z</time>
      </trkpt>
      <trkpt lat="45.26172" lon="6.02733">
        <ele>1802.4560546875</ele>
        <time>2017-11-24T07:58:31Z</time>
      </trkpt>
      <trkpt lat="45.26168" lon="6.02737">
        <ele>1800.4560546875</ele>
        <time>2017-11-24T07:58:37Z</time>
      </trkpt>
      <trkpt lat="45.26163" lon="6.02736">
        <ele>1799.4560546875</ele>
        <time>2017-11-24T07:58:42Z</time>
      </trkpt>
      <trkpt lat="45.26158" lon="6.02735">
        <ele>1800.4560546875</ele>
        <time>2017-11-24T07:58:47Z</time>
      </trkpt>
      <trkpt lat="45.26153" lon="6.02732">
        <ele>1801.4560546875</ele>
        <time>2017-11-24T07:58:53Z</time>
      </trkpt>
      <trkpt lat="45.2615" lon="6.02728">
        <ele>1803.4560546875</ele>
        <time>2017-11-24T07:58:58Z</time>
      </trkpt>
      <trkpt lat="45.26146" lon="6.02723">
        <ele>1806.4560546875</ele>
        <time>2017-11-24T07:59:03Z</time>
      </trkpt>
      <trkpt lat="45.26146" lon="6.02716">
        <ele>1808.4560546875</ele>
        <time>2017-11-24T07:59:08Z</time>
      </trkpt>
      <trkpt lat="45.26143" lon="6.02712">
        <ele>1811.4560546875</ele>
        <time>2017-11-24T07:59:13Z</time>
      </trkpt>
      <trkpt lat="45.26138" lon="6.02708">
        <ele>1813.4560546875</ele>
        <time>2017-11-24T07:59:18Z</time>
      </trkpt>
      <trkpt lat="45.26135" lon="6.02703">
        <ele>1813.4560546875</ele>
        <time>2017-11-24T07:59:24Z</time>
      </trkpt>
      <trkpt lat="45.2613" lon="6.02702">
        <ele>1816.4560546875</ele>
        <time>2017-11-24T07:59:30Z</time>
      </trkpt>
      <trkpt lat="45.26128" lon="6.02696">
        <ele>1818.4560546875</ele>
        <time>2017-11-24T07:59:36Z</time>
      </trkpt>
      <trkpt lat="45.26123" lon="6.02692">
        <ele>1822.4560546875</ele>
        <time>2017-11-24T07:59:42Z</time>
      </trkpt>
      <trkpt lat="45.2612" lon="6.02685">
        <ele>1825.4560546875</ele>
        <time>2017-11-24T07:59:49Z</time>
      </trkpt>
      <trkpt lat="45.26116" lon="6.02681">
        <ele>1824.4560546875</ele>
        <time>2017-11-24T07:59:55Z</time>
      </trkpt>
      <trkpt lat="45.26111" lon="6.02677">
        <ele>1826.4560546875</ele>
        <time>2017-11-24T07:59:59Z</time>
      </trkpt>
      <trkpt lat="45.26106" lon="6.02676">
        <ele>1824.4560546875</ele>
        <time>2017-11-24T08:00:04Z</time>
      </trkpt>
      <trkpt lat="45.26101" lon="6.02676">
        <ele>1825.4560546875</ele>
        <time>2017-11-24T08:00:09Z</time>
      </trkpt>
      <trkpt lat="45.26095" lon="6.02675">
        <ele>1827.4560546875</ele>
        <time>2017-11-24T08:00:15Z</time>
      </trkpt>
      <trkpt lat="45.26093" lon="6.02681">
        <ele>1828.4560546875</ele>
        <time>2017-11-24T08:00:20Z</time>
      </trkpt>
      <trkpt lat="45.2609" lon="6.02688">
        <ele>1830.4560546875</ele>
        <time>2017-11-24T08:00:26Z</time>
      </trkpt>
      <trkpt lat="45.26089" lon="6.02695">
        <ele>1832.4560546875</ele>
        <time>2017-11-24T08:00:31Z</time>
      </trkpt>
      <trkpt lat="45.26087" lon="6.02702">
        <ele>1837.4560546875</ele>
        <time>2017-11-24T08:00:37Z</time>
      </trkpt>
      <trkpt lat="45.26084" lon="6.02709">
        <ele>1834.4560546875</ele>
        <time>2017-11-24T08:00:43Z</time>
      </trkpt>
      <trkpt lat="45.26083" lon="6.02716">
        <ele>1831.4560546875</ele>
        <time>2017-11-24T08:00:49Z</time>
      </trkpt>
      <trkpt lat="45.2608" lon="6.02723">
        <ele>1834.4560546875</ele>
        <time>2017-11-24T08:00:55Z</time>
      </trkpt>
      <trkpt lat="45.2608" lon="6.0273">
        <ele>1838.4560546875</ele>
        <time>2017-11-24T08:01:00Z</time>
      </trkpt>
      <trkpt lat="45.2608" lon="6.02737">
        <ele>1839.4560546875</ele>
        <time>2017-11-24T08:01:04Z</time>
      </trkpt>
      <trkpt lat="45.26079" lon="6.02744">
        <ele>1841.4560546875</ele>
        <time>2017-11-24T08:01:08Z</time>
      </trkpt>
      <trkpt lat="45.2608" lon="6.0275">
        <ele>1841.4560546875</ele>
        <time>2017-11-24T08:01:11Z</time>
      </trkpt>
      <trkpt lat="45.26079" lon="6.02757">
        <ele>1843.4560546875</ele>
        <time>2017-11-24T08:01:16Z</time>
      </trkpt>
      <trkpt lat="45.2608" lon="6.02765">
        <ele>1848.4560546875</ele>
        <time>2017-11-24T08:01:22Z</time>
      </trkpt>
      <trkpt lat="45.26079" lon="6.02771">
        <ele>1847.4560546875</ele>
        <time>2017-11-24T08:01:29Z</time>
      </trkpt>
      <trkpt lat="45.26079" lon="6.02779">
        <ele>1848.4560546875</ele>
        <time>2017-11-24T08:01:35Z</time>
      </trkpt>
      <trkpt lat="45.26079" lon="6.02785">
        <ele>1851.4560546875</ele>
        <time>2017-11-24T08:01:40Z</time>
      </trkpt>
      <trkpt lat="45.26079" lon="6.02793">
        <ele>1852.4560546875</ele>
        <time>2017-11-24T08:01:45Z</time>
      </trkpt>
      <trkpt lat="45.2608" lon="6.02799">
        <ele>1852.4560546875</ele>
        <time>2017-11-24T08:01:52Z</time>
      </trkpt>
      <trkpt lat="45.26083" lon="6.02804">
        <ele>1853.4560546875</ele>
        <time>2017-11-24T08:01:57Z</time>
      </trkpt>
      <trkpt lat="45.26088" lon="6.02806">
        <ele>1853.4560546875</ele>
        <time>2017-11-24T08:02:03Z</time>
      </trkpt>
      <trkpt lat="45.26092" lon="6.0281">
        <ele>1853.4560546875</ele>
        <time>2017-11-24T08:02:09Z</time>
      </trkpt>
      <trkpt lat="45.26092" lon="6.02817">
        <ele>1855.4560546875</ele>
        <time>2017-11-24T08:02:14Z</time>
      </trkpt>
      <trkpt lat="45.26093" lon="6.02824">
        <ele>1858.4560546875</ele>
        <time>2017-11-24T08:02:19Z</time>
      </trkpt>
      <trkpt lat="45.26092" lon="6.02831">
        <ele>1860.4560546875</ele>
        <time>2017-11-24T08:02:24Z</time>
      </trkpt>
      <trkpt lat="45.26093" lon="6.02838">
        <ele>1860.4560546875</ele>
        <time>2017-11-24T08:02:31Z</time>
      </trkpt>
      <trkpt lat="45.26093" lon="6.02847">
        <ele>1862.4560546875</ele>
        <time>2017-11-24T08:02:40Z</time>
      </trkpt>
      <trkpt lat="45.26095" lon="6.02853">
        <ele>1863.4560546875</ele>
        <time>2017-11-24T08:02:49Z</time>
      </trkpt>
      <trkpt lat="45.26095" lon="6.0286">
        <ele>1865.4560546875</ele>
        <time>2017-11-24T08:02:55Z</time>
      </trkpt>
      <trkpt lat="45.26095" lon="6.02867">
        <ele>1868.4560546875</ele>
        <time>2017-11-24T08:03:01Z</time>
      </trkpt>
      <trkpt lat="45.26094" lon="6.02874">
        <ele>1871.4560546875</ele>
        <time>2017-11-24T08:03:08Z</time>
      </trkpt>
      <trkpt lat="45.26092" lon="6.02881">
        <ele>1873.4560546875</ele>
        <time>2017-11-24T08:03:13Z</time>
      </trkpt>
      <trkpt lat="45.26091" lon="6.02887">
        <ele>1874.4560546875</ele>
        <time>2017-11-24T08:03:20Z</time>
      </trkpt>
      <trkpt lat="45.26088" lon="6.02895">
        <ele>1872.4560546875</ele>
        <time>2017-11-24T08:03:28Z</time>
      </trkpt>
      <trkpt lat="45.26088" lon="6.02902">
        <ele>1872.4560546875</ele>
        <time>2017-11-24T08:03:37Z</time>
      </trkpt>
      <trkpt lat="45.26086" lon="6.02909">
        <ele>1875.4560546875</ele>
        <time>2017-11-24T08:03:44Z</time>
      </trkpt>
      <trkpt lat="45.26086" lon="6.02916">
        <ele>1878.4560546875</ele>
        <time>2017-11-24T08:03:48Z</time>
      </trkpt>
      <trkpt lat="45.26084" lon="6.02922">
        <ele>1880.4560546875</ele>
        <time>2017-11-24T08:03:53Z</time>
      </trkpt>
      <trkpt lat="45.26081" lon="6.02927">
        <ele>1882.4560546875</ele>
        <time>2017-11-24T08:03:57Z</time>
      </trkpt>
      <trkpt lat="45.26078" lon="6.02934">
        <ele>1884.4560546875</ele>
        <time>2017-11-24T08:04:02Z</time>
      </trkpt>
      <trkpt lat="45.26076" lon="6.0294">
        <ele>1887.4560546875</ele>
        <time>2017-11-24T08:04:06Z</time>
      </trkpt>
      <trkpt lat="45.26073" lon="6.02945">
        <ele>1890.4560546875</ele>
        <time>2017-11-24T08:04:10Z</time>
      </trkpt>
      <trkpt lat="45.26071" lon="6.02952">
        <ele>1892.4560546875</ele>
        <time>2017-11-24T08:04:15Z</time>
      </trkpt>
      <trkpt lat="45.2607" lon="6.02958">
        <ele>1888.4560546875</ele>
        <time>2017-11-24T08:04:19Z</time>
      </trkpt>
      <trkpt lat="45.26068" lon="6.02966">
        <ele>1889.4560546875</ele>
        <time>2017-11-24T08:04:23Z</time>
      </trkpt>
      <trkpt lat="45.26065" lon="6.02971">
        <ele>1890.4560546875</ele>
        <time>2017-11-24T08:04:28Z</time>
      </trkpt>
      <trkpt lat="45.26063" lon="6.02978">
        <ele>1892.4560546875</ele>
        <time>2017-11-24T08:04:31Z</time>
      </trkpt>
      <trkpt lat="45.26061" lon="6.02985">
        <ele>1894.4560546875</ele>
        <time>2017-11-24T08:04:34Z</time>
      </trkpt>
      <trkpt lat="45.26062" lon="6.02991">
        <ele>1897.4560546875</ele>
        <time>2017-11-24T08:04:39Z</time>
      </trkpt>
      <trkpt lat="45.26062" lon="6.02999">
        <ele>1895.4560546875</ele>
        <time>2017-11-24T08:04:43Z</time>
      </trkpt>
      <trkpt lat="45.26061" lon="6.03006">
        <ele>1895.4560546875</ele>
        <time>2017-11-24T08:04:46Z</time>
      </trkpt>
      <trkpt lat="45.2606" lon="6.03015">
        <ele>1893.4560546875</ele>
        <time>2017-11-24T08:04:50Z</time>
      </trkpt>
      <trkpt lat="45.26058" lon="6.03024">
        <ele>1894.4560546875</ele>
        <time>2017-11-24T08:04:55Z</time>
      </trkpt>
      <trkpt lat="45.26058" lon="6.0303">
        <ele>1897.4560546875</ele>
        <time>2017-11-24T08:04:57Z</time>
      </trkpt>
      <trkpt lat="45.26057" lon="6.03037">
        <ele>1900.4560546875</ele>
        <time>2017-11-24T08:05:00Z</time>
      </trkpt>
      <trkpt lat="45.26056" lon="6.03044">
        <ele>1897.4560546875</ele>
        <time>2017-11-24T08:05:08Z</time>
      </trkpt>
      <trkpt lat="45.26054" lon="6.0305">
        <ele>1898.4560546875</ele>
        <time>2017-11-24T08:05:12Z</time>
      </trkpt>
      <trkpt lat="45.26052" lon="6.03056">
        <ele>1895.4560546875</ele>
        <time>2017-11-24T08:05:17Z</time>
      </trkpt>
      <trkpt lat="45.26051" lon="6.03063">
        <ele>1893.4560546875</ele>
        <time>2017-11-24T08:05:21Z</time>
      </trkpt>
      <trkpt lat="45.26049" lon="6.0307">
        <ele>1896.4560546875</ele>
        <time>2017-11-24T08:05:26Z</time>
      </trkpt>
      <trkpt lat="45.2605" lon="6.03077">
        <ele>1898.4560546875</ele>
        <time>2017-11-24T08:05:32Z</time>
      </trkpt>
      <trkpt lat="45.26047" lon="6.03083">
        <ele>1903.4560546875</ele>
        <time>2017-11-24T08:05:38Z</time>
      </trkpt>
      <trkpt lat="45.26045" lon="6.0309">
        <ele>1904.4560546875</ele>
        <time>2017-11-24T08:05:43Z</time>
      </trkpt>
      <trkpt lat="45.26043" lon="6.03096">
        <ele>1905.4560546875</ele>
        <time>2017-11-24T08:05:48Z</time>
      </trkpt>
      <trkpt lat="45.26041" lon="6.03103">
        <ele>1906.4560546875</ele>
        <time>2017-11-24T08:05:57Z</time>
      </trkpt>
      <trkpt lat="45.2604" lon="6.03109">
        <ele>1904.4560546875</ele>
        <time>2017-11-24T08:06:04Z</time>
      </trkpt>
      <trkpt lat="45.26038" lon="6.03115">
        <ele>1907.4560546875</ele>
        <time>2017-11-24T08:06:12Z</time>
      </trkpt>
      <trkpt lat="45.26036" lon="6.03121">
        <ele>1909.4560546875</ele>
        <time>2017-11-24T08:06:17Z</time>
      </trkpt>
      <trkpt lat="45.26034" lon="6.03128">
        <ele>1912.4560546875</ele>
        <time>2017-11-24T08:06:25Z</time>
      </trkpt>
      <trkpt lat="45.26033" lon="6.03134">
        <ele>1917.4560546875</ele>
        <time>2017-11-24T08:06:38Z</time>
      </trkpt>
      <trkpt lat="45.26032" lon="6.0314">
        <ele>1916.4560546875</ele>
        <time>2017-11-24T08:06:45Z</time>
      </trkpt>
      <trkpt lat="45.2603" lon="6.03147">
        <ele>1920.4560546875</ele>
        <time>2017-11-24T08:06:55Z</time>
      </trkpt>
      <trkpt lat="45.26026" lon="6.03153">
        <ele>1925.4560546875</ele>
        <time>2017-11-24T08:07:02Z</time>
      </trkpt>
      <trkpt lat="45.26023" lon="6.03158">
        <ele>1927.4560546875</ele>
        <time>2017-11-24T08:07:08Z</time>
      </trkpt>
      <trkpt lat="45.26019" lon="6.03164">
        <ele>1934.4560546875</ele>
        <time>2017-11-24T08:07:16Z</time>
      </trkpt>
      <trkpt lat="45.26016" lon="6.03168">
        <ele>1935.4560546875</ele>
        <time>2017-11-24T08:07:22Z</time>
      </trkpt>
      <trkpt lat="45.26013" lon="6.03174">
        <ele>1938.4560546875</ele>
        <time>2017-11-24T08:07:32Z</time>
      </trkpt>
      <trkpt lat="45.26011" lon="6.03181">
        <ele>1936.4560546875</ele>
        <time>2017-11-24T08:07:38Z</time>
      </trkpt>
      <trkpt lat="45.26009" lon="6.03187">
        <ele>1936.4560546875</ele>
        <time>2017-11-24T08:07:42Z</time>
      </trkpt>
      <trkpt lat="45.26006" lon="6.03193">
        <ele>1937.4560546875</ele>
        <time>2017-11-24T08:07:47Z</time>
      </trkpt>
      <trkpt lat="45.26002" lon="6.03196">
        <ele>1940.4560546875</ele>
        <time>2017-11-24T08:07:54Z</time>
      </trkpt>
      <trkpt lat="45.25998" lon="6.032">
        <ele>1943.4560546875</ele>
        <time>2017-11-24T08:07:58Z</time>
      </trkpt>
      <trkpt lat="45.25994" lon="6.03203">
        <ele>1948.4560546875</ele>
        <time>2017-11-24T08:08:03Z</time>
      </trkpt>
      <trkpt lat="45.25988" lon="6.03204">
        <ele>1948.4560546875</ele>
        <time>2017-11-24T08:08:08Z</time>
      </trkpt>
      <trkpt lat="45.25982" lon="6.03205">
        <ele>1951.4560546875</ele>
        <time>2017-11-24T08:08:13Z</time>
      </trkpt>
      <trkpt lat="45.25976" lon="6.03203">
        <ele>1948.4560546875</ele>
        <time>2017-11-24T08:08:18Z</time>
      </trkpt>
      <trkpt lat="45.25972" lon="6.03204">
        <ele>1948.4560546875</ele>
        <time>2017-11-24T08:08:23Z</time>
      </trkpt>
      <trkpt lat="45.25967" lon="6.03206">
        <ele>1952.4560546875</ele>
        <time>2017-11-24T08:08:31Z</time>
      </trkpt>
      <trkpt lat="45.25962" lon="6.03201">
        <ele>1952.4560546875</ele>
        <time>2017-11-24T08:08:37Z</time>
      </trkpt>
      <trkpt lat="45.25957" lon="6.032">
        <ele>1955.4560546875</ele>
        <time>2017-11-24T08:08:42Z</time>
      </trkpt>
      <trkpt lat="45.25953" lon="6.03197">
        <ele>1955.4560546875</ele>
        <time>2017-11-24T08:08:45Z</time>
      </trkpt>
      <trkpt lat="45.25949" lon="6.03192">
        <ele>1957.4560546875</ele>
        <time>2017-11-24T08:08:49Z</time>
      </trkpt>
      <trkpt lat="45.25944" lon="6.03192">
        <ele>1956.4560546875</ele>
        <time>2017-11-24T08:08:56Z</time>
      </trkpt>
      <trkpt lat="45.2594" lon="6.03189">
        <ele>1957.4560546875</ele>
        <time>2017-11-24T08:09:00Z</time>
      </trkpt>
      <trkpt lat="45.25935" lon="6.03185">
        <ele>1956.4560546875</ele>
        <time>2017-11-24T08:09:04Z</time>
      </trkpt>
      <trkpt lat="45.25931" lon="6.03181">
        <ele>1958.4560546875</ele>
        <time>2017-11-24T08:09:07Z</time>
      </trkpt>
      <trkpt lat="45.25926" lon="6.03179">
        <ele>1958.4560546875</ele>
        <time>2017-11-24T08:09:13Z</time>
      </trkpt>
      <trkpt lat="45.25923" lon="6.03173">
        <ele>1957.4560546875</ele>
        <time>2017-11-24T08:09:16Z</time>
      </trkpt>
      <trkpt lat="45.2592" lon="6.03168">
        <ele>1961.4560546875</ele>
        <time>2017-11-24T08:09:23Z</time>
      </trkpt>
      <trkpt lat="45.25917" lon="6.03163">
        <ele>1963.4560546875</ele>
        <time>2017-11-24T08:09:29Z</time>
      </trkpt>
      <trkpt lat="45.25913" lon="6.03159">
        <ele>1963.4560546875</ele>
        <time>2017-11-24T08:09:34Z</time>
      </trkpt>
      <trkpt lat="45.2591" lon="6.03154">
        <ele>1967.4560546875</ele>
        <time>2017-11-24T08:09:39Z</time>
      </trkpt>
      <trkpt lat="45.25906" lon="6.03149">
        <ele>1970.4560546875</ele>
        <time>2017-11-24T08:09:44Z</time>
      </trkpt>
      <trkpt lat="45.25902" lon="6.03144">
        <ele>1973.4560546875</ele>
        <time>2017-11-24T08:09:50Z</time>
      </trkpt>
      <trkpt lat="45.25898" lon="6.0314">
        <ele>1975.4560546875</ele>
        <time>2017-11-24T08:09:54Z</time>
      </trkpt>
      <trkpt lat="45.25893" lon="6.03137">
        <ele>1977.4560546875</ele>
        <time>2017-11-24T08:10:00Z</time>
      </trkpt>
      <trkpt lat="45.25889" lon="6.03133">
        <ele>1980.4560546875</ele>
        <time>2017-11-24T08:10:07Z</time>
      </trkpt>
      <trkpt lat="45.25885" lon="6.0313">
        <ele>1982.4560546875</ele>
        <time>2017-11-24T08:10:12Z</time>
      </trkpt>
      <trkpt lat="45.25883" lon="6.03124">
        <ele>1984.4560546875</ele>
        <time>2017-11-24T08:10:19Z</time>
      </trkpt>
      <trkpt lat="45.25879" lon="6.03119">
        <ele>1985.4560546875</ele>
        <time>2017-11-24T08:10:28Z</time>
      </trkpt>
      <trkpt lat="45.25875" lon="6.03113">
        <ele>1986.4560546875</ele>
        <time>2017-11-24T08:10:33Z</time>
      </trkpt>
      <trkpt lat="45.25873" lon="6.03107">
        <ele>1987.4560546875</ele>
        <time>2017-11-24T08:10:38Z</time>
      </trkpt>
      <trkpt lat="45.2587" lon="6.03102">
        <ele>1988.4560546875</ele>
        <time>2017-11-24T08:10:44Z</time>
      </trkpt>
      <trkpt lat="45.25869" lon="6.03094">
        <ele>1989.4560546875</ele>
        <time>2017-11-24T08:10:49Z</time>
      </trkpt>
      <trkpt lat="45.25868" lon="6.03087">
        <ele>1991.4560546875</ele>
        <time>2017-11-24T08:10:55Z</time>
      </trkpt>
      <trkpt lat="45.25865" lon="6.03082">
        <ele>1993.4560546875</ele>
        <time>2017-11-24T08:11:01Z</time>
      </trkpt>
      <trkpt lat="45.2586" lon="6.03079">
        <ele>1996.4560546875</ele>
        <time>2017-11-24T08:11:11Z</time>
      </trkpt>
      <trkpt lat="45.25856" lon="6.03077">
        <ele>1997.4560546875</ele>
        <time>2017-11-24T08:11:16Z</time>
      </trkpt>
      <trkpt lat="45.25852" lon="6.03074">
        <ele>1998.4560546875</ele>
        <time>2017-11-24T08:11:22Z</time>
      </trkpt>
      <trkpt lat="45.25848" lon="6.03076">
        <ele>2003.4560546875</ele>
        <time>2017-11-24T08:11:29Z</time>
      </trkpt>
      <trkpt lat="45.25843" lon="6.03079">
        <ele>2002.4560546875</ele>
        <time>2017-11-24T08:11:34Z</time>
      </trkpt>
      <trkpt lat="45.25838" lon="6.03079">
        <ele>2004.4560546875</ele>
        <time>2017-11-24T08:11:39Z</time>
      </trkpt>
      <trkpt lat="45.25834" lon="6.03083">
        <ele>2006.4560546875</ele>
        <time>2017-11-24T08:11:47Z</time>
      </trkpt>
      <trkpt lat="45.25831" lon="6.03087">
        <ele>2008.4560546875</ele>
        <time>2017-11-24T08:11:53Z</time>
      </trkpt>
      <trkpt lat="45.25827" lon="6.03092">
        <ele>2009.4560546875</ele>
        <time>2017-11-24T08:11:56Z</time>
      </trkpt>
      <trkpt lat="45.25824" lon="6.03096">
        <ele>2011.4560546875</ele>
        <time>2017-11-24T08:12:02Z</time>
      </trkpt>
      <trkpt lat="45.2582" lon="6.031">
        <ele>2009.4560546875</ele>
        <time>2017-11-24T08:12:06Z</time>
      </trkpt>
      <trkpt lat="45.25816" lon="6.03107">
        <ele>2007.4560546875</ele>
        <time>2017-11-24T08:12:12Z</time>
      </trkpt>
      <trkpt lat="45.25815" lon="6.03113">
        <ele>2009.4560546875</ele>
        <time>2017-11-24T08:12:18Z</time>
      </trkpt>
      <trkpt lat="45.25815" lon="6.03121">
        <ele>2011.4560546875</ele>
        <time>2017-11-24T08:12:25Z</time>
      </trkpt>
      <trkpt lat="45.25814" lon="6.03128">
        <ele>2013.4560546875</ele>
        <time>2017-11-24T08:12:31Z</time>
      </trkpt>
      <trkpt lat="45.25813" lon="6.03135">
        <ele>2014.4560546875</ele>
        <time>2017-11-24T08:12:36Z</time>
      </trkpt>
      <trkpt lat="45.25813" lon="6.03141">
        <ele>2013.4560546875</ele>
        <time>2017-11-24T08:12:41Z</time>
      </trkpt>
      <trkpt lat="45.25814" lon="6.03148">
        <ele>2015.4560546875</ele>
        <time>2017-11-24T08:12:47Z</time>
      </trkpt>
      <trkpt lat="45.25816" lon="6.03154">
        <ele>2015.4560546875</ele>
        <time>2017-11-24T08:12:53Z</time>
      </trkpt>
      <trkpt lat="45.2582" lon="6.0316">
        <ele>2024.4560546875</ele>
        <time>2017-11-24T08:12:59Z</time>
      </trkpt>
      <trkpt lat="45.25821" lon="6.03167">
        <ele>2024.4560546875</ele>
        <time>2017-11-24T08:13:06Z</time>
      </trkpt>
      <trkpt lat="45.2582" lon="6.03174">
        <ele>2030.4560546875</ele>
        <time>2017-11-24T08:13:16Z</time>
      </trkpt>
      <trkpt lat="45.25818" lon="6.0318">
        <ele>2030.4560546875</ele>
        <time>2017-11-24T08:13:23Z</time>
      </trkpt>
      <trkpt lat="45.25816" lon="6.03187">
        <ele>2028.4560546875</ele>
        <time>2017-11-24T08:13:28Z</time>
      </trkpt>
      <trkpt lat="45.25813" lon="6.03193">
        <ele>2033.4560546875</ele>
        <time>2017-11-24T08:13:36Z</time>
      </trkpt>
      <trkpt lat="45.25809" lon="6.03196">
        <ele>2036.4560546875</ele>
        <time>2017-11-24T08:13:42Z</time>
      </trkpt>
      <trkpt lat="45.25805" lon="6.032">
        <ele>2036.4560546875</ele>
        <time>2017-11-24T08:13:48Z</time>
      </trkpt>
      <trkpt lat="45.258" lon="6.03201">
        <ele>2036.4560546875</ele>
        <time>2017-11-24T08:13:54Z</time>
      </trkpt>
      <trkpt lat="45.25796" lon="6.03203">
        <ele>2036.4560546875</ele>
        <time>2017-11-24T08:14:01Z</time>
      </trkpt>
      <trkpt lat="45.25791" lon="6.03202">
        <ele>2038.4560546875</ele>
        <time>2017-11-24T08:14:06Z</time>
      </trkpt>
      <trkpt lat="45.25787" lon="6.03201">
        <ele>2038.4560546875</ele>
        <time>2017-11-24T08:14:09Z</time>
      </trkpt>
      <trkpt lat="45.25782" lon="6.03202">
        <ele>2035.4560546875</ele>
        <time>2017-11-24T08:14:13Z</time>
      </trkpt>
      <trkpt lat="45.25778" lon="6.032">
        <ele>2034.4560546875</ele>
        <time>2017-11-24T08:14:16Z</time>
      </trkpt>
      <trkpt lat="45.25773" lon="6.032">
        <ele>2036.4560546875</ele>
        <time>2017-11-24T08:14:20Z</time>
      </trkpt>
      <trkpt lat="45.25769" lon="6.03195">
        <ele>2038.4560546875</ele>
        <time>2017-11-24T08:14:24Z</time>
      </trkpt>
      <trkpt lat="45.25765" lon="6.03193">
        <ele>2038.4560546875</ele>
        <time>2017-11-24T08:14:27Z</time>
      </trkpt>
      <trkpt lat="45.25759" lon="6.03193">
        <ele>2038.4560546875</ele>
        <time>2017-11-24T08:14:32Z</time>
      </trkpt>
      <trkpt lat="45.25754" lon="6.03194">
        <ele>2038.4560546875</ele>
        <time>2017-11-24T08:14:38Z</time>
      </trkpt>
      <trkpt lat="45.25748" lon="6.03193">
        <ele>2037.4560546875</ele>
        <time>2017-11-24T08:14:43Z</time>
      </trkpt>
      <trkpt lat="45.25744" lon="6.03192">
        <ele>2037.4560546875</ele>
        <time>2017-11-24T08:14:47Z</time>
      </trkpt>
      <trkpt lat="45.25739" lon="6.03193">
        <ele>2039.4560546875</ele>
        <time>2017-11-24T08:14:51Z</time>
      </trkpt>
      <trkpt lat="45.25734" lon="6.03193">
        <ele>2040.4560546875</ele>
        <time>2017-11-24T08:14:56Z</time>
      </trkpt>
      <trkpt lat="45.25729" lon="6.0319">
        <ele>2041.4560546875</ele>
        <time>2017-11-24T08:15:01Z</time>
      </trkpt>
      <trkpt lat="45.25724" lon="6.03191">
        <ele>2046.4560546875</ele>
        <time>2017-11-24T08:15:06Z</time>
      </trkpt>
      <trkpt lat="45.25719" lon="6.03191">
        <ele>2050.4560546875</ele>
        <time>2017-11-24T08:15:12Z</time>
      </trkpt>
      <trkpt lat="45.25714" lon="6.03188">
        <ele>2051.4560546875</ele>
        <time>2017-11-24T08:15:19Z</time>
      </trkpt>
      <trkpt lat="45.2571" lon="6.03185">
        <ele>2051.4560546875</ele>
        <time>2017-11-24T08:15:23Z</time>
      </trkpt>
      <trkpt lat="45.25705" lon="6.03185">
        <ele>2053.4560546875</ele>
        <time>2017-11-24T08:15:29Z</time>
      </trkpt>
      <trkpt lat="45.25699" lon="6.03183">
        <ele>2053.4560546875</ele>
        <time>2017-11-24T08:15:33Z</time>
      </trkpt>
      <trkpt lat="45.25694" lon="6.03181">
        <ele>2054.4560546875</ele>
        <time>2017-11-24T08:15:42Z</time>
      </trkpt>
      <trkpt lat="45.25688" lon="6.03181">
        <ele>2057.4560546875</ele>
        <time>2017-11-24T08:15:48Z</time>
      </trkpt>
      <trkpt lat="45.25683" lon="6.03181">
        <ele>2058.4560546875</ele>
        <time>2017-11-24T08:15:52Z</time>
      </trkpt>
      <trkpt lat="45.25679" lon="6.03182">
        <ele>2061.4560546875</ele>
        <time>2017-11-24T08:15:57Z</time>
      </trkpt>
      <trkpt lat="45.25674" lon="6.03182">
        <ele>2063.4560546875</ele>
        <time>2017-11-24T08:16:04Z</time>
      </trkpt>
      <trkpt lat="45.25669" lon="6.03181">
        <ele>2063.4560546875</ele>
        <time>2017-11-24T08:16:10Z</time>
      </trkpt>
      <trkpt lat="45.25664" lon="6.03182">
        <ele>2064.4560546875</ele>
        <time>2017-11-24T08:16:13Z</time>
      </trkpt>
      <trkpt lat="45.2566" lon="6.0318">
        <ele>2067.4560546875</ele>
        <time>2017-11-24T08:16:26Z</time>
      </trkpt>
      <trkpt lat="45.25654" lon="6.03179">
        <ele>2068.4560546875</ele>
        <time>2017-11-24T08:16:33Z</time>
      </trkpt>
      <trkpt lat="45.25649" lon="6.03176">
        <ele>2069.4560546875</ele>
        <time>2017-11-24T08:16:37Z</time>
      </trkpt>
      <trkpt lat="45.25644" lon="6.03171">
        <ele>2070.4560546875</ele>
        <time>2017-11-24T08:16:42Z</time>
      </trkpt>
      <trkpt lat="45.25639" lon="6.0317">
        <ele>2071.4560546875</ele>
        <time>2017-11-24T08:16:48Z</time>
      </trkpt>
      <trkpt lat="45.25636" lon="6.03165">
        <ele>2073.4560546875</ele>
        <time>2017-11-24T08:16:55Z</time>
      </trkpt>
      <trkpt lat="45.25631" lon="6.0316">
        <ele>2074.4560546875</ele>
        <time>2017-11-24T08:17:00Z</time>
      </trkpt>
      <trkpt lat="45.25627" lon="6.03156">
        <ele>2075.4560546875</ele>
        <time>2017-11-24T08:17:04Z</time>
      </trkpt>
      <trkpt lat="45.25623" lon="6.03151">
        <ele>2079.4560546875</ele>
        <time>2017-11-24T08:17:13Z</time>
      </trkpt>
      <trkpt lat="45.25618" lon="6.03146">
        <ele>2082.4560546875</ele>
        <time>2017-11-24T08:17:21Z</time>
      </trkpt>
      <trkpt lat="45.25613" lon="6.03147">
        <ele>2084.4560546875</ele>
        <time>2017-11-24T08:17:29Z</time>
      </trkpt>
      <trkpt lat="45.25609" lon="6.03152">
        <ele>2085.4560546875</ele>
        <time>2017-11-24T08:17:34Z</time>
      </trkpt>
      <trkpt lat="45.25606" lon="6.03159">
        <ele>2085.4560546875</ele>
        <time>2017-11-24T08:17:38Z</time>
      </trkpt>
      <trkpt lat="45.25603" lon="6.03164">
        <ele>2088.4560546875</ele>
        <time>2017-11-24T08:17:42Z</time>
      </trkpt>
      <trkpt lat="45.256" lon="6.03172">
        <ele>2088.4560546875</ele>
        <time>2017-11-24T08:17:46Z</time>
      </trkpt>
      <trkpt lat="45.25597" lon="6.03178">
        <ele>2085.4560546875</ele>
        <time>2017-11-24T08:17:49Z</time>
      </trkpt>
      <trkpt lat="45.25594" lon="6.03184">
        <ele>2083.4560546875</ele>
        <time>2017-11-24T08:17:53Z</time>
      </trkpt>
      <trkpt lat="45.25588" lon="6.03188">
        <ele>2084.4560546875</ele>
        <time>2017-11-24T08:17:58Z</time>
      </trkpt>
      <trkpt lat="45.25584" lon="6.03191">
        <ele>2085.4560546875</ele>
        <time>2017-11-24T08:18:03Z</time>
      </trkpt>
      <trkpt lat="45.2558" lon="6.03198">
        <ele>2086.4560546875</ele>
        <time>2017-11-24T08:18:07Z</time>
      </trkpt>
      <trkpt lat="45.25576" lon="6.03202">
        <ele>2084.4560546875</ele>
        <time>2017-11-24T08:18:11Z</time>
      </trkpt>
      <trkpt lat="45.25573" lon="6.03208">
        <ele>2086.4560546875</ele>
        <time>2017-11-24T08:18:16Z</time>
      </trkpt>
      <trkpt lat="45.25569" lon="6.03214">
        <ele>2087.4560546875</ele>
        <time>2017-11-24T08:18:21Z</time>
      </trkpt>
      <trkpt lat="45.25566" lon="6.0322">
        <ele>2090.4560546875</ele>
        <time>2017-11-24T08:18:25Z</time>
      </trkpt>
      <trkpt lat="45.25563" lon="6.03227">
        <ele>2093.4560546875</ele>
        <time>2017-11-24T08:18:30Z</time>
      </trkpt>
      <trkpt lat="45.25564" lon="6.03234">
        <ele>2096.4560546875</ele>
        <time>2017-11-24T08:18:34Z</time>
      </trkpt>
      <trkpt lat="45.25562" lon="6.0324">
        <ele>2099.4560546875</ele>
        <time>2017-11-24T08:18:40Z</time>
      </trkpt>
      <trkpt lat="45.25559" lon="6.03246">
        <ele>2097.4560546875</ele>
        <time>2017-11-24T08:18:44Z</time>
      </trkpt>
      <trkpt lat="45.25555" lon="6.03248">
        <ele>2093.4560546875</ele>
        <time>2017-11-24T08:18:48Z</time>
      </trkpt>
      <trkpt lat="45.25551" lon="6.03252">
        <ele>2092.4560546875</ele>
        <time>2017-11-24T08:18:52Z</time>
      </trkpt>
      <trkpt lat="45.25549" lon="6.03259">
        <ele>2096.4560546875</ele>
        <time>2017-11-24T08:18:57Z</time>
      </trkpt>
      <trkpt lat="45.25546" lon="6.03263">
        <ele>2093.4560546875</ele>
        <time>2017-11-24T08:19:01Z</time>
      </trkpt>
      <trkpt lat="45.25545" lon="6.03269">
        <ele>2093.4560546875</ele>
        <time>2017-11-24T08:19:05Z</time>
      </trkpt>
      <trkpt lat="45.25545" lon="6.03276">
        <ele>2097.4560546875</ele>
        <time>2017-11-24T08:19:09Z</time>
      </trkpt>
      <trkpt lat="45.25545" lon="6.03283">
        <ele>2100.4560546875</ele>
        <time>2017-11-24T08:19:13Z</time>
      </trkpt>
      <trkpt lat="45.25543" lon="6.0329">
        <ele>2103.4560546875</ele>
        <time>2017-11-24T08:19:18Z</time>
      </trkpt>
      <trkpt lat="45.2554" lon="6.03295">
        <ele>2101.4560546875</ele>
        <time>2017-11-24T08:19:21Z</time>
      </trkpt>
      <trkpt lat="45.25538" lon="6.03302">
        <ele>2104.4560546875</ele>
        <time>2017-11-24T08:19:28Z</time>
      </trkpt>
      <trkpt lat="45.25535" lon="6.03306">
        <ele>2103.4560546875</ele>
        <time>2017-11-24T08:19:32Z</time>
      </trkpt>
      <trkpt lat="45.25532" lon="6.03314">
        <ele>2106.4560546875</ele>
        <time>2017-11-24T08:19:38Z</time>
      </trkpt>
      <trkpt lat="45.2553" lon="6.03321">
        <ele>2110.4560546875</ele>
        <time>2017-11-24T08:19:44Z</time>
      </trkpt>
      <trkpt lat="45.25529" lon="6.03327">
        <ele>2113.4560546875</ele>
        <time>2017-11-24T08:19:49Z</time>
      </trkpt>
      <trkpt lat="45.25525" lon="6.03333">
        <ele>2114.4560546875</ele>
        <time>2017-11-24T08:19:54Z</time>
      </trkpt>
      <trkpt lat="45.25522" lon="6.03339">
        <ele>2116.4560546875</ele>
        <time>2017-11-24T08:20:00Z</time>
      </trkpt>
      <trkpt lat="45.2552" lon="6.03345">
        <ele>2115.4560546875</ele>
        <time>2017-11-24T08:20:05Z</time>
      </trkpt>
      <trkpt lat="45.25516" lon="6.03349">
        <ele>2117.4560546875</ele>
        <time>2017-11-24T08:20:12Z</time>
      </trkpt>
      <trkpt lat="45.25512" lon="6.03352">
        <ele>2120.4560546875</ele>
        <time>2017-11-24T08:20:19Z</time>
      </trkpt>
      <trkpt lat="45.25508" lon="6.03359">
        <ele>2124.4560546875</ele>
        <time>2017-11-24T08:20:27Z</time>
      </trkpt>
      <trkpt lat="45.25504" lon="6.03358">
        <ele>2122.4560546875</ele>
        <time>2017-11-24T08:20:31Z</time>
      </trkpt>
      <trkpt lat="45.25499" lon="6.0336">
        <ele>2120.4560546875</ele>
        <time>2017-11-24T08:20:37Z</time>
      </trkpt>
      <trkpt lat="45.25494" lon="6.0336">
        <ele>2121.4560546875</ele>
        <time>2017-11-24T08:20:41Z</time>
      </trkpt>
      <trkpt lat="45.25489" lon="6.03361">
        <ele>2121.4560546875</ele>
        <time>2017-11-24T08:20:47Z</time>
      </trkpt>
      <trkpt lat="45.25487" lon="6.03368">
        <ele>2127.4560546875</ele>
        <time>2017-11-24T08:23:46Z</time>
      </trkpt>
      <trkpt lat="45.25485" lon="6.03375">
        <ele>2126.4560546875</ele>
        <time>2017-11-24T08:23:48Z</time>
      </trkpt>
      <trkpt lat="45.2548" lon="6.03384">
        <ele>2128.4560546875</ele>
        <time>2017-11-24T08:23:50Z</time>
      </trkpt>
      <trkpt lat="45.25477" lon="6.03392">
        <ele>2127.4560546875</ele>
        <time>2017-11-24T08:23:52Z</time>
      </trkpt>
      <trkpt lat="45.25474" lon="6.03399">
        <ele>2128.4560546875</ele>
        <time>2017-11-24T08:23:54Z</time>
      </trkpt>
      <trkpt lat="45.25472" lon="6.03407">
        <ele>2129.4560546875</ele>
        <time>2017-11-24T08:23:56Z</time>
      </trkpt>
      <trkpt lat="45.25468" lon="6.03416">
        <ele>2130.4560546875</ele>
        <time>2017-11-24T08:23:58Z</time>
      </trkpt>
      <trkpt lat="45.25464" lon="6.03425">
        <ele>2130.4560546875</ele>
        <time>2017-11-24T08:24:00Z</time>
      </trkpt>
      <trkpt lat="45.2546" lon="6.03433">
        <ele>2130.4560546875</ele>
        <time>2017-11-24T08:24:02Z</time>
      </trkpt>
      <trkpt lat="45.25457" lon="6.03441">
        <ele>2128.4560546875</ele>
        <time>2017-11-24T08:24:05Z</time>
      </trkpt>
      <trkpt lat="45.25455" lon="6.03449">
        <ele>2129.4560546875</ele>
        <time>2017-11-24T08:24:07Z</time>
      </trkpt>
      <trkpt lat="45.25455" lon="6.03456">
        <ele>2130.4560546875</ele>
        <time>2017-11-24T08:24:09Z</time>
      </trkpt>
      <trkpt lat="45.25455" lon="6.03463">
        <ele>2131.4560546875</ele>
        <time>2017-11-24T08:24:12Z</time>
      </trkpt>
      <trkpt lat="45.25453" lon="6.03469">
        <ele>2132.4560546875</ele>
        <time>2017-11-24T08:24:18Z</time>
      </trkpt>
      <trkpt lat="45.25449" lon="6.03473">
        <ele>2130.4560546875</ele>
        <time>2017-11-24T08:24:21Z</time>
      </trkpt>
      <trkpt lat="45.25438" lon="6.03477">
        <ele>2132.4560546875</ele>
        <time>2017-11-24T08:24:23Z</time>
      </trkpt>
      <trkpt lat="45.25417" lon="6.03482">
        <ele>2129.4560546875</ele>
        <time>2017-11-24T08:24:26Z</time>
      </trkpt>
      <trkpt lat="45.25407" lon="6.03489">
        <ele>2128.4560546875</ele>
        <time>2017-11-24T08:24:28Z</time>
      </trkpt>
      <trkpt lat="45.25394" lon="6.03493">
        <ele>2127.4560546875</ele>
        <time>2017-11-24T08:24:30Z</time>
      </trkpt>
      <trkpt lat="45.2538" lon="6.035">
        <ele>2125.4560546875</ele>
        <time>2017-11-24T08:24:32Z</time>
      </trkpt>
      <trkpt lat="45.25369" lon="6.03509">
        <ele>2125.4560546875</ele>
        <time>2017-11-24T08:24:34Z</time>
      </trkpt>
      <trkpt lat="45.25356" lon="6.03518">
        <ele>2121.4560546875</ele>
        <time>2017-11-24T08:24:37Z</time>
      </trkpt>
      <trkpt lat="45.25347" lon="6.03524">
        <ele>2120.4560546875</ele>
        <time>2017-11-24T08:24:39Z</time>
      </trkpt>
      <trkpt lat="45.25339" lon="6.0353">
        <ele>2117.4560546875</ele>
        <time>2017-11-24T08:24:41Z</time>
      </trkpt>
      <trkpt lat="45.25331" lon="6.03537">
        <ele>2114.4560546875</ele>
        <time>2017-11-24T08:24:43Z</time>
      </trkpt>
      <trkpt lat="45.25322" lon="6.03541">
        <ele>2113.4560546875</ele>
        <time>2017-11-24T08:24:45Z</time>
      </trkpt>
      <trkpt lat="45.25309" lon="6.03546">
        <ele>2113.455078125</ele>
        <time>2017-11-24T08:24:48Z</time>
      </trkpt>
      <trkpt lat="45.25302" lon="6.03549">
        <ele>2111.455078125</ele>
        <time>2017-11-24T08:24:50Z</time>
      </trkpt>
      <trkpt lat="45.25294" lon="6.03552">
        <ele>2109.455078125</ele>
        <time>2017-11-24T08:24:52Z</time>
      </trkpt>
      <trkpt lat="45.25289" lon="6.03553">
        <ele>2108.455078125</ele>
        <time>2017-11-24T08:24:53Z</time>
      </trkpt>
      <trkpt lat="45.25282" lon="6.03553">
        <ele>2108.455078125</ele>
        <time>2017-11-24T08:24:55Z</time>
      </trkpt>
      <trkpt lat="45.25278" lon="6.03556">
        <ele>2107.455078125</ele>
        <time>2017-11-24T08:24:57Z</time>
      </trkpt>
      <trkpt lat="45.25276" lon="6.03569">
        <ele>2100.455078125</ele>
        <time>2017-11-24T08:25:01Z</time>
      </trkpt>
      <trkpt lat="45.25263" lon="6.03573">
        <ele>2096.455078125</ele>
        <time>2017-11-24T08:25:04Z</time>
      </trkpt>
      <trkpt lat="45.25256" lon="6.03574">
        <ele>2095.455078125</ele>
        <time>2017-11-24T08:25:05Z</time>
      </trkpt>
      <trkpt lat="45.25244" lon="6.03576">
        <ele>2094.455078125</ele>
        <time>2017-11-24T08:25:07Z</time>
      </trkpt>
      <trkpt lat="45.25236" lon="6.0358">
        <ele>2094.455078125</ele>
        <time>2017-11-24T08:25:09Z</time>
      </trkpt>
      <trkpt lat="45.25227" lon="6.03582">
        <ele>2093.455078125</ele>
        <time>2017-11-24T08:25:11Z</time>
      </trkpt>
      <trkpt lat="45.25216" lon="6.03592">
        <ele>2092.455078125</ele>
        <time>2017-11-24T08:25:14Z</time>
      </trkpt>
      <trkpt lat="45.2521" lon="6.03593">
        <ele>2091.455078125</ele>
        <time>2017-11-24T08:25:15Z</time>
      </trkpt>
      <trkpt lat="45.25201" lon="6.03593">
        <ele>2090.455078125</ele>
        <time>2017-11-24T08:25:17Z</time>
      </trkpt>
      <trkpt lat="45.25196" lon="6.03596">
        <ele>2090.455078125</ele>
        <time>2017-11-24T08:25:19Z</time>
      </trkpt>
      <trkpt lat="45.25189" lon="6.03598">
        <ele>2086.455078125</ele>
        <time>2017-11-24T08:25:21Z</time>
      </trkpt>
      <trkpt lat="45.2518" lon="6.03602">
        <ele>2085.455078125</ele>
        <time>2017-11-24T08:25:23Z</time>
      </trkpt>
      <trkpt lat="45.25171" lon="6.03604">
        <ele>2085.455078125</ele>
        <time>2017-11-24T08:25:25Z</time>
      </trkpt>
      <trkpt lat="45.25162" lon="6.03605">
        <ele>2085.455078125</ele>
        <time>2017-11-24T08:25:27Z</time>
      </trkpt>
      <trkpt lat="45.25156" lon="6.03606">
        <ele>2080.455078125</ele>
        <time>2017-11-24T08:25:29Z</time>
      </trkpt>
      <trkpt lat="45.2515" lon="6.03608">
        <ele>2083.455078125</ele>
        <time>2017-11-24T08:25:31Z</time>
      </trkpt>
      <trkpt lat="45.25143" lon="6.03605">
        <ele>2081.455078125</ele>
        <time>2017-11-24T08:25:33Z</time>
      </trkpt>
      <trkpt lat="45.25137" lon="6.03605">
        <ele>2081.455078125</ele>
        <time>2017-11-24T08:25:37Z</time>
      </trkpt>
      <trkpt lat="45.25131" lon="6.03606">
        <ele>2085.455078125</ele>
        <time>2017-11-24T08:25:43Z</time>
      </trkpt>
      <trkpt lat="45.25124" lon="6.03609">
        <ele>2086.455078125</ele>
        <time>2017-11-24T08:25:46Z</time>
      </trkpt>
      <trkpt lat="45.25119" lon="6.03609">
        <ele>2085.455078125</ele>
        <time>2017-11-24T08:25:48Z</time>
      </trkpt>
      <trkpt lat="45.25111" lon="6.03611">
        <ele>2082.455078125</ele>
        <time>2017-11-24T08:25:52Z</time>
      </trkpt>
      <trkpt lat="45.25105" lon="6.03615">
        <ele>2081.455078125</ele>
        <time>2017-11-24T08:25:54Z</time>
      </trkpt>
      <trkpt lat="45.251" lon="6.03619">
        <ele>2079.455078125</ele>
        <time>2017-11-24T08:25:56Z</time>
      </trkpt>
      <trkpt lat="45.25095" lon="6.03622">
        <ele>2076.455078125</ele>
        <time>2017-11-24T08:25:59Z</time>
      </trkpt>
      <trkpt lat="45.25089" lon="6.0363">
        <ele>2076.455078125</ele>
        <time>2017-11-24T08:26:02Z</time>
      </trkpt>
      <trkpt lat="45.25081" lon="6.03637">
        <ele>2076.455078125</ele>
        <time>2017-11-24T08:26:04Z</time>
      </trkpt>
      <trkpt lat="45.25075" lon="6.03642">
        <ele>2075.455078125</ele>
        <time>2017-11-24T08:26:05Z</time>
      </trkpt>
      <trkpt lat="45.25068" lon="6.03649">
        <ele>2074.455078125</ele>
        <time>2017-11-24T08:26:07Z</time>
      </trkpt>
      <trkpt lat="45.25061" lon="6.03654">
        <ele>2071.455078125</ele>
        <time>2017-11-24T08:26:09Z</time>
      </trkpt>
      <trkpt lat="45.25052" lon="6.03666">
        <ele>2069.455078125</ele>
        <time>2017-11-24T08:26:12Z</time>
      </trkpt>
      <trkpt lat="45.25047" lon="6.03668">
        <ele>2069.455078125</ele>
        <time>2017-11-24T08:26:17Z</time>
      </trkpt>
      <trkpt lat="45.25041" lon="6.03672">
        <ele>2070.455078125</ele>
        <time>2017-11-24T08:26:22Z</time>
      </trkpt>
      <trkpt lat="45.25034" lon="6.03671">
        <ele>2070.455078125</ele>
        <time>2017-11-24T08:26:25Z</time>
      </trkpt>
      <trkpt lat="45.25034" lon="6.0368">
        <ele>2064.455078125</ele>
        <time>2017-11-24T08:26:29Z</time>
      </trkpt>
      <trkpt lat="45.25031" lon="6.03688">
        <ele>2061.455078125</ele>
        <time>2017-11-24T08:26:31Z</time>
      </trkpt>
      <trkpt lat="45.25029" lon="6.03695">
        <ele>2053.455078125</ele>
        <time>2017-11-24T08:26:38Z</time>
      </trkpt>
      <trkpt lat="45.25027" lon="6.03705">
        <ele>2049.455078125</ele>
        <time>2017-11-24T08:26:40Z</time>
      </trkpt>
      <trkpt lat="45.25024" lon="6.03711">
        <ele>2045.4549560547</ele>
        <time>2017-11-24T08:26:42Z</time>
      </trkpt>
      <trkpt lat="45.25023" lon="6.03718">
        <ele>2040.4549560547</ele>
        <time>2017-11-24T08:26:44Z</time>
      </trkpt>
      <trkpt lat="45.25022" lon="6.03726">
        <ele>2036.4549560547</ele>
        <time>2017-11-24T08:26:46Z</time>
      </trkpt>
      <trkpt lat="45.25019" lon="6.03736">
        <ele>2030.4549560547</ele>
        <time>2017-11-24T08:26:54Z</time>
      </trkpt>
      <trkpt lat="45.25012" lon="6.0374">
        <ele>2028.4549560547</ele>
        <time>2017-11-24T08:26:56Z</time>
      </trkpt>
      <trkpt lat="45.25007" lon="6.03749">
        <ele>2026.4549560547</ele>
        <time>2017-11-24T08:26:58Z</time>
      </trkpt>
      <trkpt lat="45.25005" lon="6.03755">
        <ele>2026.4549560547</ele>
        <time>2017-11-24T08:26:59Z</time>
      </trkpt>
      <trkpt lat="45.25008" lon="6.03764">
        <ele>2027.4549560547</ele>
        <time>2017-11-24T08:27:01Z</time>
      </trkpt>
      <trkpt lat="45.25011" lon="6.03779">
        <ele>2020.4549560547</ele>
        <time>2017-11-24T08:27:04Z</time>
      </trkpt>
      <trkpt lat="45.25007" lon="6.03786">
        <ele>2020.4549560547</ele>
        <time>2017-11-24T08:27:05Z</time>
      </trkpt>
      <trkpt lat="45.24995" lon="6.03797">
        <ele>2019.4549560547</ele>
        <time>2017-11-24T08:27:08Z</time>
      </trkpt>
      <trkpt lat="45.24995" lon="6.03814">
        <ele>2018.4549560547</ele>
        <time>2017-11-24T08:27:11Z</time>
      </trkpt>
      <trkpt lat="45.24988" lon="6.03827">
        <ele>2017.4549560547</ele>
        <time>2017-11-24T08:27:13Z</time>
      </trkpt>
      <trkpt lat="45.24993" lon="6.03841">
        <ele>2010.4549560547</ele>
        <time>2017-11-24T08:27:16Z</time>
      </trkpt>
      <trkpt lat="45.24991" lon="6.03851">
        <ele>2007.4549560547</ele>
        <time>2017-11-24T08:27:18Z</time>
      </trkpt>
      <trkpt lat="45.24989" lon="6.03861">
        <ele>2006.4549560547</ele>
        <time>2017-11-24T08:27:20Z</time>
      </trkpt>
      <trkpt lat="45.24987" lon="6.03868">
        <ele>2006.4549560547</ele>
        <time>2017-11-24T08:27:22Z</time>
      </trkpt>
      <trkpt lat="45.24982" lon="6.03865">
        <ele>2004.4549560547</ele>
        <time>2017-11-24T08:27:23Z</time>
      </trkpt>
      <trkpt lat="45.24976" lon="6.03872">
        <ele>2002.4549560547</ele>
        <time>2017-11-24T08:27:25Z</time>
      </trkpt>
      <trkpt lat="45.24968" lon="6.03884">
        <ele>1997.4549560547</ele>
        <time>2017-11-24T08:27:27Z</time>
      </trkpt>
      <trkpt lat="45.2496" lon="6.03893">
        <ele>1996.4549560547</ele>
        <time>2017-11-24T08:27:29Z</time>
      </trkpt>
      <trkpt lat="45.24949" lon="6.03904">
        <ele>1992.4549560547</ele>
        <time>2017-11-24T08:27:32Z</time>
      </trkpt>
      <trkpt lat="45.24942" lon="6.03914">
        <ele>1991.4549560547</ele>
        <time>2017-11-24T08:27:34Z</time>
      </trkpt>
      <trkpt lat="45.24938" lon="6.03927">
        <ele>1987.4549560547</ele>
        <time>2017-11-24T08:27:38Z</time>
      </trkpt>
      <trkpt lat="45.24937" lon="6.03937">
        <ele>1987.4549560547</ele>
        <time>2017-11-24T08:27:40Z</time>
      </trkpt>
      <trkpt lat="45.2493" lon="6.03947">
        <ele>1985.4549560547</ele>
        <time>2017-11-24T08:27:42Z</time>
      </trkpt>
      <trkpt lat="45.24922" lon="6.03958">
        <ele>1984.4549560547</ele>
        <time>2017-11-24T08:27:44Z</time>
      </trkpt>
      <trkpt lat="45.24913" lon="6.03971">
        <ele>1983.4549560547</ele>
        <time>2017-11-24T08:27:46Z</time>
      </trkpt>
      <trkpt lat="45.24904" lon="6.0399">
        <ele>1981.4549560547</ele>
        <time>2017-11-24T08:27:49Z</time>
      </trkpt>
      <trkpt lat="45.249" lon="6.03997">
        <ele>1975.4549560547</ele>
        <time>2017-11-24T08:27:52Z</time>
      </trkpt>
      <trkpt lat="45.24893" lon="6.04001">
        <ele>1968.4549560547</ele>
        <time>2017-11-24T08:27:54Z</time>
      </trkpt>
      <trkpt lat="45.24889" lon="6.04004">
        <ele>1965.4549560547</ele>
        <time>2017-11-24T08:27:59Z</time>
      </trkpt>
      <trkpt lat="45.24895" lon="6.04008">
        <ele>1958.4549560547</ele>
        <time>2017-11-24T08:28:02Z</time>
      </trkpt>
      <trkpt lat="45.24891" lon="6.04013">
        <ele>1955.4549560547</ele>
        <time>2017-11-24T08:28:03Z</time>
      </trkpt>
      <trkpt lat="45.24891" lon="6.0402">
        <ele>1950.4549560547</ele>
        <time>2017-11-24T08:28:05Z</time>
      </trkpt>
      <trkpt lat="45.24895" lon="6.04024">
        <ele>1949.4549560547</ele>
        <time>2017-11-24T08:28:07Z</time>
      </trkpt>
      <trkpt lat="45.24895" lon="6.04034">
        <ele>1948.4549560547</ele>
        <time>2017-11-24T08:28:09Z</time>
      </trkpt>
      <trkpt lat="45.24898" lon="6.04045">
        <ele>1941.4549560547</ele>
        <time>2017-11-24T08:28:12Z</time>
      </trkpt>
      <trkpt lat="45.24893" lon="6.04049">
        <ele>1937.4549560547</ele>
        <time>2017-11-24T08:28:13Z</time>
      </trkpt>
      <trkpt lat="45.2489" lon="6.04053">
        <ele>1934.4549560547</ele>
        <time>2017-11-24T08:28:15Z</time>
      </trkpt>
      <trkpt lat="45.24887" lon="6.0406">
        <ele>1933.4549560547</ele>
        <time>2017-11-24T08:28:17Z</time>
      </trkpt>
      <trkpt lat="45.24884" lon="6.04066">
        <ele>1932.4549560547</ele>
        <time>2017-11-24T08:28:18Z</time>
      </trkpt>
      <trkpt lat="45.24879" lon="6.04072">
        <ele>1929.4549560547</ele>
        <time>2017-11-24T08:28:20Z</time>
      </trkpt>
      <trkpt lat="45.24874" lon="6.04075">
        <ele>1924.4549560547</ele>
        <time>2017-11-24T08:29:53Z</time>
      </trkpt>
      <trkpt lat="45.24869" lon="6.04078">
        <ele>1930.4549560547</ele>
        <time>2017-11-24T08:31:16Z</time>
      </trkpt>
      <trkpt lat="45.24865" lon="6.0408">
        <ele>1932.4549560547</ele>
        <time>2017-11-24T08:31:19Z</time>
      </trkpt>
      <trkpt lat="45.2486" lon="6.04083">
        <ele>1935.4549560547</ele>
        <time>2017-11-24T08:31:25Z</time>
      </trkpt>
      <trkpt lat="45.24855" lon="6.04087">
        <ele>1931.4549560547</ele>
        <time>2017-11-24T08:31:29Z</time>
      </trkpt>
      <trkpt lat="45.2485" lon="6.04092">
        <ele>1926.4549560547</ele>
        <time>2017-11-24T08:31:35Z</time>
      </trkpt>
      <trkpt lat="45.24844" lon="6.04095">
        <ele>1925.4549560547</ele>
        <time>2017-11-24T08:31:40Z</time>
      </trkpt>
      <trkpt lat="45.2484" lon="6.04099">
        <ele>1927.4549560547</ele>
        <time>2017-11-24T08:31:45Z</time>
      </trkpt>
      <trkpt lat="45.24836" lon="6.04101">
        <ele>1929.4549560547</ele>
        <time>2017-11-24T08:31:52Z</time>
      </trkpt>
      <trkpt lat="45.24832" lon="6.04103">
        <ele>1934.4549560547</ele>
        <time>2017-11-24T08:31:58Z</time>
      </trkpt>
      <trkpt lat="45.24827" lon="6.04106">
        <ele>1936.4549560547</ele>
        <time>2017-11-24T08:32:04Z</time>
      </trkpt>
      <trkpt lat="45.24821" lon="6.04112">
        <ele>1937.4549560547</ele>
        <time>2017-11-24T08:32:12Z</time>
      </trkpt>
      <trkpt lat="45.24816" lon="6.04114">
        <ele>1935.4549560547</ele>
        <time>2017-11-24T08:32:15Z</time>
      </trkpt>
      <trkpt lat="45.24813" lon="6.0412">
        <ele>1937.4549560547</ele>
        <time>2017-11-24T08:32:22Z</time>
      </trkpt>
      <trkpt lat="45.24809" lon="6.04125">
        <ele>1939.4549560547</ele>
        <time>2017-11-24T08:32:31Z</time>
      </trkpt>
      <trkpt lat="45.24804" lon="6.04126">
        <ele>1937.4549560547</ele>
        <time>2017-11-24T08:32:34Z</time>
      </trkpt>
      <trkpt lat="45.248" lon="6.04128">
        <ele>1941.4549560547</ele>
        <time>2017-11-24T08:32:40Z</time>
      </trkpt>
      <trkpt lat="45.24795" lon="6.04129">
        <ele>1940.4549560547</ele>
        <time>2017-11-24T08:32:45Z</time>
      </trkpt>
      <trkpt lat="45.2479" lon="6.04128">
        <ele>1942.4549560547</ele>
        <time>2017-11-24T08:32:53Z</time>
      </trkpt>
      <trkpt lat="45.24788" lon="6.04134">
        <ele>1942.4549560547</ele>
        <time>2017-11-24T08:33:00Z</time>
      </trkpt>
      <trkpt lat="45.24783" lon="6.04132">
        <ele>1941.4549560547</ele>
        <time>2017-11-24T08:33:22Z</time>
      </trkpt>
      <trkpt lat="45.24779" lon="6.04128">
        <ele>1943.4549560547</ele>
        <time>2017-11-24T08:33:27Z</time>
      </trkpt>
      <trkpt lat="45.24774" lon="6.04126">
        <ele>1940.4549560547</ele>
        <time>2017-11-24T08:33:31Z</time>
      </trkpt>
      <trkpt lat="45.24769" lon="6.04124">
        <ele>1941.4549560547</ele>
        <time>2017-11-24T08:33:34Z</time>
      </trkpt>
      <trkpt lat="45.24764" lon="6.04123">
        <ele>1943.4549560547</ele>
        <time>2017-11-24T08:33:38Z</time>
      </trkpt>
      <trkpt lat="45.24759" lon="6.04126">
        <ele>1947.4549560547</ele>
        <time>2017-11-24T08:33:44Z</time>
      </trkpt>
      <trkpt lat="45.24754" lon="6.04129">
        <ele>1951.4549560547</ele>
        <time>2017-11-24T08:33:49Z</time>
      </trkpt>
      <trkpt lat="45.2475" lon="6.04127">
        <ele>1954.4549560547</ele>
        <time>2017-11-24T08:33:57Z</time>
      </trkpt>
      <trkpt lat="45.24745" lon="6.04123">
        <ele>1956.4549560547</ele>
        <time>2017-11-24T08:34:05Z</time>
      </trkpt>
      <trkpt lat="45.24741" lon="6.0412">
        <ele>1960.4549560547</ele>
        <time>2017-11-24T08:34:17Z</time>
      </trkpt>
      <trkpt lat="45.24735" lon="6.0412">
        <ele>1961.4549560547</ele>
        <time>2017-11-24T08:34:27Z</time>
      </trkpt>
      <trkpt lat="45.24732" lon="6.04115">
        <ele>1963.4549560547</ele>
        <time>2017-11-24T08:34:49Z</time>
      </trkpt>
      <trkpt lat="45.24726" lon="6.04114">
        <ele>1962.4549560547</ele>
        <time>2017-11-24T08:34:53Z</time>
      </trkpt>
      <trkpt lat="45.24721" lon="6.04106">
        <ele>1965.4549560547</ele>
        <time>2017-11-24T08:35:05Z</time>
      </trkpt>
      <trkpt lat="45.24716" lon="6.04104">
        <ele>1970.4549560547</ele>
        <time>2017-11-24T08:35:08Z</time>
      </trkpt>
      <trkpt lat="45.24712" lon="6.04101">
        <ele>1975.4549560547</ele>
        <time>2017-11-24T08:35:16Z</time>
      </trkpt>
      <trkpt lat="45.24712" lon="6.04094">
        <ele>1977.4549560547</ele>
        <time>2017-11-24T08:35:27Z</time>
      </trkpt>
      <trkpt lat="45.24712" lon="6.04087">
        <ele>1980.4549560547</ele>
        <time>2017-11-24T08:35:32Z</time>
      </trkpt>
      <trkpt lat="45.24709" lon="6.04081">
        <ele>1980.4549560547</ele>
        <time>2017-11-24T08:35:40Z</time>
      </trkpt>
      <trkpt lat="45.24707" lon="6.04074">
        <ele>1983.4549560547</ele>
        <time>2017-11-24T08:35:46Z</time>
      </trkpt>
      <trkpt lat="45.24705" lon="6.04068">
        <ele>1981.4549560547</ele>
        <time>2017-11-24T08:35:53Z</time>
      </trkpt>
      <trkpt lat="45.24701" lon="6.04064">
        <ele>1982.4549560547</ele>
        <time>2017-11-24T08:35:58Z</time>
      </trkpt>
      <trkpt lat="45.24699" lon="6.04056">
        <ele>1983.4549560547</ele>
        <time>2017-11-24T08:36:05Z</time>
      </trkpt>
      <trkpt lat="45.24696" lon="6.04052">
        <ele>1985.4549560547</ele>
        <time>2017-11-24T08:36:08Z</time>
      </trkpt>
      <trkpt lat="45.24693" lon="6.04045">
        <ele>1985.4549560547</ele>
        <time>2017-11-24T08:36:13Z</time>
      </trkpt>
      <trkpt lat="45.24689" lon="6.04039">
        <ele>1987.4549560547</ele>
        <time>2017-11-24T08:36:20Z</time>
      </trkpt>
      <trkpt lat="45.24684" lon="6.04044">
        <ele>1994.4549560547</ele>
        <time>2017-11-24T08:36:34Z</time>
      </trkpt>
      <trkpt lat="45.24681" lon="6.04049">
        <ele>1997.4549560547</ele>
        <time>2017-11-24T08:36:40Z</time>
      </trkpt>
      <trkpt lat="45.24678" lon="6.04053">
        <ele>2004.4549560547</ele>
        <time>2017-11-24T08:36:53Z</time>
      </trkpt>
      <trkpt lat="45.24674" lon="6.04048">
        <ele>2002.4549560547</ele>
        <time>2017-11-24T08:36:59Z</time>
      </trkpt>
      <trkpt lat="45.24672" lon="6.04042">
        <ele>2005.4549560547</ele>
        <time>2017-11-24T08:37:03Z</time>
      </trkpt>
      <trkpt lat="45.24669" lon="6.04036">
        <ele>2005.4549560547</ele>
        <time>2017-11-24T08:37:08Z</time>
      </trkpt>
      <trkpt lat="45.2467" lon="6.0403">
        <ele>2006.4549560547</ele>
        <time>2017-11-24T08:37:13Z</time>
      </trkpt>
      <trkpt lat="45.24665" lon="6.04031">
        <ele>2003.4549560547</ele>
        <time>2017-11-24T08:37:28Z</time>
      </trkpt>
      <trkpt lat="45.24661" lon="6.04036">
        <ele>2004.4549560547</ele>
        <time>2017-11-24T08:37:34Z</time>
      </trkpt>
      <trkpt lat="45.24657" lon="6.04032">
        <ele>2006.4549560547</ele>
        <time>2017-11-24T08:37:47Z</time>
      </trkpt>
      <trkpt lat="45.24657" lon="6.04025">
        <ele>2007.4549560547</ele>
        <time>2017-11-24T08:37:54Z</time>
      </trkpt>
      <trkpt lat="45.24658" lon="6.04018">
        <ele>2007.4549560547</ele>
        <time>2017-11-24T08:37:57Z</time>
      </trkpt>
      <trkpt lat="45.24653" lon="6.04017">
        <ele>2008.4549560547</ele>
        <time>2017-11-24T08:38:04Z</time>
      </trkpt>
      <trkpt lat="45.24648" lon="6.04021">
        <ele>2011.4549560547</ele>
        <time>2017-11-24T08:38:10Z</time>
      </trkpt>
      <trkpt lat="45.24644" lon="6.04023">
        <ele>2015.4549560547</ele>
        <time>2017-11-24T08:38:20Z</time>
      </trkpt>
      <trkpt lat="45.2464" lon="6.04017">
        <ele>2021.4549560547</ele>
        <time>2017-11-24T08:38:33Z</time>
      </trkpt>
      <trkpt lat="45.24638" lon="6.04011">
        <ele>2023.4549560547</ele>
        <time>2017-11-24T08:38:40Z</time>
      </trkpt>
      <trkpt lat="45.24636" lon="6.04005">
        <ele>2023.4549560547</ele>
        <time>2017-11-24T08:38:44Z</time>
      </trkpt>
      <trkpt lat="45.24637" lon="6.03999">
        <ele>2025.4549560547</ele>
        <time>2017-11-24T08:38:51Z</time>
      </trkpt>
      <trkpt lat="45.24634" lon="6.03994">
        <ele>2027.4549560547</ele>
        <time>2017-11-24T08:38:56Z</time>
      </trkpt>
      <trkpt lat="45.24629" lon="6.03994">
        <ele>2033.4549560547</ele>
        <time>2017-11-24T08:39:21Z</time>
      </trkpt>
      <trkpt lat="45.24626" lon="6.04">
        <ele>2033.4549560547</ele>
        <time>2017-11-24T08:39:29Z</time>
      </trkpt>
      <trkpt lat="45.24621" lon="6.04002">
        <ele>2032.4549560547</ele>
        <time>2017-11-24T08:39:35Z</time>
      </trkpt>
      <trkpt lat="45.24617" lon="6.04006">
        <ele>2033.4549560547</ele>
        <time>2017-11-24T08:39:40Z</time>
      </trkpt>
      <trkpt lat="45.24613" lon="6.0401">
        <ele>2034.4549560547</ele>
        <time>2017-11-24T08:39:46Z</time>
      </trkpt>
      <trkpt lat="45.24609" lon="6.04007">
        <ele>2034.4549560547</ele>
        <time>2017-11-24T08:40:05Z</time>
      </trkpt>
      <trkpt lat="45.24609" lon="6.03999">
        <ele>2035.4549560547</ele>
        <time>2017-11-24T08:40:09Z</time>
      </trkpt>
      <trkpt lat="45.24609" lon="6.03991">
        <ele>2035.4549560547</ele>
        <time>2017-11-24T08:40:15Z</time>
      </trkpt>
      <trkpt lat="45.24607" lon="6.03984">
        <ele>2038.4549560547</ele>
        <time>2017-11-24T08:40:20Z</time>
      </trkpt>
      <trkpt lat="45.24604" lon="6.03979">
        <ele>2040.4549560547</ele>
        <time>2017-11-24T08:40:27Z</time>
      </trkpt>
      <trkpt lat="45.24599" lon="6.0398">
        <ele>2047.4549560547</ele>
        <time>2017-11-24T08:40:38Z</time>
      </trkpt>
      <trkpt lat="45.24594" lon="6.03984">
        <ele>2054.455078125</ele>
        <time>2017-11-24T08:40:55Z</time>
      </trkpt>
      <trkpt lat="45.2459" lon="6.03987">
        <ele>2054.455078125</ele>
        <time>2017-11-24T08:40:58Z</time>
      </trkpt>
      <trkpt lat="45.24584" lon="6.03988">
        <ele>2053.455078125</ele>
        <time>2017-11-24T08:41:10Z</time>
      </trkpt>
      <trkpt lat="45.2458" lon="6.03989">
        <ele>2059.455078125</ele>
        <time>2017-11-24T08:41:17Z</time>
      </trkpt>
      <trkpt lat="45.24577" lon="6.03983">
        <ele>2059.455078125</ele>
        <time>2017-11-24T08:41:31Z</time>
      </trkpt>
      <trkpt lat="45.24572" lon="6.03984">
        <ele>2058.455078125</ele>
        <time>2017-11-24T08:41:35Z</time>
      </trkpt>
      <trkpt lat="45.24574" lon="6.03977">
        <ele>2062.455078125</ele>
        <time>2017-11-24T08:41:50Z</time>
      </trkpt>
      <trkpt lat="45.24576" lon="6.0397">
        <ele>2066.455078125</ele>
        <time>2017-11-24T08:41:56Z</time>
      </trkpt>
      <trkpt lat="45.24571" lon="6.0397">
        <ele>2068.455078125</ele>
        <time>2017-11-24T08:42:05Z</time>
      </trkpt>
      <trkpt lat="45.24566" lon="6.03968">
        <ele>2069.455078125</ele>
        <time>2017-11-24T08:42:14Z</time>
      </trkpt>
      <trkpt lat="45.24561" lon="6.03968">
        <ele>2068.455078125</ele>
        <time>2017-11-24T08:42:20Z</time>
      </trkpt>
      <trkpt lat="45.24555" lon="6.03968">
        <ele>2069.455078125</ele>
        <time>2017-11-24T08:42:29Z</time>
      </trkpt>
      <trkpt lat="45.2455" lon="6.03968">
        <ele>2071.455078125</ele>
        <time>2017-11-24T08:42:54Z</time>
      </trkpt>
      <trkpt lat="45.24547" lon="6.03972">
        <ele>2074.455078125</ele>
        <time>2017-11-24T08:43:01Z</time>
      </trkpt>
      <trkpt lat="45.24546" lon="6.03966">
        <ele>2073.455078125</ele>
        <time>2017-11-24T08:43:14Z</time>
      </trkpt>
      <trkpt lat="45.24542" lon="6.03962">
        <ele>2076.455078125</ele>
        <time>2017-11-24T08:43:19Z</time>
      </trkpt>
      <trkpt lat="45.24537" lon="6.03966">
        <ele>2082.455078125</ele>
        <time>2017-11-24T08:43:41Z</time>
      </trkpt>
      <trkpt lat="45.24533" lon="6.03963">
        <ele>2084.455078125</ele>
        <time>2017-11-24T08:43:54Z</time>
      </trkpt>
      <trkpt lat="45.24529" lon="6.03957">
        <ele>2085.455078125</ele>
        <time>2017-11-24T08:44:16Z</time>
      </trkpt>
      <trkpt lat="45.24529" lon="6.0395">
        <ele>2091.455078125</ele>
        <time>2017-11-24T08:44:21Z</time>
      </trkpt>
      <trkpt lat="45.24531" lon="6.03944">
        <ele>2095.4541015625</ele>
        <time>2017-11-24T08:44:25Z</time>
      </trkpt>
      <trkpt lat="45.24532" lon="6.03938">
        <ele>2102.4541015625</ele>
        <time>2017-11-24T08:44:35Z</time>
      </trkpt>
      <trkpt lat="45.24527" lon="6.03938">
        <ele>2103.4541015625</ele>
        <time>2017-11-24T08:44:49Z</time>
      </trkpt>
      <trkpt lat="45.24523" lon="6.03938">
        <ele>2102.4541015625</ele>
        <time>2017-11-24T08:44:55Z</time>
      </trkpt>
      <trkpt lat="45.24518" lon="6.03939">
        <ele>2104.4541015625</ele>
        <time>2017-11-24T08:45:03Z</time>
      </trkpt>
      <trkpt lat="45.24514" lon="6.03941">
        <ele>2107.4541015625</ele>
        <time>2017-11-24T08:45:07Z</time>
      </trkpt>
      <trkpt lat="45.24508" lon="6.03941">
        <ele>2105.4541015625</ele>
        <time>2017-11-24T08:45:11Z</time>
      </trkpt>
      <trkpt lat="45.2451" lon="6.03935">
        <ele>2106.4541015625</ele>
        <time>2017-11-24T08:45:29Z</time>
      </trkpt>
      <trkpt lat="45.24514" lon="6.03932">
        <ele>2108.4541015625</ele>
        <time>2017-11-24T08:45:36Z</time>
      </trkpt>
      <trkpt lat="45.24513" lon="6.03925">
        <ele>2107.4541015625</ele>
        <time>2017-11-24T08:45:43Z</time>
      </trkpt>
      <trkpt lat="45.24516" lon="6.03919">
        <ele>2111.4541015625</ele>
        <time>2017-11-24T08:45:52Z</time>
      </trkpt>
      <trkpt lat="45.24516" lon="6.03911">
        <ele>2116.4541015625</ele>
        <time>2017-11-24T08:46:15Z</time>
      </trkpt>
      <trkpt lat="45.24516" lon="6.03904">
        <ele>2116.4541015625</ele>
        <time>2017-11-24T08:46:18Z</time>
      </trkpt>
      <trkpt lat="45.24518" lon="6.03896">
        <ele>2117.4541015625</ele>
        <time>2017-11-24T08:46:23Z</time>
      </trkpt>
      <trkpt lat="45.24519" lon="6.03889">
        <ele>2119.4541015625</ele>
        <time>2017-11-24T08:46:28Z</time>
      </trkpt>
      <trkpt lat="45.24518" lon="6.03882">
        <ele>2122.4541015625</ele>
        <time>2017-11-24T08:46:33Z</time>
      </trkpt>
      <trkpt lat="45.24518" lon="6.03875">
        <ele>2123.4541015625</ele>
        <time>2017-11-24T08:46:38Z</time>
      </trkpt>
      <trkpt lat="45.2452" lon="6.03867">
        <ele>2124.4541015625</ele>
        <time>2017-11-24T08:46:42Z</time>
      </trkpt>
      <trkpt lat="45.24522" lon="6.03861">
        <ele>2126.4541015625</ele>
        <time>2017-11-24T08:46:45Z</time>
      </trkpt>
      <trkpt lat="45.24523" lon="6.03853">
        <ele>2127.4541015625</ele>
        <time>2017-11-24T08:46:51Z</time>
      </trkpt>
      <trkpt lat="45.24527" lon="6.03846">
        <ele>2129.4541015625</ele>
        <time>2017-11-24T08:46:57Z</time>
      </trkpt>
      <trkpt lat="45.24526" lon="6.03838">
        <ele>2132.4541015625</ele>
        <time>2017-11-24T08:47:02Z</time>
      </trkpt>
      <trkpt lat="45.24527" lon="6.03832">
        <ele>2132.4541015625</ele>
        <time>2017-11-24T08:47:07Z</time>
      </trkpt>
      <trkpt lat="45.24523" lon="6.03829">
        <ele>2135.4541015625</ele>
        <time>2017-11-24T08:47:13Z</time>
      </trkpt>
      <trkpt lat="45.24518" lon="6.03829">
        <ele>2136.4541015625</ele>
        <time>2017-11-24T08:47:19Z</time>
      </trkpt>
      <trkpt lat="45.24513" lon="6.03831">
        <ele>2136.4541015625</ele>
        <time>2017-11-24T08:47:23Z</time>
      </trkpt>
      <trkpt lat="45.24509" lon="6.03832">
        <ele>2136.4541015625</ele>
        <time>2017-11-24T08:47:29Z</time>
      </trkpt>
      <trkpt lat="45.24504" lon="6.03835">
        <ele>2137.4541015625</ele>
        <time>2017-11-24T08:47:35Z</time>
      </trkpt>
      <trkpt lat="45.24499" lon="6.03834">
        <ele>2137.4541015625</ele>
        <time>2017-11-24T08:47:41Z</time>
      </trkpt>
      <trkpt lat="45.24495" lon="6.03834">
        <ele>2137.4541015625</ele>
        <time>2017-11-24T08:47:45Z</time>
      </trkpt>
      <trkpt lat="45.2449" lon="6.03832">
        <ele>2139.4541015625</ele>
        <time>2017-11-24T08:47:58Z</time>
      </trkpt>
      <trkpt lat="45.24486" lon="6.03828">
        <ele>2139.4541015625</ele>
        <time>2017-11-24T08:48:04Z</time>
      </trkpt>
      <trkpt lat="45.24483" lon="6.03824">
        <ele>2140.4541015625</ele>
        <time>2017-11-24T08:48:11Z</time>
      </trkpt>
      <trkpt lat="45.24482" lon="6.03817">
        <ele>2142.4541015625</ele>
        <time>2017-11-24T08:48:18Z</time>
      </trkpt>
      <trkpt lat="45.2448" lon="6.03809">
        <ele>2146.4541015625</ele>
        <time>2017-11-24T08:48:25Z</time>
      </trkpt>
      <trkpt lat="45.24478" lon="6.03802">
        <ele>2147.4541015625</ele>
        <time>2017-11-24T08:48:32Z</time>
      </trkpt>
      <trkpt lat="45.24478" lon="6.03795">
        <ele>2147.4541015625</ele>
        <time>2017-11-24T08:48:38Z</time>
      </trkpt>
      <trkpt lat="45.24478" lon="6.03787">
        <ele>2153.4541015625</ele>
        <time>2017-11-24T08:48:45Z</time>
      </trkpt>
      <trkpt lat="45.24476" lon="6.0378">
        <ele>2158.4541015625</ele>
        <time>2017-11-24T08:48:53Z</time>
      </trkpt>
      <trkpt lat="45.24473" lon="6.03774">
        <ele>2157.4541015625</ele>
        <time>2017-11-24T08:48:59Z</time>
      </trkpt>
      <trkpt lat="45.24472" lon="6.03766">
        <ele>2159.4541015625</ele>
        <time>2017-11-24T08:49:05Z</time>
      </trkpt>
      <trkpt lat="45.24469" lon="6.0376">
        <ele>2158.4541015625</ele>
        <time>2017-11-24T08:49:11Z</time>
      </trkpt>
      <trkpt lat="45.24464" lon="6.03758">
        <ele>2158.4541015625</ele>
        <time>2017-11-24T08:49:20Z</time>
      </trkpt>
      <trkpt lat="45.24459" lon="6.03757">
        <ele>2157.4541015625</ele>
        <time>2017-11-24T08:49:25Z</time>
      </trkpt>
      <trkpt lat="45.24454" lon="6.03757">
        <ele>2157.4541015625</ele>
        <time>2017-11-24T08:49:33Z</time>
      </trkpt>
      <trkpt lat="45.2445" lon="6.0376">
        <ele>2158.4541015625</ele>
        <time>2017-11-24T08:49:38Z</time>
      </trkpt>
      <trkpt lat="45.24445" lon="6.03759">
        <ele>2161.4541015625</ele>
        <time>2017-11-24T08:49:42Z</time>
      </trkpt>
      <trkpt lat="45.2444" lon="6.03761">
        <ele>2165.4541015625</ele>
        <time>2017-11-24T08:49:47Z</time>
      </trkpt>
      <trkpt lat="45.24436" lon="6.03763">
        <ele>2169.4541015625</ele>
        <time>2017-11-24T08:49:53Z</time>
      </trkpt>
      <trkpt lat="45.24432" lon="6.03767">
        <ele>2162.4541015625</ele>
        <time>2017-11-24T08:50:01Z</time>
      </trkpt>
      <trkpt lat="45.24426" lon="6.03766">
        <ele>2170.4541015625</ele>
        <time>2017-11-24T08:50:08Z</time>
      </trkpt>
      <trkpt lat="45.24422" lon="6.03771">
        <ele>2171.4541015625</ele>
        <time>2017-11-24T08:50:14Z</time>
      </trkpt>
      <trkpt lat="45.2442" lon="6.03764">
        <ele>2174.4541015625</ele>
        <time>2017-11-24T08:50:20Z</time>
      </trkpt>
      <trkpt lat="45.24418" lon="6.03756">
        <ele>2173.4541015625</ele>
        <time>2017-11-24T08:50:26Z</time>
      </trkpt>
      <trkpt lat="45.24415" lon="6.03751">
        <ele>2177.4541015625</ele>
        <time>2017-11-24T08:50:32Z</time>
      </trkpt>
      <trkpt lat="45.24413" lon="6.03744">
        <ele>2178.4541015625</ele>
        <time>2017-11-24T08:50:39Z</time>
      </trkpt>
      <trkpt lat="45.24414" lon="6.03737">
        <ele>2176.4541015625</ele>
        <time>2017-11-24T08:50:45Z</time>
      </trkpt>
      <trkpt lat="45.24409" lon="6.03737">
        <ele>2179.4541015625</ele>
        <time>2017-11-24T08:50:48Z</time>
      </trkpt>
      <trkpt lat="45.24405" lon="6.03732">
        <ele>2183.4541015625</ele>
        <time>2017-11-24T08:50:57Z</time>
      </trkpt>
      <trkpt lat="45.24403" lon="6.03724">
        <ele>2183.4541015625</ele>
        <time>2017-11-24T08:51:05Z</time>
      </trkpt>
      <trkpt lat="45.24402" lon="6.03718">
        <ele>2185.4541015625</ele>
        <time>2017-11-24T08:51:11Z</time>
      </trkpt>
      <trkpt lat="45.24398" lon="6.03713">
        <ele>2186.4541015625</ele>
        <time>2017-11-24T08:51:19Z</time>
      </trkpt>
      <trkpt lat="45.24395" lon="6.03707">
        <ele>2187.4541015625</ele>
        <time>2017-11-24T08:51:26Z</time>
      </trkpt>
      <trkpt lat="45.24392" lon="6.03701">
        <ele>2189.4541015625</ele>
        <time>2017-11-24T08:51:33Z</time>
      </trkpt>
      <trkpt lat="45.24392" lon="6.03694">
        <ele>2191.4541015625</ele>
        <time>2017-11-24T08:51:40Z</time>
      </trkpt>
      <trkpt lat="45.24387" lon="6.03695">
        <ele>2199.4541015625</ele>
        <time>2017-11-24T08:51:55Z</time>
      </trkpt>
      <trkpt lat="45.24383" lon="6.03698">
        <ele>2199.4541015625</ele>
        <time>2017-11-24T08:52:03Z</time>
      </trkpt>
      <trkpt lat="45.24379" lon="6.03702">
        <ele>2199.4541015625</ele>
        <time>2017-11-24T08:52:11Z</time>
      </trkpt>
      <trkpt lat="45.24374" lon="6.03705">
        <ele>2203.4541015625</ele>
        <time>2017-11-24T08:52:20Z</time>
      </trkpt>
      <trkpt lat="45.24372" lon="6.03711">
        <ele>2204.4541015625</ele>
        <time>2017-11-24T08:52:25Z</time>
      </trkpt>
      <trkpt lat="45.24367" lon="6.03714">
        <ele>2208.4541015625</ele>
        <time>2017-11-24T08:52:32Z</time>
      </trkpt>
      <trkpt lat="45.24363" lon="6.03719">
        <ele>2208.4541015625</ele>
        <time>2017-11-24T08:52:39Z</time>
      </trkpt>
      <trkpt lat="45.24358" lon="6.03721">
        <ele>2210.4541015625</ele>
        <time>2017-11-24T08:52:46Z</time>
      </trkpt>
      <trkpt lat="45.24356" lon="6.03715">
        <ele>2211.4541015625</ele>
        <time>2017-11-24T08:53:00Z</time>
      </trkpt>
      <trkpt lat="45.24355" lon="6.03708">
        <ele>2215.4541015625</ele>
        <time>2017-11-24T08:53:10Z</time>
      </trkpt>
      <trkpt lat="45.24355" lon="6.03702">
        <ele>2217.4541015625</ele>
        <time>2017-11-24T08:53:17Z</time>
      </trkpt>
      <trkpt lat="45.24353" lon="6.03696">
        <ele>2217.4541015625</ele>
        <time>2017-11-24T08:53:24Z</time>
      </trkpt>
      <trkpt lat="45.24352" lon="6.0369">
        <ele>2220.4541015625</ele>
        <time>2017-11-24T08:53:42Z</time>
      </trkpt>
      <trkpt lat="45.24349" lon="6.03685">
        <ele>2219.4541015625</ele>
        <time>2017-11-24T08:53:51Z</time>
      </trkpt>
      <trkpt lat="45.24345" lon="6.03681">
        <ele>2216.4541015625</ele>
        <time>2017-11-24T08:53:58Z</time>
      </trkpt>
      <trkpt lat="45.24343" lon="6.03676">
        <ele>2216.4541015625</ele>
        <time>2017-11-24T08:54:03Z</time>
      </trkpt>
      <trkpt lat="45.24342" lon="6.03669">
        <ele>2219.4541015625</ele>
        <time>2017-11-24T08:54:08Z</time>
      </trkpt>
      <trkpt lat="45.2434" lon="6.03676">
        <ele>2229.4541015625</ele>
        <time>2017-11-24T08:56:02Z</time>
      </trkpt>
      <trkpt lat="45.24338" lon="6.03683">
        <ele>2233.4541015625</ele>
        <time>2017-11-24T08:56:09Z</time>
      </trkpt>
      <trkpt lat="45.24335" lon="6.03689">
        <ele>2234.4541015625</ele>
        <time>2017-11-24T08:56:16Z</time>
      </trkpt>
      <trkpt lat="45.24333" lon="6.03694">
        <ele>2234.4541015625</ele>
        <time>2017-11-24T08:56:22Z</time>
      </trkpt>
      <trkpt lat="45.24331" lon="6.037">
        <ele>2237.4541015625</ele>
        <time>2017-11-24T08:56:28Z</time>
      </trkpt>
      <trkpt lat="45.24325" lon="6.03704">
        <ele>2234.4541015625</ele>
        <time>2017-11-24T08:56:32Z</time>
      </trkpt>
      <trkpt lat="45.24321" lon="6.03708">
        <ele>2240.4541015625</ele>
        <time>2017-11-24T08:56:39Z</time>
      </trkpt>
      <trkpt lat="45.24317" lon="6.03703">
        <ele>2239.4541015625</ele>
        <time>2017-11-24T08:57:26Z</time>
      </trkpt>
      <trkpt lat="45.24316" lon="6.03697">
        <ele>2240.4541015625</ele>
        <time>2017-11-24T08:57:31Z</time>
      </trkpt>
      <trkpt lat="45.24315" lon="6.0369">
        <ele>2242.4541015625</ele>
        <time>2017-11-24T08:57:36Z</time>
      </trkpt>
      <trkpt lat="45.24313" lon="6.03683">
        <ele>2243.4541015625</ele>
        <time>2017-11-24T08:57:42Z</time>
      </trkpt>
      <trkpt lat="45.24313" lon="6.03676">
        <ele>2247.4541015625</ele>
        <time>2017-11-24T08:57:48Z</time>
      </trkpt>
      <trkpt lat="45.24312" lon="6.03668">
        <ele>2248.4541015625</ele>
        <time>2017-11-24T08:57:54Z</time>
      </trkpt>
      <trkpt lat="45.24311" lon="6.03661">
        <ele>2251.4541015625</ele>
        <time>2017-11-24T08:58:00Z</time>
      </trkpt>
      <trkpt lat="45.24307" lon="6.03665">
        <ele>2252.4541015625</ele>
        <time>2017-11-24T08:58:06Z</time>
      </trkpt>
      <trkpt lat="45.24304" lon="6.03669">
        <ele>2250.4541015625</ele>
        <time>2017-11-24T08:58:11Z</time>
      </trkpt>
      <trkpt lat="45.24302" lon="6.03676">
        <ele>2252.4541015625</ele>
        <time>2017-11-24T08:58:17Z</time>
      </trkpt>
      <trkpt lat="45.24301" lon="6.03683">
        <ele>2252.4541015625</ele>
        <time>2017-11-24T08:58:22Z</time>
      </trkpt>
      <trkpt lat="45.24297" lon="6.03686">
        <ele>2255.4541015625</ele>
        <time>2017-11-24T08:58:28Z</time>
      </trkpt>
      <trkpt lat="45.24294" lon="6.03691">
        <ele>2257.4541015625</ele>
        <time>2017-11-24T08:58:34Z</time>
      </trkpt>
      <trkpt lat="45.2429" lon="6.03687">
        <ele>2254.4541015625</ele>
        <time>2017-11-24T08:58:50Z</time>
      </trkpt>
      <trkpt lat="45.24287" lon="6.0368">
        <ele>2255.4541015625</ele>
        <time>2017-11-24T08:58:57Z</time>
      </trkpt>
      <trkpt lat="45.24284" lon="6.03675">
        <ele>2255.4541015625</ele>
        <time>2017-11-24T08:59:02Z</time>
      </trkpt>
      <trkpt lat="45.24283" lon="6.03668">
        <ele>2257.4541015625</ele>
        <time>2017-11-24T08:59:10Z</time>
      </trkpt>
      <trkpt lat="45.24284" lon="6.03661">
        <ele>2260.4541015625</ele>
        <time>2017-11-24T08:59:15Z</time>
      </trkpt>
      <trkpt lat="45.24281" lon="6.03654">
        <ele>2261.4541015625</ele>
        <time>2017-11-24T08:59:24Z</time>
      </trkpt>
      <trkpt lat="45.24283" lon="6.03647">
        <ele>2266.4541015625</ele>
        <time>2017-11-24T08:59:30Z</time>
      </trkpt>
      <trkpt lat="45.24284" lon="6.0364">
        <ele>2267.4541015625</ele>
        <time>2017-11-24T08:59:35Z</time>
      </trkpt>
      <trkpt lat="45.24282" lon="6.03645">
        <ele>2278.4541015625</ele>
        <time>2017-11-24T08:59:47Z</time>
      </trkpt>
      <trkpt lat="45.24277" lon="6.03647">
        <ele>2277.4541015625</ele>
        <time>2017-11-24T08:59:52Z</time>
      </trkpt>
      <trkpt lat="45.24273" lon="6.03653">
        <ele>2279.4541015625</ele>
        <time>2017-11-24T08:59:58Z</time>
      </trkpt>
      <trkpt lat="45.2427" lon="6.03658">
        <ele>2282.4541015625</ele>
        <time>2017-11-24T09:00:04Z</time>
      </trkpt>
      <trkpt lat="45.24267" lon="6.03663">
        <ele>2281.4541015625</ele>
        <time>2017-11-24T09:00:09Z</time>
      </trkpt>
      <trkpt lat="45.24265" lon="6.0367">
        <ele>2282.4541015625</ele>
        <time>2017-11-24T09:00:16Z</time>
      </trkpt>
      <trkpt lat="45.24262" lon="6.03675">
        <ele>2281.4541015625</ele>
        <time>2017-11-24T09:00:22Z</time>
      </trkpt>
      <trkpt lat="45.24259" lon="6.0368">
        <ele>2280.4541015625</ele>
        <time>2017-11-24T09:00:28Z</time>
      </trkpt>
      <trkpt lat="45.24257" lon="6.03686">
        <ele>2276.4541015625</ele>
        <time>2017-11-24T09:00:32Z</time>
      </trkpt>
      <trkpt lat="45.24255" lon="6.03692">
        <ele>2281.4541015625</ele>
        <time>2017-11-24T09:00:40Z</time>
      </trkpt>
      <trkpt lat="45.24253" lon="6.03687">
        <ele>2283.4541015625</ele>
        <time>2017-11-24T09:00:54Z</time>
      </trkpt>
      <trkpt lat="45.24251" lon="6.0368">
        <ele>2283.4541015625</ele>
        <time>2017-11-24T09:01:02Z</time>
      </trkpt>
      <trkpt lat="45.24248" lon="6.03674">
        <ele>2284.4541015625</ele>
        <time>2017-11-24T09:01:06Z</time>
      </trkpt>
      <trkpt lat="45.24246" lon="6.03668">
        <ele>2281.4541015625</ele>
        <time>2017-11-24T09:01:11Z</time>
      </trkpt>
      <trkpt lat="45.24244" lon="6.0366">
        <ele>2284.4541015625</ele>
        <time>2017-11-24T09:01:16Z</time>
      </trkpt>
      <trkpt lat="45.24243" lon="6.03654">
        <ele>2286.4541015625</ele>
        <time>2017-11-24T09:01:21Z</time>
      </trkpt>
      <trkpt lat="45.24245" lon="6.03647">
        <ele>2284.4541015625</ele>
        <time>2017-11-24T09:01:27Z</time>
      </trkpt>
      <trkpt lat="45.24245" lon="6.03641">
        <ele>2284.4541015625</ele>
        <time>2017-11-24T09:01:32Z</time>
      </trkpt>
      <trkpt lat="45.24244" lon="6.03634">
        <ele>2284.4541015625</ele>
        <time>2017-11-24T09:01:38Z</time>
      </trkpt>
      <trkpt lat="45.2424" lon="6.03639">
        <ele>2287.4528808594</ele>
        <time>2017-11-24T09:01:48Z</time>
      </trkpt>
      <trkpt lat="45.2424" lon="6.03632">
        <ele>2292.4528808594</ele>
        <time>2017-11-24T09:02:03Z</time>
      </trkpt>
      <trkpt lat="45.24241" lon="6.03625">
        <ele>2293.4528808594</ele>
        <time>2017-11-24T09:02:11Z</time>
      </trkpt>
      <trkpt lat="45.24241" lon="6.03617">
        <ele>2294.4528808594</ele>
        <time>2017-11-24T09:02:18Z</time>
      </trkpt>
      <trkpt lat="45.24236" lon="6.03619">
        <ele>2298.4528808594</ele>
        <time>2017-11-24T09:02:31Z</time>
      </trkpt>
      <trkpt lat="45.24233" lon="6.03624">
        <ele>2297.4528808594</ele>
        <time>2017-11-24T09:02:34Z</time>
      </trkpt>
      <trkpt lat="45.24228" lon="6.03627">
        <ele>2301.4528808594</ele>
        <time>2017-11-24T09:02:43Z</time>
      </trkpt>
      <trkpt lat="45.24225" lon="6.03632">
        <ele>2306.4528808594</ele>
        <time>2017-11-24T09:02:52Z</time>
      </trkpt>
      <trkpt lat="45.24223" lon="6.03639">
        <ele>2311.4528808594</ele>
        <time>2017-11-24T09:03:01Z</time>
      </trkpt>
      <trkpt lat="45.2422" lon="6.03646">
        <ele>2310.4528808594</ele>
        <time>2017-11-24T09:03:06Z</time>
      </trkpt>
      <trkpt lat="45.24217" lon="6.0365">
        <ele>2309.4528808594</ele>
        <time>2017-11-24T09:03:12Z</time>
      </trkpt>
      <trkpt lat="45.24212" lon="6.03652">
        <ele>2307.4528808594</ele>
        <time>2017-11-24T09:03:24Z</time>
      </trkpt>
      <trkpt lat="45.2421" lon="6.03645">
        <ele>2305.4528808594</ele>
        <time>2017-11-24T09:03:29Z</time>
      </trkpt>
      <trkpt lat="45.24208" lon="6.03639">
        <ele>2308.4528808594</ele>
        <time>2017-11-24T09:03:37Z</time>
      </trkpt>
      <trkpt lat="45.24208" lon="6.03632">
        <ele>2306.4528808594</ele>
        <time>2017-11-24T09:03:44Z</time>
      </trkpt>
      <trkpt lat="45.24208" lon="6.03626">
        <ele>2306.4528808594</ele>
        <time>2017-11-24T09:03:50Z</time>
      </trkpt>
      <trkpt lat="45.24207" lon="6.03618">
        <ele>2302.4528808594</ele>
        <time>2017-11-24T09:03:58Z</time>
      </trkpt>
      <trkpt lat="45.24207" lon="6.03612">
        <ele>2304.4528808594</ele>
        <time>2017-11-24T09:04:04Z</time>
      </trkpt>
      <trkpt lat="45.24206" lon="6.03604">
        <ele>2308.4528808594</ele>
        <time>2017-11-24T09:04:10Z</time>
      </trkpt>
      <trkpt lat="45.24208" lon="6.03597">
        <ele>2310.4528808594</ele>
        <time>2017-11-24T09:04:18Z</time>
      </trkpt>
      <trkpt lat="45.24203" lon="6.03598">
        <ele>2313.4528808594</ele>
        <time>2017-11-24T09:04:40Z</time>
      </trkpt>
      <trkpt lat="45.24198" lon="6.03602">
        <ele>2315.4528808594</ele>
        <time>2017-11-24T09:04:44Z</time>
      </trkpt>
      <trkpt lat="45.24195" lon="6.03607">
        <ele>2316.4528808594</ele>
        <time>2017-11-24T09:04:47Z</time>
      </trkpt>
      <trkpt lat="45.24191" lon="6.03611">
        <ele>2320.4528808594</ele>
        <time>2017-11-24T09:04:52Z</time>
      </trkpt>
      <trkpt lat="45.24188" lon="6.03617">
        <ele>2321.4528808594</ele>
        <time>2017-11-24T09:04:57Z</time>
      </trkpt>
      <trkpt lat="45.24185" lon="6.03624">
        <ele>2322.4528808594</ele>
        <time>2017-11-24T09:05:01Z</time>
      </trkpt>
      <trkpt lat="45.24183" lon="6.0363">
        <ele>2327.4528808594</ele>
        <time>2017-11-24T09:05:08Z</time>
      </trkpt>
      <trkpt lat="45.24182" lon="6.03637">
        <ele>2328.4528808594</ele>
        <time>2017-11-24T09:05:14Z</time>
      </trkpt>
      <trkpt lat="45.2418" lon="6.03631">
        <ele>2329.4528808594</ele>
        <time>2017-11-24T09:05:26Z</time>
      </trkpt>
      <trkpt lat="45.24176" lon="6.03628">
        <ele>2327.4528808594</ele>
        <time>2017-11-24T09:05:33Z</time>
      </trkpt>
      <trkpt lat="45.24175" lon="6.03634">
        <ele>2332.4528808594</ele>
        <time>2017-11-24T09:05:44Z</time>
      </trkpt>
      <trkpt lat="45.24171" lon="6.0364">
        <ele>2330.4528808594</ele>
        <time>2017-11-24T09:05:50Z</time>
      </trkpt>
      <trkpt lat="45.24169" lon="6.03647">
        <ele>2331.4528808594</ele>
        <time>2017-11-24T09:05:56Z</time>
      </trkpt>
      <trkpt lat="45.24166" lon="6.03642">
        <ele>2328.4528808594</ele>
        <time>2017-11-24T09:06:09Z</time>
      </trkpt>
      <trkpt lat="45.24164" lon="6.03637">
        <ele>2330.4528808594</ele>
        <time>2017-11-24T09:06:13Z</time>
      </trkpt>
      <trkpt lat="45.24164" lon="6.0363">
        <ele>2331.4528808594</ele>
        <time>2017-11-24T09:06:16Z</time>
      </trkpt>
      <trkpt lat="45.24165" lon="6.03623">
        <ele>2336.4528808594</ele>
        <time>2017-11-24T09:06:21Z</time>
      </trkpt>
      <trkpt lat="45.24166" lon="6.03614">
        <ele>2338.4528808594</ele>
        <time>2017-11-24T09:06:30Z</time>
      </trkpt>
      <trkpt lat="45.24163" lon="6.03609">
        <ele>2339.4528808594</ele>
        <time>2017-11-24T09:06:34Z</time>
      </trkpt>
      <trkpt lat="45.24162" lon="6.03601">
        <ele>2341.4528808594</ele>
        <time>2017-11-24T09:06:40Z</time>
      </trkpt>
      <trkpt lat="45.24158" lon="6.03601">
        <ele>2351.4528808594</ele>
        <time>2017-11-24T09:07:02Z</time>
      </trkpt>
      <trkpt lat="45.24155" lon="6.03607">
        <ele>2350.4528808594</ele>
        <time>2017-11-24T09:07:05Z</time>
      </trkpt>
      <trkpt lat="45.24154" lon="6.03614">
        <ele>2348.4528808594</ele>
        <time>2017-11-24T09:07:10Z</time>
      </trkpt>
      <trkpt lat="45.24153" lon="6.03621">
        <ele>2351.4528808594</ele>
        <time>2017-11-24T09:07:17Z</time>
      </trkpt>
      <trkpt lat="45.2415" lon="6.03627">
        <ele>2352.4528808594</ele>
        <time>2017-11-24T09:07:23Z</time>
      </trkpt>
      <trkpt lat="45.24149" lon="6.03634">
        <ele>2351.4528808594</ele>
        <time>2017-11-24T09:07:28Z</time>
      </trkpt>
      <trkpt lat="45.24147" lon="6.03641">
        <ele>2354.4528808594</ele>
        <time>2017-11-24T09:07:36Z</time>
      </trkpt>
      <trkpt lat="45.24147" lon="6.03647">
        <ele>2357.4528808594</ele>
        <time>2017-11-24T09:07:41Z</time>
      </trkpt>
      <trkpt lat="45.24148" lon="6.03655">
        <ele>2356.4528808594</ele>
        <time>2017-11-24T09:07:46Z</time>
      </trkpt>
      <trkpt lat="45.24146" lon="6.03661">
        <ele>2357.4528808594</ele>
        <time>2017-11-24T09:07:53Z</time>
      </trkpt>
      <trkpt lat="45.24141" lon="6.03664">
        <ele>2360.4528808594</ele>
        <time>2017-11-24T09:08:05Z</time>
      </trkpt>
      <trkpt lat="45.24137" lon="6.03667">
        <ele>2360.4528808594</ele>
        <time>2017-11-24T09:08:12Z</time>
      </trkpt>
      <trkpt lat="45.24134" lon="6.03673">
        <ele>2365.4528808594</ele>
        <time>2017-11-24T09:08:22Z</time>
      </trkpt>
      <trkpt lat="45.24132" lon="6.03679">
        <ele>2364.4528808594</ele>
        <time>2017-11-24T09:08:29Z</time>
      </trkpt>
      <trkpt lat="45.24133" lon="6.03685">
        <ele>2368.4528808594</ele>
        <time>2017-11-24T09:08:37Z</time>
      </trkpt>
      <trkpt lat="45.24133" lon="6.03693">
        <ele>2370.4528808594</ele>
        <time>2017-11-24T09:08:43Z</time>
      </trkpt>
      <trkpt lat="45.24133" lon="6.037">
        <ele>2375.4528808594</ele>
        <time>2017-11-24T09:08:55Z</time>
      </trkpt>
      <trkpt lat="45.24132" lon="6.03707">
        <ele>2377.4528808594</ele>
        <time>2017-11-24T09:09:01Z</time>
      </trkpt>
      <trkpt lat="45.24129" lon="6.03714">
        <ele>2376.4528808594</ele>
        <time>2017-11-24T09:09:08Z</time>
      </trkpt>
      <trkpt lat="45.24129" lon="6.03721">
        <ele>2377.4528808594</ele>
        <time>2017-11-24T09:09:15Z</time>
      </trkpt>
      <trkpt lat="45.24129" lon="6.03729">
        <ele>2379.4528808594</ele>
        <time>2017-11-24T09:09:23Z</time>
      </trkpt>
      <trkpt lat="45.24128" lon="6.03736">
        <ele>2377.4528808594</ele>
        <time>2017-11-24T09:09:31Z</time>
      </trkpt>
      <trkpt lat="45.24129" lon="6.03742">
        <ele>2379.4528808594</ele>
        <time>2017-11-24T09:09:40Z</time>
      </trkpt>
      <trkpt lat="45.24126" lon="6.03737">
        <ele>2380.4528808594</ele>
        <time>2017-11-24T09:09:58Z</time>
      </trkpt>
      <trkpt lat="45.24121" lon="6.03735">
        <ele>2377.4528808594</ele>
        <time>2017-11-24T09:10:03Z</time>
      </trkpt>
      <trkpt lat="45.24116" lon="6.03734">
        <ele>2374.4528808594</ele>
        <time>2017-11-24T09:10:08Z</time>
      </trkpt>
      <trkpt lat="45.24114" lon="6.03728">
        <ele>2373.4528808594</ele>
        <time>2017-11-24T09:10:15Z</time>
      </trkpt>
      <trkpt lat="45.2411" lon="6.03724">
        <ele>2377.4528808594</ele>
        <time>2017-11-24T09:10:22Z</time>
      </trkpt>
      <trkpt lat="45.24108" lon="6.03719">
        <ele>2378.4528808594</ele>
        <time>2017-11-24T09:10:29Z</time>
      </trkpt>
      <trkpt lat="45.24113" lon="6.03725">
        <ele>2390.4528808594</ele>
        <time>2017-11-24T09:10:43Z</time>
      </trkpt>
      <trkpt lat="45.24111" lon="6.03731">
        <ele>2391.4528808594</ele>
        <time>2017-11-24T09:10:48Z</time>
      </trkpt>
      <trkpt lat="45.2411" lon="6.03738">
        <ele>2392.4528808594</ele>
        <time>2017-11-24T09:10:55Z</time>
      </trkpt>
      <trkpt lat="45.24107" lon="6.03744">
        <ele>2386.4528808594</ele>
        <time>2017-11-24T09:11:02Z</time>
      </trkpt>
      <trkpt lat="45.24106" lon="6.0375">
        <ele>2384.4528808594</ele>
        <time>2017-11-24T09:11:07Z</time>
      </trkpt>
      <trkpt lat="45.2411" lon="6.03752">
        <ele>2389.4528808594</ele>
        <time>2017-11-24T09:11:12Z</time>
      </trkpt>
      <trkpt lat="45.24105" lon="6.03752">
        <ele>2390.4528808594</ele>
        <time>2017-11-24T09:11:33Z</time>
      </trkpt>
      <trkpt lat="45.24102" lon="6.03747">
        <ele>2390.4528808594</ele>
        <time>2017-11-24T09:11:41Z</time>
      </trkpt>
      <trkpt lat="45.24099" lon="6.03754">
        <ele>2396.4528808594</ele>
        <time>2017-11-24T09:11:58Z</time>
      </trkpt>
      <trkpt lat="45.24103" lon="6.03759">
        <ele>2401.4528808594</ele>
        <time>2017-11-24T09:12:06Z</time>
      </trkpt>
      <trkpt lat="45.24103" lon="6.03766">
        <ele>2406.4528808594</ele>
        <time>2017-11-24T09:12:13Z</time>
      </trkpt>
      <trkpt lat="45.24105" lon="6.03771">
        <ele>2409.4528808594</ele>
        <time>2017-11-24T09:12:21Z</time>
      </trkpt>
      <trkpt lat="45.24106" lon="6.03778">
        <ele>2412.4528808594</ele>
        <time>2017-11-24T09:12:30Z</time>
      </trkpt>
      <trkpt lat="45.24109" lon="6.03784">
        <ele>2414.4528808594</ele>
        <time>2017-11-24T09:12:42Z</time>
      </trkpt>
      <trkpt lat="45.24114" lon="6.03789">
        <ele>2416.4528808594</ele>
        <time>2017-11-24T09:12:48Z</time>
      </trkpt>
      <trkpt lat="45.24119" lon="6.03791">
        <ele>2414.4528808594</ele>
        <time>2017-11-24T09:12:58Z</time>
      </trkpt>
      <trkpt lat="45.24117" lon="6.03797">
        <ele>2409.4528808594</ele>
        <time>2017-11-24T09:13:05Z</time>
      </trkpt>
      <trkpt lat="45.24122" lon="6.03799">
        <ele>2412.4528808594</ele>
        <time>2017-11-24T09:13:08Z</time>
      </trkpt>
      <trkpt lat="45.24119" lon="6.03805">
        <ele>2415.4528808594</ele>
        <time>2017-11-24T09:13:24Z</time>
      </trkpt>
      <trkpt lat="45.24115" lon="6.03809">
        <ele>2418.4528808594</ele>
        <time>2017-11-24T09:13:30Z</time>
      </trkpt>
      <trkpt lat="45.24111" lon="6.03813">
        <ele>2422.4528808594</ele>
        <time>2017-11-24T09:13:36Z</time>
      </trkpt>
      <trkpt lat="45.24108" lon="6.03818">
        <ele>2422.4528808594</ele>
        <time>2017-11-24T09:13:38Z</time>
      </trkpt>
      <trkpt lat="45.24105" lon="6.03823">
        <ele>2425.4528808594</ele>
        <time>2017-11-24T09:13:43Z</time>
      </trkpt>
      <trkpt lat="45.24101" lon="6.03828">
        <ele>2426.4528808594</ele>
        <time>2017-11-24T09:13:46Z</time>
      </trkpt>
      <trkpt lat="45.24099" lon="6.03836">
        <ele>2427.4528808594</ele>
        <time>2017-11-24T09:13:53Z</time>
      </trkpt>
      <trkpt lat="45.24097" lon="6.03844">
        <ele>2427.4528808594</ele>
        <time>2017-11-24T09:14:01Z</time>
      </trkpt>
      <trkpt lat="45.24095" lon="6.03851">
        <ele>2429.4541015625</ele>
        <time>2017-11-24T09:14:08Z</time>
      </trkpt>
      <trkpt lat="45.24091" lon="6.03856">
        <ele>2430.4541015625</ele>
        <time>2017-11-24T09:14:13Z</time>
      </trkpt>
      <trkpt lat="45.24086" lon="6.03859">
        <ele>2429.4528808594</ele>
        <time>2017-11-24T09:14:17Z</time>
      </trkpt>
      <trkpt lat="45.24081" lon="6.03861">
        <ele>2428.4528808594</ele>
        <time>2017-11-24T09:14:21Z</time>
      </trkpt>
      <trkpt lat="45.24076" lon="6.03863">
        <ele>2429.4528808594</ele>
        <time>2017-11-24T09:14:26Z</time>
      </trkpt>
      <trkpt lat="45.24072" lon="6.03866">
        <ele>2431.4528808594</ele>
        <time>2017-11-24T09:14:31Z</time>
      </trkpt>
      <trkpt lat="45.24069" lon="6.03871">
        <ele>2429.4528808594</ele>
        <time>2017-11-24T09:14:36Z</time>
      </trkpt>
      <trkpt lat="45.24066" lon="6.03876">
        <ele>2429.4528808594</ele>
        <time>2017-11-24T09:14:44Z</time>
      </trkpt>
      <trkpt lat="45.24063" lon="6.03882">
        <ele>2426.4528808594</ele>
        <time>2017-11-24T09:14:51Z</time>
      </trkpt>
      <trkpt lat="45.2406" lon="6.03887">
        <ele>2426.4528808594</ele>
        <time>2017-11-24T09:14:58Z</time>
      </trkpt>
      <trkpt lat="45.24058" lon="6.03893">
        <ele>2429.4528808594</ele>
        <time>2017-11-24T09:15:05Z</time>
      </trkpt>
      <trkpt lat="45.24057" lon="6.03899">
        <ele>2428.4528808594</ele>
        <time>2017-11-24T09:15:11Z</time>
      </trkpt>
      <trkpt lat="45.24054" lon="6.03905">
        <ele>2428.4528808594</ele>
        <time>2017-11-24T09:15:17Z</time>
      </trkpt>
      <trkpt lat="45.24053" lon="6.03912">
        <ele>2431.4541015625</ele>
        <time>2017-11-24T09:15:29Z</time>
      </trkpt>
      <trkpt lat="45.24052" lon="6.03919">
        <ele>2434.4541015625</ele>
        <time>2017-11-24T09:15:42Z</time>
      </trkpt>
      <trkpt lat="45.24047" lon="6.0392">
        <ele>2431.4541015625</ele>
        <time>2017-11-24T09:16:00Z</time>
      </trkpt>
      <trkpt lat="45.24043" lon="6.03916">
        <ele>2429.4528808594</ele>
        <time>2017-11-24T09:16:07Z</time>
      </trkpt>
      <trkpt lat="45.24038" lon="6.03914">
        <ele>2436.4528808594</ele>
        <time>2017-11-24T09:16:35Z</time>
      </trkpt>
      <trkpt lat="45.24034" lon="6.03911">
        <ele>2437.4528808594</ele>
        <time>2017-11-24T09:17:10Z</time>
      </trkpt>
      <trkpt lat="45.24038" lon="6.03915">
        <ele>2449.4528808594</ele>
        <time>2017-11-24T09:17:38Z</time>
      </trkpt>
      <trkpt lat="45.24033" lon="6.03917">
        <ele>2446.4528808594</ele>
        <time>2017-11-24T09:18:10Z</time>
      </trkpt>
      <trkpt lat="45.24029" lon="6.03913">
        <ele>2445.4528808594</ele>
        <time>2017-11-24T09:18:15Z</time>
      </trkpt>
      <trkpt lat="45.24023" lon="6.03913">
        <ele>2445.4528808594</ele>
        <time>2017-11-24T09:18:32Z</time>
      </trkpt>
      <trkpt lat="45.24022" lon="6.03921">
        <ele>2445.4528808594</ele>
        <time>2017-11-24T09:18:41Z</time>
      </trkpt>
      <trkpt lat="45.24021" lon="6.03928">
        <ele>2447.4528808594</ele>
        <time>2017-11-24T09:18:51Z</time>
      </trkpt>
      <trkpt lat="45.24019" lon="6.03933">
        <ele>2447.4528808594</ele>
        <time>2017-11-24T09:18:54Z</time>
      </trkpt>
      <trkpt lat="45.24016" lon="6.0394">
        <ele>2449.4528808594</ele>
        <time>2017-11-24T09:19:04Z</time>
      </trkpt>
      <trkpt lat="45.24012" lon="6.03943">
        <ele>2452.4528808594</ele>
        <time>2017-11-24T09:19:12Z</time>
      </trkpt>
      <trkpt lat="45.24008" lon="6.03948">
        <ele>2454.4528808594</ele>
        <time>2017-11-24T09:19:20Z</time>
      </trkpt>
      <trkpt lat="45.24004" lon="6.0395">
        <ele>2453.4528808594</ele>
        <time>2017-11-24T09:19:26Z</time>
      </trkpt>
      <trkpt lat="45.24001" lon="6.03955">
        <ele>2452.4528808594</ele>
        <time>2017-11-24T09:19:31Z</time>
      </trkpt>
      <trkpt lat="45.24004" lon="6.03958">
        <ele>2458.4528808594</ele>
        <time>2017-11-24T09:19:37Z</time>
      </trkpt>
      <trkpt lat="45.24005" lon="6.03966">
        <ele>2462.4528808594</ele>
        <time>2017-11-24T09:19:44Z</time>
      </trkpt>
      <trkpt lat="45.24007" lon="6.03973">
        <ele>2464.4528808594</ele>
        <time>2017-11-24T09:19:49Z</time>
      </trkpt>
      <trkpt lat="45.24008" lon="6.0398">
        <ele>2464.4541015625</ele>
        <time>2017-11-24T09:20:03Z</time>
      </trkpt>
      <trkpt lat="45.24008" lon="6.03986">
        <ele>2469.4541015625</ele>
        <time>2017-11-24T09:20:14Z</time>
      </trkpt>
      <trkpt lat="45.24004" lon="6.0399">
        <ele>2468.4541015625</ele>
        <time>2017-11-24T09:20:18Z</time>
      </trkpt>
      <trkpt lat="45.24001" lon="6.03996">
        <ele>2468.4541015625</ele>
        <time>2017-11-24T09:20:30Z</time>
      </trkpt>
      <trkpt lat="45.24005" lon="6.0399">
        <ele>2472.4541015625</ele>
        <time>2017-11-24T09:20:43Z</time>
      </trkpt>
      <trkpt lat="45.24001" lon="6.03987">
        <ele>2472.4541015625</ele>
        <time>2017-11-24T09:20:48Z</time>
      </trkpt>
      <trkpt lat="45.23997" lon="6.03984">
        <ele>2473.4528808594</ele>
        <time>2017-11-24T09:20:54Z</time>
      </trkpt>
      <trkpt lat="45.23992" lon="6.03983">
        <ele>2473.4528808594</ele>
        <time>2017-11-24T09:21:01Z</time>
      </trkpt>
      <trkpt lat="45.23988" lon="6.03981">
        <ele>2472.4528808594</ele>
        <time>2017-11-24T09:21:06Z</time>
      </trkpt>
      <trkpt lat="45.23986" lon="6.03988">
        <ele>2477.4528808594</ele>
        <time>2017-11-24T09:21:18Z</time>
      </trkpt>
      <trkpt lat="45.23985" lon="6.03994">
        <ele>2475.4528808594</ele>
        <time>2017-11-24T09:21:25Z</time>
      </trkpt>
      <trkpt lat="45.23985" lon="6.04001">
        <ele>2478.4528808594</ele>
        <time>2017-11-24T09:21:32Z</time>
      </trkpt>
      <trkpt lat="45.23988" lon="6.04006">
        <ele>2485.4541015625</ele>
        <time>2017-11-24T09:21:37Z</time>
      </trkpt>
      <trkpt lat="45.23993" lon="6.04003">
        <ele>2494.4541015625</ele>
        <time>2017-11-24T09:22:19Z</time>
      </trkpt>
      <trkpt lat="45.2399" lon="6.04009">
        <ele>2491.4541015625</ele>
        <time>2017-11-24T09:23:00Z</time>
      </trkpt>
      <trkpt lat="45.23989" lon="6.04016">
        <ele>2496.4541015625</ele>
        <time>2017-11-24T09:23:05Z</time>
      </trkpt>
      <trkpt lat="45.23992" lon="6.04021">
        <ele>2501.4541015625</ele>
        <time>2017-11-24T09:23:16Z</time>
      </trkpt>
      <trkpt lat="45.23994" lon="6.04028">
        <ele>2503.4541015625</ele>
        <time>2017-11-24T09:23:27Z</time>
      </trkpt>
      <trkpt lat="45.23994" lon="6.04035">
        <ele>2503.4541015625</ele>
        <time>2017-11-24T09:23:37Z</time>
      </trkpt>
      <trkpt lat="45.23992" lon="6.04042">
        <ele>2506.4541015625</ele>
        <time>2017-11-24T09:23:42Z</time>
      </trkpt>
      <trkpt lat="45.23996" lon="6.04045">
        <ele>2510.4541015625</ele>
        <time>2017-11-24T09:23:48Z</time>
      </trkpt>
      <trkpt lat="45.23992" lon="6.0405">
        <ele>2507.4541015625</ele>
        <time>2017-11-24T09:23:53Z</time>
      </trkpt>
      <trkpt lat="45.23988" lon="6.04047">
        <ele>2507.4541015625</ele>
        <time>2017-11-24T09:24:23Z</time>
      </trkpt>
      <trkpt lat="45.23984" lon="6.04053">
        <ele>2512.4541015625</ele>
        <time>2017-11-24T09:24:41Z</time>
      </trkpt>
      <trkpt lat="45.23983" lon="6.0406">
        <ele>2513.4541015625</ele>
        <time>2017-11-24T09:24:49Z</time>
      </trkpt>
      <trkpt lat="45.23982" lon="6.04068">
        <ele>2516.4541015625</ele>
        <time>2017-11-24T09:25:00Z</time>
      </trkpt>
      <trkpt lat="45.23982" lon="6.04076">
        <ele>2517.4541015625</ele>
        <time>2017-11-24T09:25:08Z</time>
      </trkpt>
      <trkpt lat="45.2398" lon="6.04082">
        <ele>2517.4541015625</ele>
        <time>2017-11-24T09:25:17Z</time>
      </trkpt>
      <trkpt lat="45.23978" lon="6.04076">
        <ele>2519.4541015625</ele>
        <time>2017-11-24T09:25:30Z</time>
      </trkpt>
      <trkpt lat="45.23973" lon="6.04072">
        <ele>2517.4541015625</ele>
        <time>2017-11-24T09:25:38Z</time>
      </trkpt>
      <trkpt lat="45.23972" lon="6.04079">
        <ele>2521.4541015625</ele>
        <time>2017-11-24T09:26:01Z</time>
      </trkpt>
      <trkpt lat="45.23969" lon="6.04084">
        <ele>2525.4541015625</ele>
        <time>2017-11-24T09:26:24Z</time>
      </trkpt>
      <trkpt lat="45.23968" lon="6.04078">
        <ele>2536.4541015625</ele>
        <time>2017-11-24T09:26:53Z</time>
      </trkpt>
      <trkpt lat="45.23964" lon="6.04083">
        <ele>2536.4541015625</ele>
        <time>2017-11-24T09:27:15Z</time>
      </trkpt>
      <trkpt lat="45.2396" lon="6.04082">
        <ele>2537.4541015625</ele>
        <time>2017-11-24T09:27:31Z</time>
      </trkpt>
      <trkpt lat="45.23957" lon="6.04076">
        <ele>2541.4541015625</ele>
        <time>2017-11-24T09:27:45Z</time>
      </trkpt>
      <trkpt lat="45.23953" lon="6.04072">
        <ele>2542.4541015625</ele>
        <time>2017-11-24T09:27:52Z</time>
      </trkpt>
      <trkpt lat="45.2395" lon="6.04078">
        <ele>2544.4541015625</ele>
        <time>2017-11-24T09:28:09Z</time>
      </trkpt>
      <trkpt lat="45.23946" lon="6.04076">
        <ele>2547.4541015625</ele>
        <time>2017-11-24T09:28:23Z</time>
      </trkpt>
      <trkpt lat="45.23942" lon="6.04072">
        <ele>2548.4541015625</ele>
        <time>2017-11-24T09:28:30Z</time>
      </trkpt>
      <trkpt lat="45.23944" lon="6.04079">
        <ele>2552.4541015625</ele>
        <time>2017-11-24T09:28:59Z</time>
      </trkpt>
      <trkpt lat="45.23939" lon="6.04077">
        <ele>2555.4541015625</ele>
        <time>2017-11-24T09:29:15Z</time>
      </trkpt>
      <trkpt lat="45.23936" lon="6.0408">
        <ele>2556.4541015625</ele>
        <time>2017-11-24T09:29:28Z</time>
      </trkpt>
      <trkpt lat="45.23935" lon="6.04087">
        <ele>2560.4541015625</ele>
        <time>2017-11-24T09:29:40Z</time>
      </trkpt>
      <trkpt lat="45.23932" lon="6.04083">
        <ele>2561.4541015625</ele>
        <time>2017-11-24T09:29:55Z</time>
      </trkpt>
      <trkpt lat="45.23929" lon="6.04078">
        <ele>2564.4528808594</ele>
        <time>2017-11-24T09:30:06Z</time>
      </trkpt>
      <trkpt lat="45.23927" lon="6.04085">
        <ele>2563.4528808594</ele>
        <time>2017-11-24T09:30:20Z</time>
      </trkpt>
      <trkpt lat="45.23927" lon="6.04091">
        <ele>2567.4541015625</ele>
        <time>2017-11-24T09:30:26Z</time>
      </trkpt>
      <trkpt lat="45.23926" lon="6.04098">
        <ele>2562.4541015625</ele>
        <time>2017-11-24T09:30:43Z</time>
      </trkpt>
      <trkpt lat="45.23922" lon="6.04094">
        <ele>2565.4528808594</ele>
        <time>2017-11-24T09:30:50Z</time>
      </trkpt>
      <trkpt lat="45.23919" lon="6.04089">
        <ele>2570.4528808594</ele>
        <time>2017-11-24T09:31:01Z</time>
      </trkpt>
      <trkpt lat="45.23918" lon="6.04095">
        <ele>2571.4528808594</ele>
        <time>2017-11-24T09:31:17Z</time>
      </trkpt>
      <trkpt lat="45.23913" lon="6.04097">
        <ele>2572.4528808594</ele>
        <time>2017-11-24T09:31:45Z</time>
      </trkpt>
      <trkpt lat="45.23909" lon="6.04097">
        <ele>2579.4528808594</ele>
        <time>2017-11-24T09:32:48Z</time>
      </trkpt>
      <trkpt lat="45.23905" lon="6.04103">
        <ele>2581.4528808594</ele>
        <time>2017-11-24T09:33:33Z</time>
      </trkpt>
      <trkpt lat="45.239" lon="6.04104">
        <ele>2586.4528808594</ele>
        <time>2017-11-24T09:33:41Z</time>
      </trkpt>
      <trkpt lat="45.23898" lon="6.0411">
        <ele>2586.4528808594</ele>
        <time>2017-11-24T09:33:49Z</time>
      </trkpt>
      <trkpt lat="45.23894" lon="6.04108">
        <ele>2589.4528808594</ele>
        <time>2017-11-24T09:34:06Z</time>
      </trkpt>
      <trkpt lat="45.23892" lon="6.04103">
        <ele>2592.4528808594</ele>
        <time>2017-11-24T09:34:13Z</time>
      </trkpt>
      <trkpt lat="45.23891" lon="6.04096">
        <ele>2607.4528808594</ele>
        <time>2017-11-24T09:34:55Z</time>
      </trkpt>
      <trkpt lat="45.23893" lon="6.04091">
        <ele>2603.4528808594</ele>
        <time>2017-11-24T09:35:18Z</time>
      </trkpt>
      <trkpt lat="45.23888" lon="6.04089">
        <ele>2604.4528808594</ele>
        <time>2017-11-24T09:35:31Z</time>
      </trkpt>
      <trkpt lat="45.23886" lon="6.04082">
        <ele>2606.4528808594</ele>
        <time>2017-11-24T09:35:34Z</time>
      </trkpt>
      <trkpt lat="45.23885" lon="6.04076">
        <ele>2608.4528808594</ele>
        <time>2017-11-24T09:35:38Z</time>
      </trkpt>
      <trkpt lat="45.23882" lon="6.0407">
        <ele>2609.4528808594</ele>
        <time>2017-11-24T09:35:43Z</time>
      </trkpt>
      <trkpt lat="45.2388" lon="6.04063">
        <ele>2610.4528808594</ele>
        <time>2017-11-24T09:35:49Z</time>
      </trkpt>
      <trkpt lat="45.23878" lon="6.04056">
        <ele>2613.4528808594</ele>
        <time>2017-11-24T09:35:56Z</time>
      </trkpt>
      <trkpt lat="45.23875" lon="6.04051">
        <ele>2618.4528808594</ele>
        <time>2017-11-24T09:36:19Z</time>
      </trkpt>
      <trkpt lat="45.23877" lon="6.04045">
        <ele>2619.4528808594</ele>
        <time>2017-11-24T09:37:34Z</time>
      </trkpt>
      <trkpt lat="45.23876" lon="6.04055">
        <ele>2619.4528808594</ele>
        <time>2017-11-24T09:42:23Z</time>
      </trkpt>
      <trkpt lat="45.23876" lon="6.04062">
        <ele>2618.4528808594</ele>
        <time>2017-11-24T09:42:25Z</time>
      </trkpt>
      <trkpt lat="45.23878" lon="6.04069">
        <ele>2619.4528808594</ele>
        <time>2017-11-24T09:42:28Z</time>
      </trkpt>
      <trkpt lat="45.23876" lon="6.04078">
        <ele>2612.4528808594</ele>
        <time>2017-11-24T09:42:32Z</time>
      </trkpt>
      <trkpt lat="45.23877" lon="6.04087">
        <ele>2611.4528808594</ele>
        <time>2017-11-24T09:42:34Z</time>
      </trkpt>
      <trkpt lat="45.23877" lon="6.04098">
        <ele>2610.4528808594</ele>
        <time>2017-11-24T09:42:36Z</time>
      </trkpt>
      <trkpt lat="45.23878" lon="6.04106">
        <ele>2608.4528808594</ele>
        <time>2017-11-24T09:42:41Z</time>
      </trkpt>
      <trkpt lat="45.23882" lon="6.04122">
        <ele>2605.4528808594</ele>
        <time>2017-11-24T09:42:44Z</time>
      </trkpt>
      <trkpt lat="45.23882" lon="6.04134">
        <ele>2602.4528808594</ele>
        <time>2017-11-24T09:42:46Z</time>
      </trkpt>
      <trkpt lat="45.23887" lon="6.04153">
        <ele>2601.4541015625</ele>
        <time>2017-11-24T09:42:48Z</time>
      </trkpt>
      <trkpt lat="45.23892" lon="6.04171">
        <ele>2598.4541015625</ele>
        <time>2017-11-24T09:42:50Z</time>
      </trkpt>
      <trkpt lat="45.23894" lon="6.04176">
        <ele>2595.4541015625</ele>
        <time>2017-11-24T09:42:54Z</time>
      </trkpt>
      <trkpt lat="45.23896" lon="6.04182">
        <ele>2591.4541015625</ele>
        <time>2017-11-24T09:43:08Z</time>
      </trkpt>
      <trkpt lat="45.23898" lon="6.04188">
        <ele>2589.4541015625</ele>
        <time>2017-11-24T09:43:19Z</time>
      </trkpt>
      <trkpt lat="45.239" lon="6.04194">
        <ele>2590.4541015625</ele>
        <time>2017-11-24T09:43:47Z</time>
      </trkpt>
      <trkpt lat="45.23905" lon="6.04198">
        <ele>2592.4541015625</ele>
        <time>2017-11-24T09:43:57Z</time>
      </trkpt>
      <trkpt lat="45.23909" lon="6.04201">
        <ele>2594.4541015625</ele>
        <time>2017-11-24T09:44:05Z</time>
      </trkpt>
      <trkpt lat="45.23912" lon="6.04206">
        <ele>2593.4541015625</ele>
        <time>2017-11-24T09:44:15Z</time>
      </trkpt>
      <trkpt lat="45.23917" lon="6.04209">
        <ele>2599.4541015625</ele>
        <time>2017-11-24T09:44:23Z</time>
      </trkpt>
      <trkpt lat="45.23917" lon="6.04216">
        <ele>2599.4541015625</ele>
        <time>2017-11-24T09:44:39Z</time>
      </trkpt>
      <trkpt lat="45.23916" lon="6.04222">
        <ele>2602.4541015625</ele>
        <time>2017-11-24T09:45:00Z</time>
      </trkpt>
      <trkpt lat="45.2392" lon="6.04219">
        <ele>2601.4541015625</ele>
        <time>2017-11-24T09:47:25Z</time>
      </trkpt>
      <trkpt lat="45.23923" lon="6.04223">
        <ele>2598.4541015625</ele>
        <time>2017-11-24T09:49:57Z</time>
      </trkpt>
      <trkpt lat="45.23927" lon="6.04228">
        <ele>2599.4541015625</ele>
        <time>2017-11-24T09:50:02Z</time>
      </trkpt>
      <trkpt lat="45.23929" lon="6.04235">
        <ele>2593.4541015625</ele>
        <time>2017-11-24T09:50:14Z</time>
      </trkpt>
      <trkpt lat="45.23933" lon="6.04238">
        <ele>2596.4541015625</ele>
        <time>2017-11-24T09:50:23Z</time>
      </trkpt>
      <trkpt lat="45.23938" lon="6.04239">
        <ele>2593.4541015625</ele>
        <time>2017-11-24T09:50:41Z</time>
      </trkpt>
      <trkpt lat="45.2394" lon="6.04245">
        <ele>2583.4541015625</ele>
        <time>2017-11-24T09:51:53Z</time>
      </trkpt>
      <trkpt lat="45.23945" lon="6.04244">
        <ele>2584.4541015625</ele>
        <time>2017-11-24T09:54:15Z</time>
      </trkpt>
      <trkpt lat="45.2395" lon="6.04242">
        <ele>2588.4541015625</ele>
        <time>2017-11-24T09:55:22Z</time>
      </trkpt>
      <trkpt lat="45.23945" lon="6.04245">
        <ele>2574.4541015625</ele>
        <time>2017-11-24T09:55:29Z</time>
      </trkpt>
      <trkpt lat="45.2395" lon="6.04248">
        <ele>2571.4541015625</ele>
        <time>2017-11-24T09:55:35Z</time>
      </trkpt>
      <trkpt lat="45.23953" lon="6.04253">
        <ele>2559.4541015625</ele>
        <time>2017-11-24T09:55:57Z</time>
      </trkpt>
      <trkpt lat="45.23958" lon="6.04255">
        <ele>2552.4541015625</ele>
        <time>2017-11-24T09:56:07Z</time>
      </trkpt>
      <trkpt lat="45.2396" lon="6.04261">
        <ele>2547.4541015625</ele>
        <time>2017-11-24T09:56:13Z</time>
      </trkpt>
      <trkpt lat="45.23967" lon="6.04266">
        <ele>2546.4541015625</ele>
        <time>2017-11-24T09:56:21Z</time>
      </trkpt>
      <trkpt lat="45.23972" lon="6.04271">
        <ele>2546.4541015625</ele>
        <time>2017-11-24T09:56:23Z</time>
      </trkpt>
      <trkpt lat="45.23974" lon="6.04281">
        <ele>2543.4541015625</ele>
        <time>2017-11-24T09:56:26Z</time>
      </trkpt>
      <trkpt lat="45.23978" lon="6.04289">
        <ele>2537.4541015625</ele>
        <time>2017-11-24T09:56:36Z</time>
      </trkpt>
      <trkpt lat="45.23982" lon="6.04289">
        <ele>2537.4541015625</ele>
        <time>2017-11-24T09:56:38Z</time>
      </trkpt>
      <trkpt lat="45.23989" lon="6.04288">
        <ele>2537.4541015625</ele>
        <time>2017-11-24T09:56:40Z</time>
      </trkpt>
      <trkpt lat="45.23988" lon="6.04295">
        <ele>2526.4541015625</ele>
        <time>2017-11-24T09:56:44Z</time>
      </trkpt>
      <trkpt lat="45.23993" lon="6.04295">
        <ele>2522.4541015625</ele>
        <time>2017-11-24T09:56:47Z</time>
      </trkpt>
      <trkpt lat="45.23997" lon="6.0429">
        <ele>2515.4541015625</ele>
        <time>2017-11-24T09:56:52Z</time>
      </trkpt>
      <trkpt lat="45.24002" lon="6.04285">
        <ele>2512.4541015625</ele>
        <time>2017-11-24T09:56:55Z</time>
      </trkpt>
      <trkpt lat="45.24008" lon="6.04289">
        <ele>2503.4541015625</ele>
        <time>2017-11-24T09:57:00Z</time>
      </trkpt>
      <trkpt lat="45.24012" lon="6.04294">
        <ele>2500.4541015625</ele>
        <time>2017-11-24T09:57:02Z</time>
      </trkpt>
      <trkpt lat="45.24019" lon="6.04299">
        <ele>2493.4541015625</ele>
        <time>2017-11-24T09:57:05Z</time>
      </trkpt>
      <trkpt lat="45.24025" lon="6.043">
        <ele>2489.4541015625</ele>
        <time>2017-11-24T09:57:07Z</time>
      </trkpt>
      <trkpt lat="45.2403" lon="6.04303">
        <ele>2485.4541015625</ele>
        <time>2017-11-24T09:57:09Z</time>
      </trkpt>
      <trkpt lat="45.24034" lon="6.04307">
        <ele>2482.4541015625</ele>
        <time>2017-11-24T09:57:11Z</time>
      </trkpt>
      <trkpt lat="45.24038" lon="6.04313">
        <ele>2477.4541015625</ele>
        <time>2017-11-24T09:57:26Z</time>
      </trkpt>
      <trkpt lat="45.24045" lon="6.04314">
        <ele>2474.4541015625</ele>
        <time>2017-11-24T09:57:28Z</time>
      </trkpt>
      <trkpt lat="45.24059" lon="6.04328">
        <ele>2467.4541015625</ele>
        <time>2017-11-24T09:57:32Z</time>
      </trkpt>
      <trkpt lat="45.24065" lon="6.04335">
        <ele>2462.4541015625</ele>
        <time>2017-11-24T09:57:34Z</time>
      </trkpt>
      <trkpt lat="45.24074" lon="6.04332">
        <ele>2461.4541015625</ele>
        <time>2017-11-24T09:57:36Z</time>
      </trkpt>
      <trkpt lat="45.24081" lon="6.04328">
        <ele>2461.4541015625</ele>
        <time>2017-11-24T09:57:38Z</time>
      </trkpt>
      <trkpt lat="45.24085" lon="6.04331">
        <ele>2455.4541015625</ele>
        <time>2017-11-24T09:57:40Z</time>
      </trkpt>
      <trkpt lat="45.2409" lon="6.04334">
        <ele>2448.4541015625</ele>
        <time>2017-11-24T09:57:43Z</time>
      </trkpt>
      <trkpt lat="45.24091" lon="6.04344">
        <ele>2440.4541015625</ele>
        <time>2017-11-24T09:57:45Z</time>
      </trkpt>
      <trkpt lat="45.2409" lon="6.04351">
        <ele>2438.4541015625</ele>
        <time>2017-11-24T09:57:46Z</time>
      </trkpt>
      <trkpt lat="45.24088" lon="6.0436">
        <ele>2435.4541015625</ele>
        <time>2017-11-24T09:57:48Z</time>
      </trkpt>
      <trkpt lat="45.24086" lon="6.04372">
        <ele>2433.4541015625</ele>
        <time>2017-11-24T09:57:50Z</time>
      </trkpt>
      <trkpt lat="45.24084" lon="6.04381">
        <ele>2434.4541015625</ele>
        <time>2017-11-24T09:57:52Z</time>
      </trkpt>
      <trkpt lat="45.2408" lon="6.04389">
        <ele>2428.4541015625</ele>
        <time>2017-11-24T09:57:56Z</time>
      </trkpt>
      <trkpt lat="45.24079" lon="6.04395">
        <ele>2426.4541015625</ele>
        <time>2017-11-24T09:57:58Z</time>
      </trkpt>
      <trkpt lat="45.24085" lon="6.04395">
        <ele>2415.4541015625</ele>
        <time>2017-11-24T09:58:06Z</time>
      </trkpt>
      <trkpt lat="45.24091" lon="6.04392">
        <ele>2416.4541015625</ele>
        <time>2017-11-24T09:58:08Z</time>
      </trkpt>
      <trkpt lat="45.24098" lon="6.0439">
        <ele>2416.4541015625</ele>
        <time>2017-11-24T09:58:10Z</time>
      </trkpt>
      <trkpt lat="45.24098" lon="6.04396">
        <ele>2412.4541015625</ele>
        <time>2017-11-24T09:58:14Z</time>
      </trkpt>
      <trkpt lat="45.24095" lon="6.04405">
        <ele>2410.4541015625</ele>
        <time>2017-11-24T09:58:16Z</time>
      </trkpt>
      <trkpt lat="45.24091" lon="6.04415">
        <ele>2408.4541015625</ele>
        <time>2017-11-24T09:58:18Z</time>
      </trkpt>
      <trkpt lat="45.24088" lon="6.04428">
        <ele>2408.4541015625</ele>
        <time>2017-11-24T09:58:20Z</time>
      </trkpt>
      <trkpt lat="45.24085" lon="6.0445">
        <ele>2407.4541015625</ele>
        <time>2017-11-24T09:58:23Z</time>
      </trkpt>
      <trkpt lat="45.24086" lon="6.04458">
        <ele>2407.4541015625</ele>
        <time>2017-11-24T09:58:24Z</time>
      </trkpt>
      <trkpt lat="45.24086" lon="6.04474">
        <ele>2406.4541015625</ele>
        <time>2017-11-24T09:58:26Z</time>
      </trkpt>
      <trkpt lat="45.24082" lon="6.0449">
        <ele>2404.4541015625</ele>
        <time>2017-11-24T09:58:29Z</time>
      </trkpt>
      <trkpt lat="45.24083" lon="6.04502">
        <ele>2405.4541015625</ele>
        <time>2017-11-24T09:58:34Z</time>
      </trkpt>
      <trkpt lat="45.24082" lon="6.04508">
        <ele>2404.4541015625</ele>
        <time>2017-11-24T09:58:37Z</time>
      </trkpt>
      <trkpt lat="45.24086" lon="6.04509">
        <ele>2397.4541015625</ele>
        <time>2017-11-24T09:58:43Z</time>
      </trkpt>
      <trkpt lat="45.24087" lon="6.04518">
        <ele>2394.4541015625</ele>
        <time>2017-11-24T09:58:48Z</time>
      </trkpt>
      <trkpt lat="45.24088" lon="6.04525">
        <ele>2393.4541015625</ele>
        <time>2017-11-24T09:58:51Z</time>
      </trkpt>
      <trkpt lat="45.24093" lon="6.04531">
        <ele>2389.4541015625</ele>
        <time>2017-11-24T09:58:55Z</time>
      </trkpt>
      <trkpt lat="45.24099" lon="6.04533">
        <ele>2389.4541015625</ele>
        <time>2017-11-24T09:58:58Z</time>
      </trkpt>
      <trkpt lat="45.24106" lon="6.04529">
        <ele>2387.4541015625</ele>
        <time>2017-11-24T09:59:01Z</time>
      </trkpt>
      <trkpt lat="45.24111" lon="6.04524">
        <ele>2383.4541015625</ele>
        <time>2017-11-24T09:59:03Z</time>
      </trkpt>
      <trkpt lat="45.24115" lon="6.0452">
        <ele>2381.4541015625</ele>
        <time>2017-11-24T09:59:05Z</time>
      </trkpt>
      <trkpt lat="45.2412" lon="6.04521">
        <ele>2381.4541015625</ele>
        <time>2017-11-24T09:59:10Z</time>
      </trkpt>
      <trkpt lat="45.24126" lon="6.04518">
        <ele>2381.4541015625</ele>
        <time>2017-11-24T09:59:12Z</time>
      </trkpt>
      <trkpt lat="45.24131" lon="6.04523">
        <ele>2380.455078125</ele>
        <time>2017-11-24T09:59:14Z</time>
      </trkpt>
      <trkpt lat="45.24128" lon="6.04528">
        <ele>2379.455078125</ele>
        <time>2017-11-24T09:59:15Z</time>
      </trkpt>
      <trkpt lat="45.24123" lon="6.04532">
        <ele>2376.455078125</ele>
        <time>2017-11-24T09:59:16Z</time>
      </trkpt>
      <trkpt lat="45.24128" lon="6.04534">
        <ele>2370.455078125</ele>
        <time>2017-11-24T09:59:20Z</time>
      </trkpt>
      <trkpt lat="45.24124" lon="6.04542">
        <ele>2364.455078125</ele>
        <time>2017-11-24T09:59:23Z</time>
      </trkpt>
      <trkpt lat="45.24119" lon="6.04545">
        <ele>2359.455078125</ele>
        <time>2017-11-24T09:59:25Z</time>
      </trkpt>
      <trkpt lat="45.24118" lon="6.04552">
        <ele>2354.455078125</ele>
        <time>2017-11-24T09:59:28Z</time>
      </trkpt>
      <trkpt lat="45.24125" lon="6.04554">
        <ele>2351.455078125</ele>
        <time>2017-11-24T09:59:31Z</time>
      </trkpt>
      <trkpt lat="45.24123" lon="6.04572">
        <ele>2348.455078125</ele>
        <time>2017-11-24T09:59:34Z</time>
      </trkpt>
      <trkpt lat="45.24123" lon="6.04587">
        <ele>2347.455078125</ele>
        <time>2017-11-24T09:59:37Z</time>
      </trkpt>
      <trkpt lat="45.24121" lon="6.04596">
        <ele>2346.455078125</ele>
        <time>2017-11-24T09:59:39Z</time>
      </trkpt>
      <trkpt lat="45.24122" lon="6.04603">
        <ele>2344.455078125</ele>
        <time>2017-11-24T09:59:42Z</time>
      </trkpt>
      <trkpt lat="45.24128" lon="6.0461">
        <ele>2344.455078125</ele>
        <time>2017-11-24T09:59:45Z</time>
      </trkpt>
      <trkpt lat="45.24134" lon="6.04612">
        <ele>2343.455078125</ele>
        <time>2017-11-24T09:59:46Z</time>
      </trkpt>
      <trkpt lat="45.24147" lon="6.04616">
        <ele>2343.455078125</ele>
        <time>2017-11-24T09:59:48Z</time>
      </trkpt>
      <trkpt lat="45.24157" lon="6.04623">
        <ele>2343.455078125</ele>
        <time>2017-11-24T09:59:50Z</time>
      </trkpt>
      <trkpt lat="45.24161" lon="6.04625">
        <ele>2341.455078125</ele>
        <time>2017-11-24T09:59:51Z</time>
      </trkpt>
      <trkpt lat="45.24163" lon="6.04632">
        <ele>2334.455078125</ele>
        <time>2017-11-24T09:59:53Z</time>
      </trkpt>
      <trkpt lat="45.24167" lon="6.04638">
        <ele>2327.455078125</ele>
        <time>2017-11-24T09:59:55Z</time>
      </trkpt>
      <trkpt lat="45.24173" lon="6.0464">
        <ele>2320.455078125</ele>
        <time>2017-11-24T09:59:57Z</time>
      </trkpt>
      <trkpt lat="45.24173" lon="6.04648">
        <ele>2310.455078125</ele>
        <time>2017-11-24T10:00:01Z</time>
      </trkpt>
      <trkpt lat="45.24167" lon="6.04659">
        <ele>2306.455078125</ele>
        <time>2017-11-24T10:00:03Z</time>
      </trkpt>
      <trkpt lat="45.24166" lon="6.04673">
        <ele>2304.455078125</ele>
        <time>2017-11-24T10:00:05Z</time>
      </trkpt>
      <trkpt lat="45.24163" lon="6.047">
        <ele>2299.455078125</ele>
        <time>2017-11-24T10:00:07Z</time>
      </trkpt>
      <trkpt lat="45.24166" lon="6.04707">
        <ele>2298.455078125</ele>
        <time>2017-11-24T10:00:08Z</time>
      </trkpt>
      <trkpt lat="45.24168" lon="6.04716">
        <ele>2294.455078125</ele>
        <time>2017-11-24T10:00:10Z</time>
      </trkpt>
      <trkpt lat="45.24168" lon="6.04728">
        <ele>2286.455078125</ele>
        <time>2017-11-24T10:00:19Z</time>
      </trkpt>
      <trkpt lat="45.24163" lon="6.04738">
        <ele>2283.455078125</ele>
        <time>2017-11-24T10:00:21Z</time>
      </trkpt>
      <trkpt lat="45.24165" lon="6.04747">
        <ele>2280.455078125</ele>
        <time>2017-11-24T10:00:24Z</time>
      </trkpt>
      <trkpt lat="45.24178" lon="6.04753">
        <ele>2280.455078125</ele>
        <time>2017-11-24T10:00:26Z</time>
      </trkpt>
      <trkpt lat="45.24187" lon="6.04761">
        <ele>2279.455078125</ele>
        <time>2017-11-24T10:00:28Z</time>
      </trkpt>
      <trkpt lat="45.24202" lon="6.04765">
        <ele>2276.455078125</ele>
        <time>2017-11-24T10:00:30Z</time>
      </trkpt>
      <trkpt lat="45.24215" lon="6.04766">
        <ele>2273.455078125</ele>
        <time>2017-11-24T10:00:32Z</time>
      </trkpt>
      <trkpt lat="45.24232" lon="6.04764">
        <ele>2275.455078125</ele>
        <time>2017-11-24T10:00:34Z</time>
      </trkpt>
      <trkpt lat="45.24247" lon="6.04765">
        <ele>2273.455078125</ele>
        <time>2017-11-24T10:00:36Z</time>
      </trkpt>
      <trkpt lat="45.2426" lon="6.04764">
        <ele>2271.455078125</ele>
        <time>2017-11-24T10:00:38Z</time>
      </trkpt>
      <trkpt lat="45.24271" lon="6.04762">
        <ele>2270.455078125</ele>
        <time>2017-11-24T10:00:40Z</time>
      </trkpt>
      <trkpt lat="45.2428" lon="6.04757">
        <ele>2270.455078125</ele>
        <time>2017-11-24T10:00:42Z</time>
      </trkpt>
      <trkpt lat="45.24279" lon="6.04762">
        <ele>2262.455078125</ele>
        <time>2017-11-24T10:00:44Z</time>
      </trkpt>
      <trkpt lat="45.24282" lon="6.04767">
        <ele>2263.455078125</ele>
        <time>2017-11-24T10:00:45Z</time>
      </trkpt>
      <trkpt lat="45.24287" lon="6.04772">
        <ele>2261.455078125</ele>
        <time>2017-11-24T10:00:47Z</time>
      </trkpt>
      <trkpt lat="45.24297" lon="6.0478">
        <ele>2259.455078125</ele>
        <time>2017-11-24T10:00:49Z</time>
      </trkpt>
      <trkpt lat="45.24304" lon="6.04799">
        <ele>2256.455078125</ele>
        <time>2017-11-24T10:00:51Z</time>
      </trkpt>
      <trkpt lat="45.24309" lon="6.04819">
        <ele>2253.455078125</ele>
        <time>2017-11-24T10:00:53Z</time>
      </trkpt>
      <trkpt lat="45.2431" lon="6.04833">
        <ele>2249.455078125</ele>
        <time>2017-11-24T10:00:56Z</time>
      </trkpt>
      <trkpt lat="45.24314" lon="6.04837">
        <ele>2243.455078125</ele>
        <time>2017-11-24T10:00:58Z</time>
      </trkpt>
      <trkpt lat="45.24319" lon="6.04835">
        <ele>2241.455078125</ele>
        <time>2017-11-24T10:01:00Z</time>
      </trkpt>
      <trkpt lat="45.24321" lon="6.04829">
        <ele>2239.455078125</ele>
        <time>2017-11-24T10:01:03Z</time>
      </trkpt>
      <trkpt lat="45.24319" lon="6.04819">
        <ele>2238.455078125</ele>
        <time>2017-11-24T10:01:05Z</time>
      </trkpt>
      <trkpt lat="45.24324" lon="6.04816">
        <ele>2236.455078125</ele>
        <time>2017-11-24T10:01:07Z</time>
      </trkpt>
      <trkpt lat="45.24336" lon="6.04804">
        <ele>2235.455078125</ele>
        <time>2017-11-24T10:01:09Z</time>
      </trkpt>
      <trkpt lat="45.24351" lon="6.04792">
        <ele>2234.455078125</ele>
        <time>2017-11-24T10:01:11Z</time>
      </trkpt>
      <trkpt lat="45.24364" lon="6.04782">
        <ele>2235.455078125</ele>
        <time>2017-11-24T10:01:14Z</time>
      </trkpt>
      <trkpt lat="45.24369" lon="6.04779">
        <ele>2237.455078125</ele>
        <time>2017-11-24T10:01:15Z</time>
      </trkpt>
      <trkpt lat="45.24377" lon="6.04772">
        <ele>2232.455078125</ele>
        <time>2017-11-24T10:01:18Z</time>
      </trkpt>
      <trkpt lat="45.24383" lon="6.04768">
        <ele>2232.455078125</ele>
        <time>2017-11-24T10:01:19Z</time>
      </trkpt>
      <trkpt lat="45.24392" lon="6.04763">
        <ele>2231.455078125</ele>
        <time>2017-11-24T10:01:21Z</time>
      </trkpt>
      <trkpt lat="45.24397" lon="6.04761">
        <ele>2232.455078125</ele>
        <time>2017-11-24T10:01:23Z</time>
      </trkpt>
      <trkpt lat="45.24404" lon="6.0476">
        <ele>2234.455078125</ele>
        <time>2017-11-24T10:01:29Z</time>
      </trkpt>
      <trkpt lat="45.24408" lon="6.04758">
        <ele>2234.455078125</ele>
        <time>2017-11-24T10:01:32Z</time>
      </trkpt>
      <trkpt lat="45.24413" lon="6.04757">
        <ele>2234.455078125</ele>
        <time>2017-11-24T10:01:34Z</time>
      </trkpt>
      <trkpt lat="45.24415" lon="6.04752">
        <ele>2229.455078125</ele>
        <time>2017-11-24T10:01:41Z</time>
      </trkpt>
      <trkpt lat="45.24418" lon="6.04745">
        <ele>2231.455078125</ele>
        <time>2017-11-24T10:01:47Z</time>
      </trkpt>
      <trkpt lat="45.24418" lon="6.04738">
        <ele>2225.455078125</ele>
        <time>2017-11-24T10:01:56Z</time>
      </trkpt>
      <trkpt lat="45.24419" lon="6.04732">
        <ele>2222.455078125</ele>
        <time>2017-11-24T10:02:08Z</time>
      </trkpt>
      <trkpt lat="45.24422" lon="6.04726">
        <ele>2224.455078125</ele>
        <time>2017-11-24T10:02:13Z</time>
      </trkpt>
      <trkpt lat="45.24427" lon="6.04724">
        <ele>2227.455078125</ele>
        <time>2017-11-24T10:02:18Z</time>
      </trkpt>
      <trkpt lat="45.24431" lon="6.04718">
        <ele>2228.455078125</ele>
        <time>2017-11-24T10:02:28Z</time>
      </trkpt>
      <trkpt lat="45.24431" lon="6.0471">
        <ele>2221.455078125</ele>
        <time>2017-11-24T10:03:09Z</time>
      </trkpt>
      <trkpt lat="45.2443" lon="6.04702">
        <ele>2218.455078125</ele>
        <time>2017-11-24T10:03:21Z</time>
      </trkpt>
      <trkpt lat="45.24432" lon="6.04696">
        <ele>2218.455078125</ele>
        <time>2017-11-24T10:03:28Z</time>
      </trkpt>
      <trkpt lat="45.24428" lon="6.0469">
        <ele>2216.455078125</ele>
        <time>2017-11-24T10:03:37Z</time>
      </trkpt>
      <trkpt lat="45.24427" lon="6.04683">
        <ele>2217.455078125</ele>
        <time>2017-11-24T10:03:48Z</time>
      </trkpt>
      <trkpt lat="45.24427" lon="6.04677">
        <ele>2218.455078125</ele>
        <time>2017-11-24T10:04:03Z</time>
      </trkpt>
      <trkpt lat="45.2443" lon="6.04672">
        <ele>2221.455078125</ele>
        <time>2017-11-24T10:04:29Z</time>
      </trkpt>
      <trkpt lat="45.2443" lon="6.04666">
        <ele>2224.455078125</ele>
        <time>2017-11-24T10:04:43Z</time>
      </trkpt>
      <trkpt lat="45.24433" lon="6.04661">
        <ele>2227.455078125</ele>
        <time>2017-11-24T10:04:54Z</time>
      </trkpt>
      <trkpt lat="45.24439" lon="6.0466">
        <ele>2233.455078125</ele>
        <time>2017-11-24T10:05:04Z</time>
      </trkpt>
      <trkpt lat="45.24434" lon="6.04651">
        <ele>2229.455078125</ele>
        <time>2017-11-24T10:05:14Z</time>
      </trkpt>
      <trkpt lat="45.24434" lon="6.04645">
        <ele>2232.455078125</ele>
        <time>2017-11-24T10:05:28Z</time>
      </trkpt>
      <trkpt lat="45.2444" lon="6.04642">
        <ele>2235.455078125</ele>
        <time>2017-11-24T10:05:43Z</time>
      </trkpt>
      <trkpt lat="45.24443" lon="6.04636">
        <ele>2243.455078125</ele>
        <time>2017-11-24T10:06:01Z</time>
      </trkpt>
      <trkpt lat="45.24448" lon="6.04635">
        <ele>2250.455078125</ele>
        <time>2017-11-24T10:06:12Z</time>
      </trkpt>
      <trkpt lat="45.24451" lon="6.0463">
        <ele>2252.455078125</ele>
        <time>2017-11-24T10:06:24Z</time>
      </trkpt>
      <trkpt lat="45.24453" lon="6.04624">
        <ele>2253.455078125</ele>
        <time>2017-11-24T10:07:30Z</time>
      </trkpt>
      <trkpt lat="45.24451" lon="6.04617">
        <ele>2251.455078125</ele>
        <time>2017-11-24T10:07:37Z</time>
      </trkpt>
      <trkpt lat="45.24452" lon="6.04609">
        <ele>2251.455078125</ele>
        <time>2017-11-24T10:07:42Z</time>
      </trkpt>
      <trkpt lat="45.24456" lon="6.04607">
        <ele>2252.455078125</ele>
        <time>2017-11-24T10:07:45Z</time>
      </trkpt>
      <trkpt lat="45.2446" lon="6.04602">
        <ele>2250.455078125</ele>
        <time>2017-11-24T10:07:48Z</time>
      </trkpt>
      <trkpt lat="45.24464" lon="6.046">
        <ele>2249.455078125</ele>
        <time>2017-11-24T10:07:50Z</time>
      </trkpt>
      <trkpt lat="45.2447" lon="6.04596">
        <ele>2249.455078125</ele>
        <time>2017-11-24T10:07:52Z</time>
      </trkpt>
      <trkpt lat="45.24467" lon="6.0459">
        <ele>2246.455078125</ele>
        <time>2017-11-24T10:07:55Z</time>
      </trkpt>
      <trkpt lat="45.24463" lon="6.04584">
        <ele>2241.455078125</ele>
        <time>2017-11-24T10:07:57Z</time>
      </trkpt>
      <trkpt lat="45.24471" lon="6.04584">
        <ele>2238.455078125</ele>
        <time>2017-11-24T10:07:59Z</time>
      </trkpt>
      <trkpt lat="45.24474" lon="6.04571">
        <ele>2234.455078125</ele>
        <time>2017-11-24T10:08:01Z</time>
      </trkpt>
      <trkpt lat="45.24481" lon="6.04572">
        <ele>2231.455078125</ele>
        <time>2017-11-24T10:08:03Z</time>
      </trkpt>
      <trkpt lat="45.24486" lon="6.04571">
        <ele>2228.455078125</ele>
        <time>2017-11-24T10:08:05Z</time>
      </trkpt>
      <trkpt lat="45.24491" lon="6.04563">
        <ele>2226.455078125</ele>
        <time>2017-11-24T10:08:07Z</time>
      </trkpt>
      <trkpt lat="45.24488" lon="6.04552">
        <ele>2226.455078125</ele>
        <time>2017-11-24T10:08:08Z</time>
      </trkpt>
      <trkpt lat="45.24491" lon="6.04539">
        <ele>2222.455078125</ele>
        <time>2017-11-24T10:08:11Z</time>
      </trkpt>
      <trkpt lat="45.24497" lon="6.04535">
        <ele>2220.455078125</ele>
        <time>2017-11-24T10:08:13Z</time>
      </trkpt>
      <trkpt lat="45.24504" lon="6.04525">
        <ele>2219.455078125</ele>
        <time>2017-11-24T10:08:15Z</time>
      </trkpt>
      <trkpt lat="45.24514" lon="6.04527">
        <ele>2218.455078125</ele>
        <time>2017-11-24T10:08:17Z</time>
      </trkpt>
      <trkpt lat="45.24517" lon="6.04521">
        <ele>2208.455078125</ele>
        <time>2017-11-24T10:08:21Z</time>
      </trkpt>
      <trkpt lat="45.24517" lon="6.04511">
        <ele>2206.455078125</ele>
        <time>2017-11-24T10:08:23Z</time>
      </trkpt>
      <trkpt lat="45.24523" lon="6.04507">
        <ele>2204.455078125</ele>
        <time>2017-11-24T10:08:25Z</time>
      </trkpt>
      <trkpt lat="45.24525" lon="6.04498">
        <ele>2197.455078125</ele>
        <time>2017-11-24T10:08:28Z</time>
      </trkpt>
      <trkpt lat="45.24528" lon="6.04494">
        <ele>2193.455078125</ele>
        <time>2017-11-24T10:08:31Z</time>
      </trkpt>
      <trkpt lat="45.24537" lon="6.04493">
        <ele>2192.455078125</ele>
        <time>2017-11-24T10:08:33Z</time>
      </trkpt>
      <trkpt lat="45.24529" lon="6.04481">
        <ele>2184.455078125</ele>
        <time>2017-11-24T10:08:35Z</time>
      </trkpt>
      <trkpt lat="45.24521" lon="6.04469">
        <ele>2176.455078125</ele>
        <time>2017-11-24T10:08:38Z</time>
      </trkpt>
      <trkpt lat="45.2453" lon="6.04463">
        <ele>2168.455078125</ele>
        <time>2017-11-24T10:08:45Z</time>
      </trkpt>
      <trkpt lat="45.24526" lon="6.04454">
        <ele>2162.455078125</ele>
        <time>2017-11-24T10:08:48Z</time>
      </trkpt>
      <trkpt lat="45.24527" lon="6.04447">
        <ele>2158.455078125</ele>
        <time>2017-11-24T10:08:50Z</time>
      </trkpt>
      <trkpt lat="45.24535" lon="6.04447">
        <ele>2158.455078125</ele>
        <time>2017-11-24T10:08:52Z</time>
      </trkpt>
      <trkpt lat="45.24541" lon="6.04444">
        <ele>2153.455078125</ele>
        <time>2017-11-24T10:08:55Z</time>
      </trkpt>
      <trkpt lat="45.24536" lon="6.04438">
        <ele>2149.455078125</ele>
        <time>2017-11-24T10:08:57Z</time>
      </trkpt>
      <trkpt lat="45.24541" lon="6.04432">
        <ele>2143.455078125</ele>
        <time>2017-11-24T10:09:00Z</time>
      </trkpt>
      <trkpt lat="45.24539" lon="6.04423">
        <ele>2137.455078125</ele>
        <time>2017-11-24T10:09:02Z</time>
      </trkpt>
      <trkpt lat="45.24539" lon="6.04414">
        <ele>2135.455078125</ele>
        <time>2017-11-24T10:09:04Z</time>
      </trkpt>
      <trkpt lat="45.24545" lon="6.04413">
        <ele>2134.455078125</ele>
        <time>2017-11-24T10:09:06Z</time>
      </trkpt>
      <trkpt lat="45.24546" lon="6.04405">
        <ele>2127.455078125</ele>
        <time>2017-11-24T10:09:08Z</time>
      </trkpt>
      <trkpt lat="45.24553" lon="6.04405">
        <ele>2122.455078125</ele>
        <time>2017-11-24T10:09:10Z</time>
      </trkpt>
      <trkpt lat="45.24558" lon="6.04402">
        <ele>2120.455078125</ele>
        <time>2017-11-24T10:09:12Z</time>
      </trkpt>
      <trkpt lat="45.24562" lon="6.04398">
        <ele>2113.455078125</ele>
        <time>2017-11-24T10:09:15Z</time>
      </trkpt>
      <trkpt lat="45.24563" lon="6.04391">
        <ele>2109.455078125</ele>
        <time>2017-11-24T10:09:17Z</time>
      </trkpt>
      <trkpt lat="45.2456" lon="6.04385">
        <ele>2103.455078125</ele>
        <time>2017-11-24T10:09:19Z</time>
      </trkpt>
      <trkpt lat="45.24558" lon="6.04376">
        <ele>2100.455078125</ele>
        <time>2017-11-24T10:09:28Z</time>
      </trkpt>
      <trkpt lat="45.24555" lon="6.04372">
        <ele>2096.455078125</ele>
        <time>2017-11-24T10:09:30Z</time>
      </trkpt>
      <trkpt lat="45.24553" lon="6.04365">
        <ele>2094.455078125</ele>
        <time>2017-11-24T10:09:33Z</time>
      </trkpt>
      <trkpt lat="45.24553" lon="6.04357">
        <ele>2095.455078125</ele>
        <time>2017-11-24T10:09:38Z</time>
      </trkpt>
      <trkpt lat="45.24554" lon="6.04349">
        <ele>2093.455078125</ele>
        <time>2017-11-24T10:09:41Z</time>
      </trkpt>
      <trkpt lat="45.24552" lon="6.04338">
        <ele>2090.455078125</ele>
        <time>2017-11-24T10:09:43Z</time>
      </trkpt>
      <trkpt lat="45.24558" lon="6.04336">
        <ele>2086.455078125</ele>
        <time>2017-11-24T10:09:47Z</time>
      </trkpt>
      <trkpt lat="45.2456" lon="6.04328">
        <ele>2083.455078125</ele>
        <time>2017-11-24T10:09:50Z</time>
      </trkpt>
      <trkpt lat="45.24555" lon="6.04318">
        <ele>2078.455078125</ele>
        <time>2017-11-24T10:09:52Z</time>
      </trkpt>
      <trkpt lat="45.24555" lon="6.04301">
        <ele>2077.455078125</ele>
        <time>2017-11-24T10:09:54Z</time>
      </trkpt>
      <trkpt lat="45.24558" lon="6.0429">
        <ele>2078.455078125</ele>
        <time>2017-11-24T10:09:56Z</time>
      </trkpt>
      <trkpt lat="45.24561" lon="6.0428">
        <ele>2077.455078125</ele>
        <time>2017-11-24T10:09:58Z</time>
      </trkpt>
      <trkpt lat="45.24562" lon="6.04272">
        <ele>2075.455078125</ele>
        <time>2017-11-24T10:10:01Z</time>
      </trkpt>
      <trkpt lat="45.24563" lon="6.04263">
        <ele>2074.455078125</ele>
        <time>2017-11-24T10:10:04Z</time>
      </trkpt>
      <trkpt lat="45.24567" lon="6.04253">
        <ele>2075.455078125</ele>
        <time>2017-11-24T10:10:06Z</time>
      </trkpt>
      <trkpt lat="45.2457" lon="6.04247">
        <ele>2074.455078125</ele>
        <time>2017-11-24T10:10:09Z</time>
      </trkpt>
      <trkpt lat="45.24571" lon="6.04239">
        <ele>2074.455078125</ele>
        <time>2017-11-24T10:10:13Z</time>
      </trkpt>
      <trkpt lat="45.24572" lon="6.04232">
        <ele>2074.455078125</ele>
        <time>2017-11-24T10:10:15Z</time>
      </trkpt>
      <trkpt lat="45.24572" lon="6.04223">
        <ele>2072.455078125</ele>
        <time>2017-11-24T10:10:18Z</time>
      </trkpt>
      <trkpt lat="45.24568" lon="6.04216">
        <ele>2068.455078125</ele>
        <time>2017-11-24T10:10:19Z</time>
      </trkpt>
      <trkpt lat="45.24567" lon="6.04198">
        <ele>2067.455078125</ele>
        <time>2017-11-24T10:10:22Z</time>
      </trkpt>
      <trkpt lat="45.24571" lon="6.04192">
        <ele>2066.455078125</ele>
        <time>2017-11-24T10:10:24Z</time>
      </trkpt>
      <trkpt lat="45.24566" lon="6.04184">
        <ele>2062.455078125</ele>
        <time>2017-11-24T10:10:26Z</time>
      </trkpt>
      <trkpt lat="45.24572" lon="6.04191">
        <ele>2060.455078125</ele>
        <time>2017-11-24T10:10:28Z</time>
      </trkpt>
      <trkpt lat="45.24577" lon="6.04186">
        <ele>2058.455078125</ele>
        <time>2017-11-24T10:10:30Z</time>
      </trkpt>
      <trkpt lat="45.24581" lon="6.0419">
        <ele>2058.455078125</ele>
        <time>2017-11-24T10:10:31Z</time>
      </trkpt>
      <trkpt lat="45.24585" lon="6.04188">
        <ele>2057.455078125</ele>
        <time>2017-11-24T10:10:33Z</time>
      </trkpt>
      <trkpt lat="45.24586" lon="6.04178">
        <ele>2052.455078125</ele>
        <time>2017-11-24T10:10:35Z</time>
      </trkpt>
      <trkpt lat="45.24587" lon="6.04168">
        <ele>2049.455078125</ele>
        <time>2017-11-24T10:10:37Z</time>
      </trkpt>
      <trkpt lat="45.24587" lon="6.04159">
        <ele>2047.4549560547</ele>
        <time>2017-11-24T10:10:39Z</time>
      </trkpt>
      <trkpt lat="45.24588" lon="6.04144">
        <ele>2044.4549560547</ele>
        <time>2017-11-24T10:10:41Z</time>
      </trkpt>
      <trkpt lat="45.2459" lon="6.04134">
        <ele>2042.4549560547</ele>
        <time>2017-11-24T10:10:42Z</time>
      </trkpt>
      <trkpt lat="45.24592" lon="6.04117">
        <ele>2038.4549560547</ele>
        <time>2017-11-24T10:10:44Z</time>
      </trkpt>
      <trkpt lat="45.24599" lon="6.04099">
        <ele>2036.4549560547</ele>
        <time>2017-11-24T10:10:46Z</time>
      </trkpt>
      <trkpt lat="45.24605" lon="6.04078">
        <ele>2036.4549560547</ele>
        <time>2017-11-24T10:10:49Z</time>
      </trkpt>
      <trkpt lat="45.24611" lon="6.04066">
        <ele>2038.4549560547</ele>
        <time>2017-11-24T10:10:51Z</time>
      </trkpt>
      <trkpt lat="45.24615" lon="6.04056">
        <ele>2038.4549560547</ele>
        <time>2017-11-24T10:10:53Z</time>
      </trkpt>
      <trkpt lat="45.24615" lon="6.04047">
        <ele>2038.4549560547</ele>
        <time>2017-11-24T10:10:55Z</time>
      </trkpt>
      <trkpt lat="45.24616" lon="6.0404">
        <ele>2038.4549560547</ele>
        <time>2017-11-24T10:10:57Z</time>
      </trkpt>
      <trkpt lat="45.24618" lon="6.0403">
        <ele>2039.4549560547</ele>
        <time>2017-11-24T10:10:59Z</time>
      </trkpt>
      <trkpt lat="45.24623" lon="6.04025">
        <ele>2041.4549560547</ele>
        <time>2017-11-24T10:11:01Z</time>
      </trkpt>
      <trkpt lat="45.24631" lon="6.0402">
        <ele>2043.4549560547</ele>
        <time>2017-11-24T10:11:03Z</time>
      </trkpt>
      <trkpt lat="45.24636" lon="6.04012">
        <ele>2042.4549560547</ele>
        <time>2017-11-24T10:11:05Z</time>
      </trkpt>
      <trkpt lat="45.24644" lon="6.04001">
        <ele>2040.4549560547</ele>
        <time>2017-11-24T10:11:07Z</time>
      </trkpt>
      <trkpt lat="45.24651" lon="6.03988">
        <ele>2041.4549560547</ele>
        <time>2017-11-24T10:11:09Z</time>
      </trkpt>
      <trkpt lat="45.24654" lon="6.03978">
        <ele>2042.4549560547</ele>
        <time>2017-11-24T10:11:11Z</time>
      </trkpt>
      <trkpt lat="45.24658" lon="6.03969">
        <ele>2041.4549560547</ele>
        <time>2017-11-24T10:11:13Z</time>
      </trkpt>
      <trkpt lat="45.24668" lon="6.03957">
        <ele>2040.4549560547</ele>
        <time>2017-11-24T10:11:16Z</time>
      </trkpt>
      <trkpt lat="45.24676" lon="6.03948">
        <ele>2040.4549560547</ele>
        <time>2017-11-24T10:11:18Z</time>
      </trkpt>
      <trkpt lat="45.24691" lon="6.03943">
        <ele>2041.4549560547</ele>
        <time>2017-11-24T10:11:20Z</time>
      </trkpt>
      <trkpt lat="45.24704" lon="6.03941">
        <ele>2042.4549560547</ele>
        <time>2017-11-24T10:11:22Z</time>
      </trkpt>
      <trkpt lat="45.2471" lon="6.03938">
        <ele>2036.4549560547</ele>
        <time>2017-11-24T10:11:25Z</time>
      </trkpt>
      <trkpt lat="45.24715" lon="6.03939">
        <ele>2033.4549560547</ele>
        <time>2017-11-24T10:11:27Z</time>
      </trkpt>
      <trkpt lat="45.24721" lon="6.0394">
        <ele>2030.4549560547</ele>
        <time>2017-11-24T10:11:29Z</time>
      </trkpt>
      <trkpt lat="45.24711" lon="6.03956">
        <ele>2027.4549560547</ele>
        <time>2017-11-24T10:11:33Z</time>
      </trkpt>
      <trkpt lat="45.24709" lon="6.03962">
        <ele>2024.4549560547</ele>
        <time>2017-11-24T10:11:34Z</time>
      </trkpt>
      <trkpt lat="45.24713" lon="6.03965">
        <ele>2020.4549560547</ele>
        <time>2017-11-24T10:11:36Z</time>
      </trkpt>
      <trkpt lat="45.2472" lon="6.03964">
        <ele>2019.4549560547</ele>
        <time>2017-11-24T10:11:37Z</time>
      </trkpt>
      <trkpt lat="45.24726" lon="6.03967">
        <ele>2016.4549560547</ele>
        <time>2017-11-24T10:11:39Z</time>
      </trkpt>
      <trkpt lat="45.24728" lon="6.03979">
        <ele>2015.4549560547</ele>
        <time>2017-11-24T10:11:41Z</time>
      </trkpt>
      <trkpt lat="45.24734" lon="6.03977">
        <ele>2012.4549560547</ele>
        <time>2017-11-24T10:11:42Z</time>
      </trkpt>
      <trkpt lat="45.24736" lon="6.03982">
        <ele>2005.4549560547</ele>
        <time>2017-11-24T10:11:45Z</time>
      </trkpt>
      <trkpt lat="45.24747" lon="6.03987">
        <ele>2001.4549560547</ele>
        <time>2017-11-24T10:11:47Z</time>
      </trkpt>
      <trkpt lat="45.24755" lon="6.03993">
        <ele>1996.4549560547</ele>
        <time>2017-11-24T10:11:50Z</time>
      </trkpt>
      <trkpt lat="45.24761" lon="6.04002">
        <ele>1993.4549560547</ele>
        <time>2017-11-24T10:11:52Z</time>
      </trkpt>
      <trkpt lat="45.24773" lon="6.03996">
        <ele>1990.4549560547</ele>
        <time>2017-11-24T10:11:55Z</time>
      </trkpt>
      <trkpt lat="45.24775" lon="6.04003">
        <ele>1987.4549560547</ele>
        <time>2017-11-24T10:11:57Z</time>
      </trkpt>
      <trkpt lat="45.24769" lon="6.04011">
        <ele>1978.4549560547</ele>
        <time>2017-11-24T10:11:59Z</time>
      </trkpt>
      <trkpt lat="45.24769" lon="6.04024">
        <ele>1977.4549560547</ele>
        <time>2017-11-24T10:12:01Z</time>
      </trkpt>
      <trkpt lat="45.24771" lon="6.04039">
        <ele>1977.4549560547</ele>
        <time>2017-11-24T10:12:03Z</time>
      </trkpt>
      <trkpt lat="45.24771" lon="6.04048">
        <ele>1974.4549560547</ele>
        <time>2017-11-24T10:12:04Z</time>
      </trkpt>
      <trkpt lat="45.24775" lon="6.04059">
        <ele>1972.4549560547</ele>
        <time>2017-11-24T10:12:06Z</time>
      </trkpt>
      <trkpt lat="45.24786" lon="6.04066">
        <ele>1970.4549560547</ele>
        <time>2017-11-24T10:12:08Z</time>
      </trkpt>
      <trkpt lat="45.24798" lon="6.04065">
        <ele>1967.4549560547</ele>
        <time>2017-11-24T10:12:11Z</time>
      </trkpt>
      <trkpt lat="45.24807" lon="6.04056">
        <ele>1968.4549560547</ele>
        <time>2017-11-24T10:12:13Z</time>
      </trkpt>
      <trkpt lat="45.24811" lon="6.04065">
        <ele>1965.4549560547</ele>
        <time>2017-11-24T10:12:15Z</time>
      </trkpt>
      <trkpt lat="45.24822" lon="6.0406">
        <ele>1960.4549560547</ele>
        <time>2017-11-24T10:12:19Z</time>
      </trkpt>
      <trkpt lat="45.24827" lon="6.04049">
        <ele>1952.4549560547</ele>
        <time>2017-11-24T10:12:21Z</time>
      </trkpt>
      <trkpt lat="45.2483" lon="6.04039">
        <ele>1953.4549560547</ele>
        <time>2017-11-24T10:12:23Z</time>
      </trkpt>
      <trkpt lat="45.24836" lon="6.04042">
        <ele>1953.4549560547</ele>
        <time>2017-11-24T10:12:25Z</time>
      </trkpt>
      <trkpt lat="45.24843" lon="6.04044">
        <ele>1950.4549560547</ele>
        <time>2017-11-24T10:12:27Z</time>
      </trkpt>
      <trkpt lat="45.24852" lon="6.04044">
        <ele>1945.4549560547</ele>
        <time>2017-11-24T10:12:29Z</time>
      </trkpt>
      <trkpt lat="45.24865" lon="6.04043">
        <ele>1943.4549560547</ele>
        <time>2017-11-24T10:12:31Z</time>
      </trkpt>
      <trkpt lat="45.2488" lon="6.04044">
        <ele>1943.4549560547</ele>
        <time>2017-11-24T10:12:33Z</time>
      </trkpt>
      <trkpt lat="45.24896" lon="6.04044">
        <ele>1942.4549560547</ele>
        <time>2017-11-24T10:12:35Z</time>
      </trkpt>
      <trkpt lat="45.24909" lon="6.04044">
        <ele>1941.4549560547</ele>
        <time>2017-11-24T10:12:37Z</time>
      </trkpt>
      <trkpt lat="45.24921" lon="6.04037">
        <ele>1941.4549560547</ele>
        <time>2017-11-24T10:12:40Z</time>
      </trkpt>
      <trkpt lat="45.24927" lon="6.04032">
        <ele>1936.4549560547</ele>
        <time>2017-11-24T10:12:43Z</time>
      </trkpt>
      <trkpt lat="45.24932" lon="6.0403">
        <ele>1934.4549560547</ele>
        <time>2017-11-24T10:12:46Z</time>
      </trkpt>
      <trkpt lat="45.24936" lon="6.04026">
        <ele>1936.4549560547</ele>
        <time>2017-11-24T10:17:23Z</time>
      </trkpt>
      <trkpt lat="45.24939" lon="6.04021">
        <ele>1933.4549560547</ele>
        <time>2017-11-24T10:17:32Z</time>
      </trkpt>
      <trkpt lat="45.24943" lon="6.04016">
        <ele>1933.4549560547</ele>
        <time>2017-11-24T10:17:36Z</time>
      </trkpt>
      <trkpt lat="45.24947" lon="6.04013">
        <ele>1931.4549560547</ele>
        <time>2017-11-24T10:17:38Z</time>
      </trkpt>
      <trkpt lat="45.24949" lon="6.04005">
        <ele>1931.4549560547</ele>
        <time>2017-11-24T10:17:42Z</time>
      </trkpt>
      <trkpt lat="45.24952" lon="6.04">
        <ele>1932.4549560547</ele>
        <time>2017-11-24T10:17:46Z</time>
      </trkpt>
      <trkpt lat="45.24956" lon="6.03995">
        <ele>1936.4549560547</ele>
        <time>2017-11-24T10:17:52Z</time>
      </trkpt>
      <trkpt lat="45.24961" lon="6.03993">
        <ele>1936.4549560547</ele>
        <time>2017-11-24T10:17:56Z</time>
      </trkpt>
      <trkpt lat="45.24965" lon="6.03989">
        <ele>1934.4549560547</ele>
        <time>2017-11-24T10:18:01Z</time>
      </trkpt>
      <trkpt lat="45.2497" lon="6.03985">
        <ele>1934.4549560547</ele>
        <time>2017-11-24T10:18:05Z</time>
      </trkpt>
      <trkpt lat="45.24973" lon="6.03979">
        <ele>1933.4549560547</ele>
        <time>2017-11-24T10:18:10Z</time>
      </trkpt>
      <trkpt lat="45.24979" lon="6.03976">
        <ele>1932.4549560547</ele>
        <time>2017-11-24T10:18:13Z</time>
      </trkpt>
      <trkpt lat="45.2498" lon="6.03969">
        <ele>1932.4549560547</ele>
        <time>2017-11-24T10:18:17Z</time>
      </trkpt>
      <trkpt lat="45.24982" lon="6.03964">
        <ele>1929.4549560547</ele>
        <time>2017-11-24T10:18:21Z</time>
      </trkpt>
      <trkpt lat="45.24985" lon="6.03958">
        <ele>1930.4549560547</ele>
        <time>2017-11-24T10:18:25Z</time>
      </trkpt>
      <trkpt lat="45.2499" lon="6.03954">
        <ele>1933.4549560547</ele>
        <time>2017-11-24T10:18:28Z</time>
      </trkpt>
      <trkpt lat="45.24993" lon="6.03949">
        <ele>1933.4549560547</ele>
        <time>2017-11-24T10:18:31Z</time>
      </trkpt>
      <trkpt lat="45.24998" lon="6.03948">
        <ele>1936.4549560547</ele>
        <time>2017-11-24T10:18:35Z</time>
      </trkpt>
      <trkpt lat="45.25003" lon="6.03946">
        <ele>1939.4549560547</ele>
        <time>2017-11-24T10:18:38Z</time>
      </trkpt>
      <trkpt lat="45.25009" lon="6.03945">
        <ele>1941.4549560547</ele>
        <time>2017-11-24T10:18:41Z</time>
      </trkpt>
      <trkpt lat="45.25014" lon="6.03943">
        <ele>1939.4549560547</ele>
        <time>2017-11-24T10:18:44Z</time>
      </trkpt>
      <trkpt lat="45.2502" lon="6.03939">
        <ele>1941.4549560547</ele>
        <time>2017-11-24T10:18:50Z</time>
      </trkpt>
      <trkpt lat="45.25024" lon="6.03937">
        <ele>1943.4549560547</ele>
        <time>2017-11-24T10:18:56Z</time>
      </trkpt>
      <trkpt lat="45.25028" lon="6.03934">
        <ele>1944.4549560547</ele>
        <time>2017-11-24T10:19:01Z</time>
      </trkpt>
      <trkpt lat="45.25033" lon="6.03932">
        <ele>1944.4549560547</ele>
        <time>2017-11-24T10:19:04Z</time>
      </trkpt>
      <trkpt lat="45.25039" lon="6.0393">
        <ele>1946.4549560547</ele>
        <time>2017-11-24T10:19:08Z</time>
      </trkpt>
      <trkpt lat="45.25043" lon="6.03926">
        <ele>1947.4549560547</ele>
        <time>2017-11-24T10:19:12Z</time>
      </trkpt>
      <trkpt lat="45.25047" lon="6.03923">
        <ele>1950.4549560547</ele>
        <time>2017-11-24T10:19:15Z</time>
      </trkpt>
      <trkpt lat="45.25054" lon="6.0392">
        <ele>1950.4549560547</ele>
        <time>2017-11-24T10:19:18Z</time>
      </trkpt>
      <trkpt lat="45.25059" lon="6.0392">
        <ele>1953.4560546875</ele>
        <time>2017-11-24T10:19:20Z</time>
      </trkpt>
      <trkpt lat="45.25061" lon="6.03913">
        <ele>1950.4560546875</ele>
        <time>2017-11-24T10:19:27Z</time>
      </trkpt>
      <trkpt lat="45.25065" lon="6.03909">
        <ele>1950.4560546875</ele>
        <time>2017-11-24T10:19:33Z</time>
      </trkpt>
      <trkpt lat="45.2507" lon="6.03907">
        <ele>1953.4560546875</ele>
        <time>2017-11-24T10:19:39Z</time>
      </trkpt>
      <trkpt lat="45.25076" lon="6.03906">
        <ele>1951.4560546875</ele>
        <time>2017-11-24T10:19:45Z</time>
      </trkpt>
      <trkpt lat="45.25081" lon="6.03903">
        <ele>1948.4560546875</ele>
        <time>2017-11-24T10:19:53Z</time>
      </trkpt>
      <trkpt lat="45.25085" lon="6.039">
        <ele>1949.4560546875</ele>
        <time>2017-11-24T10:19:58Z</time>
      </trkpt>
      <trkpt lat="45.25091" lon="6.03896">
        <ele>1950.4560546875</ele>
        <time>2017-11-24T10:20:03Z</time>
      </trkpt>
      <trkpt lat="45.25095" lon="6.03892">
        <ele>1951.4560546875</ele>
        <time>2017-11-24T10:20:12Z</time>
      </trkpt>
      <trkpt lat="45.251" lon="6.03892">
        <ele>1954.4560546875</ele>
        <time>2017-11-24T10:20:15Z</time>
      </trkpt>
      <trkpt lat="45.25105" lon="6.03889">
        <ele>1958.4560546875</ele>
        <time>2017-11-24T10:20:19Z</time>
      </trkpt>
      <trkpt lat="45.25111" lon="6.03883">
        <ele>1960.4560546875</ele>
        <time>2017-11-24T10:20:28Z</time>
      </trkpt>
      <trkpt lat="45.25116" lon="6.0388">
        <ele>1961.4560546875</ele>
        <time>2017-11-24T10:20:36Z</time>
      </trkpt>
      <trkpt lat="45.25119" lon="6.03876">
        <ele>1958.4560546875</ele>
        <time>2017-11-24T10:20:41Z</time>
      </trkpt>
      <trkpt lat="45.25126" lon="6.03875">
        <ele>1963.4560546875</ele>
        <time>2017-11-24T10:20:45Z</time>
      </trkpt>
      <trkpt lat="45.25135" lon="6.03875">
        <ele>1966.4560546875</ele>
        <time>2017-11-24T10:20:52Z</time>
      </trkpt>
      <trkpt lat="45.25138" lon="6.03869">
        <ele>1966.4560546875</ele>
        <time>2017-11-24T10:20:59Z</time>
      </trkpt>
      <trkpt lat="45.25134" lon="6.03865">
        <ele>1965.4560546875</ele>
        <time>2017-11-24T10:21:05Z</time>
      </trkpt>
      <trkpt lat="45.25133" lon="6.03858">
        <ele>1966.4560546875</ele>
        <time>2017-11-24T10:21:10Z</time>
      </trkpt>
      <trkpt lat="45.25138" lon="6.03858">
        <ele>1968.4560546875</ele>
        <time>2017-11-24T10:21:14Z</time>
      </trkpt>
      <trkpt lat="45.25142" lon="6.03861">
        <ele>1969.4560546875</ele>
        <time>2017-11-24T10:21:18Z</time>
      </trkpt>
      <trkpt lat="45.25147" lon="6.03862">
        <ele>1971.4560546875</ele>
        <time>2017-11-24T10:21:23Z</time>
      </trkpt>
      <trkpt lat="45.25147" lon="6.03855">
        <ele>1970.4560546875</ele>
        <time>2017-11-24T10:21:31Z</time>
      </trkpt>
      <trkpt lat="45.25149" lon="6.03849">
        <ele>1971.4560546875</ele>
        <time>2017-11-24T10:21:36Z</time>
      </trkpt>
      <trkpt lat="45.25153" lon="6.03844">
        <ele>1973.4560546875</ele>
        <time>2017-11-24T10:21:40Z</time>
      </trkpt>
      <trkpt lat="45.25156" lon="6.0384">
        <ele>1969.4560546875</ele>
        <time>2017-11-24T10:21:44Z</time>
      </trkpt>
      <trkpt lat="45.2516" lon="6.03834">
        <ele>1971.4560546875</ele>
        <time>2017-11-24T10:21:51Z</time>
      </trkpt>
      <trkpt lat="45.25166" lon="6.03833">
        <ele>1973.4560546875</ele>
        <time>2017-11-24T10:21:55Z</time>
      </trkpt>
      <trkpt lat="45.2517" lon="6.0383">
        <ele>1973.4560546875</ele>
        <time>2017-11-24T10:22:01Z</time>
      </trkpt>
      <trkpt lat="45.25175" lon="6.03827">
        <ele>1977.4560546875</ele>
        <time>2017-11-24T10:22:05Z</time>
      </trkpt>
      <trkpt lat="45.2518" lon="6.03824">
        <ele>1980.4560546875</ele>
        <time>2017-11-24T10:22:09Z</time>
      </trkpt>
      <trkpt lat="45.25185" lon="6.03823">
        <ele>1977.4560546875</ele>
        <time>2017-11-24T10:22:13Z</time>
      </trkpt>
      <trkpt lat="45.25188" lon="6.03817">
        <ele>1979.4560546875</ele>
        <time>2017-11-24T10:22:23Z</time>
      </trkpt>
      <trkpt lat="45.25194" lon="6.03817">
        <ele>1980.4560546875</ele>
        <time>2017-11-24T10:22:34Z</time>
      </trkpt>
      <trkpt lat="45.25199" lon="6.03816">
        <ele>1982.4560546875</ele>
        <time>2017-11-24T10:22:39Z</time>
      </trkpt>
      <trkpt lat="45.252" lon="6.03809">
        <ele>1990.4560546875</ele>
        <time>2017-11-24T10:22:53Z</time>
      </trkpt>
      <trkpt lat="45.25197" lon="6.03801">
        <ele>1993.4560546875</ele>
        <time>2017-11-24T10:22:59Z</time>
      </trkpt>
      <trkpt lat="45.25193" lon="6.03796">
        <ele>1989.4560546875</ele>
        <time>2017-11-24T10:23:06Z</time>
      </trkpt>
      <trkpt lat="45.25191" lon="6.0379">
        <ele>1992.4560546875</ele>
        <time>2017-11-24T10:23:12Z</time>
      </trkpt>
      <trkpt lat="45.25195" lon="6.03784">
        <ele>1995.4560546875</ele>
        <time>2017-11-24T10:23:24Z</time>
      </trkpt>
      <trkpt lat="45.252" lon="6.03784">
        <ele>2001.4560546875</ele>
        <time>2017-11-24T10:23:34Z</time>
      </trkpt>
      <trkpt lat="45.25206" lon="6.03784">
        <ele>2001.4560546875</ele>
        <time>2017-11-24T10:23:36Z</time>
      </trkpt>
      <trkpt lat="45.25211" lon="6.03781">
        <ele>2001.4560546875</ele>
        <time>2017-11-24T10:23:45Z</time>
      </trkpt>
      <trkpt lat="45.25207" lon="6.03777">
        <ele>2002.4560546875</ele>
        <time>2017-11-24T10:23:52Z</time>
      </trkpt>
      <trkpt lat="45.25203" lon="6.03773">
        <ele>2007.4560546875</ele>
        <time>2017-11-24T10:23:58Z</time>
      </trkpt>
      <trkpt lat="45.252" lon="6.03768">
        <ele>2009.4560546875</ele>
        <time>2017-11-24T10:24:03Z</time>
      </trkpt>
      <trkpt lat="45.25202" lon="6.03762">
        <ele>2013.4560546875</ele>
        <time>2017-11-24T10:24:16Z</time>
      </trkpt>
      <trkpt lat="45.25207" lon="6.0376">
        <ele>2017.4560546875</ele>
        <time>2017-11-24T10:24:19Z</time>
      </trkpt>
      <trkpt lat="45.25212" lon="6.0376">
        <ele>2018.4560546875</ele>
        <time>2017-11-24T10:24:23Z</time>
      </trkpt>
      <trkpt lat="45.25216" lon="6.03759">
        <ele>2017.4560546875</ele>
        <time>2017-11-24T10:24:31Z</time>
      </trkpt>
      <trkpt lat="45.25221" lon="6.03762">
        <ele>2018.4560546875</ele>
        <time>2017-11-24T10:24:36Z</time>
      </trkpt>
      <trkpt lat="45.25227" lon="6.03762">
        <ele>2020.4560546875</ele>
        <time>2017-11-24T10:24:42Z</time>
      </trkpt>
      <trkpt lat="45.25231" lon="6.03765">
        <ele>2019.4560546875</ele>
        <time>2017-11-24T10:24:47Z</time>
      </trkpt>
      <trkpt lat="45.25236" lon="6.03767">
        <ele>2022.4560546875</ele>
        <time>2017-11-24T10:24:51Z</time>
      </trkpt>
      <trkpt lat="45.25241" lon="6.03769">
        <ele>2023.4560546875</ele>
        <time>2017-11-24T10:24:58Z</time>
      </trkpt>
      <trkpt lat="45.25246" lon="6.03771">
        <ele>2026.4560546875</ele>
        <time>2017-11-24T10:25:03Z</time>
      </trkpt>
      <trkpt lat="45.25247" lon="6.03764">
        <ele>2023.4560546875</ele>
        <time>2017-11-24T10:25:11Z</time>
      </trkpt>
      <trkpt lat="45.25251" lon="6.03759">
        <ele>2027.4560546875</ele>
        <time>2017-11-24T10:25:17Z</time>
      </trkpt>
      <trkpt lat="45.25253" lon="6.03752">
        <ele>2028.4560546875</ele>
        <time>2017-11-24T10:25:23Z</time>
      </trkpt>
      <trkpt lat="45.25255" lon="6.03747">
        <ele>2028.4560546875</ele>
        <time>2017-11-24T10:25:29Z</time>
      </trkpt>
      <trkpt lat="45.25252" lon="6.0374">
        <ele>2029.4560546875</ele>
        <time>2017-11-24T10:25:34Z</time>
      </trkpt>
      <trkpt lat="45.2525" lon="6.03734">
        <ele>2030.4560546875</ele>
        <time>2017-11-24T10:25:38Z</time>
      </trkpt>
      <trkpt lat="45.2525" lon="6.03727">
        <ele>2030.4560546875</ele>
        <time>2017-11-24T10:25:49Z</time>
      </trkpt>
      <trkpt lat="45.25247" lon="6.03722">
        <ele>2029.4560546875</ele>
        <time>2017-11-24T10:25:55Z</time>
      </trkpt>
      <trkpt lat="45.25248" lon="6.03715">
        <ele>2030.4560546875</ele>
        <time>2017-11-24T10:26:06Z</time>
      </trkpt>
      <trkpt lat="45.25245" lon="6.03711">
        <ele>2031.4560546875</ele>
        <time>2017-11-24T10:26:14Z</time>
      </trkpt>
      <trkpt lat="45.2524" lon="6.03707">
        <ele>2030.4560546875</ele>
        <time>2017-11-24T10:26:20Z</time>
      </trkpt>
      <trkpt lat="45.25239" lon="6.03701">
        <ele>2032.4560546875</ele>
        <time>2017-11-24T10:26:26Z</time>
      </trkpt>
      <trkpt lat="45.25237" lon="6.03693">
        <ele>2031.4560546875</ele>
        <time>2017-11-24T10:26:29Z</time>
      </trkpt>
      <trkpt lat="45.2524" lon="6.03687">
        <ele>2029.4560546875</ele>
        <time>2017-11-24T10:26:38Z</time>
      </trkpt>
      <trkpt lat="45.25245" lon="6.03687">
        <ele>2038.4560546875</ele>
        <time>2017-11-24T10:26:42Z</time>
      </trkpt>
      <trkpt lat="45.25243" lon="6.0368">
        <ele>2038.4560546875</ele>
        <time>2017-11-24T10:26:49Z</time>
      </trkpt>
      <trkpt lat="45.25238" lon="6.03676">
        <ele>2040.4560546875</ele>
        <time>2017-11-24T10:26:57Z</time>
      </trkpt>
      <trkpt lat="45.25233" lon="6.03672">
        <ele>2038.4560546875</ele>
        <time>2017-11-24T10:27:02Z</time>
      </trkpt>
      <trkpt lat="45.25229" lon="6.0367">
        <ele>2039.4549560547</ele>
        <time>2017-11-24T10:27:09Z</time>
      </trkpt>
      <trkpt lat="45.25229" lon="6.03663">
        <ele>2045.4549560547</ele>
        <time>2017-11-24T10:27:14Z</time>
      </trkpt>
      <trkpt lat="45.25234" lon="6.0366">
        <ele>2048.455078125</ele>
        <time>2017-11-24T10:27:18Z</time>
      </trkpt>
      <trkpt lat="45.25237" lon="6.03655">
        <ele>2047.4549560547</ele>
        <time>2017-11-24T10:27:25Z</time>
      </trkpt>
      <trkpt lat="45.2524" lon="6.03649">
        <ele>2051.455078125</ele>
        <time>2017-11-24T10:27:31Z</time>
      </trkpt>
      <trkpt lat="45.25245" lon="6.03644">
        <ele>2055.455078125</ele>
        <time>2017-11-24T10:27:37Z</time>
      </trkpt>
      <trkpt lat="45.25249" lon="6.03641">
        <ele>2059.4560546875</ele>
        <time>2017-11-24T10:27:44Z</time>
      </trkpt>
      <trkpt lat="45.25256" lon="6.0364">
        <ele>2060.4560546875</ele>
        <time>2017-11-24T10:27:52Z</time>
      </trkpt>
      <trkpt lat="45.2526" lon="6.03637">
        <ele>2058.4560546875</ele>
        <time>2017-11-24T10:28:03Z</time>
      </trkpt>
      <trkpt lat="45.25265" lon="6.03636">
        <ele>2061.4560546875</ele>
        <time>2017-11-24T10:28:08Z</time>
      </trkpt>
      <trkpt lat="45.25271" lon="6.03634">
        <ele>2061.4560546875</ele>
        <time>2017-11-24T10:28:13Z</time>
      </trkpt>
      <trkpt lat="45.25275" lon="6.03633">
        <ele>2062.4560546875</ele>
        <time>2017-11-24T10:28:17Z</time>
      </trkpt>
      <trkpt lat="45.25281" lon="6.03631">
        <ele>2062.4560546875</ele>
        <time>2017-11-24T10:28:24Z</time>
      </trkpt>
      <trkpt lat="45.25286" lon="6.0363">
        <ele>2062.4560546875</ele>
        <time>2017-11-24T10:28:30Z</time>
      </trkpt>
      <trkpt lat="45.25291" lon="6.03628">
        <ele>2066.4560546875</ele>
        <time>2017-11-24T10:28:35Z</time>
      </trkpt>
      <trkpt lat="45.25296" lon="6.03628">
        <ele>2067.4560546875</ele>
        <time>2017-11-24T10:28:42Z</time>
      </trkpt>
      <trkpt lat="45.253" lon="6.03624">
        <ele>2065.4560546875</ele>
        <time>2017-11-24T10:28:50Z</time>
      </trkpt>
      <trkpt lat="45.25306" lon="6.03623">
        <ele>2069.4560546875</ele>
        <time>2017-11-24T10:28:53Z</time>
      </trkpt>
      <trkpt lat="45.25311" lon="6.03621">
        <ele>2072.4560546875</ele>
        <time>2017-11-24T10:29:01Z</time>
      </trkpt>
      <trkpt lat="45.25317" lon="6.0362">
        <ele>2071.4560546875</ele>
        <time>2017-11-24T10:29:05Z</time>
      </trkpt>
      <trkpt lat="45.25322" lon="6.03621">
        <ele>2070.4560546875</ele>
        <time>2017-11-24T10:29:11Z</time>
      </trkpt>
      <trkpt lat="45.25325" lon="6.03615">
        <ele>2070.4560546875</ele>
        <time>2017-11-24T10:29:18Z</time>
      </trkpt>
      <trkpt lat="45.25328" lon="6.03609">
        <ele>2073.4560546875</ele>
        <time>2017-11-24T10:29:24Z</time>
      </trkpt>
      <trkpt lat="45.25329" lon="6.03602">
        <ele>2073.4560546875</ele>
        <time>2017-11-24T10:29:30Z</time>
      </trkpt>
      <trkpt lat="45.25332" lon="6.03596">
        <ele>2077.4560546875</ele>
        <time>2017-11-24T10:29:36Z</time>
      </trkpt>
      <trkpt lat="45.25336" lon="6.03591">
        <ele>2079.4560546875</ele>
        <time>2017-11-24T10:29:41Z</time>
      </trkpt>
      <trkpt lat="45.25339" lon="6.03586">
        <ele>2080.4560546875</ele>
        <time>2017-11-24T10:29:47Z</time>
      </trkpt>
      <trkpt lat="45.25342" lon="6.03581">
        <ele>2083.4560546875</ele>
        <time>2017-11-24T10:29:53Z</time>
      </trkpt>
      <trkpt lat="45.25344" lon="6.03575">
        <ele>2083.4560546875</ele>
        <time>2017-11-24T10:30:02Z</time>
      </trkpt>
      <trkpt lat="45.25346" lon="6.03568">
        <ele>2084.4560546875</ele>
        <time>2017-11-24T10:30:09Z</time>
      </trkpt>
      <trkpt lat="45.25351" lon="6.03568">
        <ele>2090.4560546875</ele>
        <time>2017-11-24T10:30:14Z</time>
      </trkpt>
      <trkpt lat="45.25354" lon="6.03562">
        <ele>2096.4560546875</ele>
        <time>2017-11-24T10:30:22Z</time>
      </trkpt>
      <trkpt lat="45.25358" lon="6.03559">
        <ele>2093.4560546875</ele>
        <time>2017-11-24T10:30:26Z</time>
      </trkpt>
      <trkpt lat="45.25363" lon="6.03557">
        <ele>2094.4560546875</ele>
        <time>2017-11-24T10:30:31Z</time>
      </trkpt>
      <trkpt lat="45.2536" lon="6.03552">
        <ele>2097.4560546875</ele>
        <time>2017-11-24T10:30:38Z</time>
      </trkpt>
      <trkpt lat="45.25354" lon="6.0355">
        <ele>2099.4560546875</ele>
        <time>2017-11-24T10:30:43Z</time>
      </trkpt>
      <trkpt lat="45.25349" lon="6.03546">
        <ele>2101.4560546875</ele>
        <time>2017-11-24T10:30:48Z</time>
      </trkpt>
      <trkpt lat="45.25353" lon="6.03543">
        <ele>2102.4560546875</ele>
        <time>2017-11-24T10:30:55Z</time>
      </trkpt>
      <trkpt lat="45.25356" lon="6.03538">
        <ele>2101.4560546875</ele>
        <time>2017-11-24T10:31:00Z</time>
      </trkpt>
      <trkpt lat="45.2536" lon="6.03532">
        <ele>2101.4560546875</ele>
        <time>2017-11-24T10:31:06Z</time>
      </trkpt>
      <trkpt lat="45.25364" lon="6.03527">
        <ele>2101.4560546875</ele>
        <time>2017-11-24T10:31:11Z</time>
      </trkpt>
      <trkpt lat="45.25368" lon="6.03525">
        <ele>2103.4560546875</ele>
        <time>2017-11-24T10:31:18Z</time>
      </trkpt>
      <trkpt lat="45.25372" lon="6.03523">
        <ele>2104.4560546875</ele>
        <time>2017-11-24T10:31:22Z</time>
      </trkpt>
      <trkpt lat="45.25377" lon="6.03521">
        <ele>2106.4560546875</ele>
        <time>2017-11-24T10:31:29Z</time>
      </trkpt>
      <trkpt lat="45.25381" lon="6.03516">
        <ele>2106.4560546875</ele>
        <time>2017-11-24T10:31:33Z</time>
      </trkpt>
      <trkpt lat="45.25384" lon="6.03512">
        <ele>2106.4560546875</ele>
        <time>2017-11-24T10:31:38Z</time>
      </trkpt>
      <trkpt lat="45.25389" lon="6.03506">
        <ele>2110.4560546875</ele>
        <time>2017-11-24T10:31:43Z</time>
      </trkpt>
      <trkpt lat="45.25393" lon="6.03505">
        <ele>2110.4560546875</ele>
        <time>2017-11-24T10:31:48Z</time>
      </trkpt>
      <trkpt lat="45.254" lon="6.03503">
        <ele>2110.4560546875</ele>
        <time>2017-11-24T10:31:54Z</time>
      </trkpt>
      <trkpt lat="45.25406" lon="6.03505">
        <ele>2112.4560546875</ele>
        <time>2017-11-24T10:31:57Z</time>
      </trkpt>
      <trkpt lat="45.25411" lon="6.03504">
        <ele>2114.4560546875</ele>
        <time>2017-11-24T10:32:05Z</time>
      </trkpt>
      <trkpt lat="45.25414" lon="6.03498">
        <ele>2116.4560546875</ele>
        <time>2017-11-24T10:32:17Z</time>
      </trkpt>
      <trkpt lat="45.25419" lon="6.03493">
        <ele>2115.4560546875</ele>
        <time>2017-11-24T10:32:24Z</time>
      </trkpt>
      <trkpt lat="45.25424" lon="6.0349">
        <ele>2118.4560546875</ele>
        <time>2017-11-24T10:32:29Z</time>
      </trkpt>
      <trkpt lat="45.25425" lon="6.03484">
        <ele>2120.4560546875</ele>
        <time>2017-11-24T10:32:39Z</time>
      </trkpt>
      <trkpt lat="45.25429" lon="6.03479">
        <ele>2122.4560546875</ele>
        <time>2017-11-24T10:32:45Z</time>
      </trkpt>
      <trkpt lat="45.25434" lon="6.03477">
        <ele>2124.4560546875</ele>
        <time>2017-11-24T10:32:50Z</time>
      </trkpt>
      <trkpt lat="45.25438" lon="6.03476">
        <ele>2126.4560546875</ele>
        <time>2017-11-24T10:32:56Z</time>
      </trkpt>
      <trkpt lat="45.25443" lon="6.03474">
        <ele>2129.4560546875</ele>
        <time>2017-11-24T10:33:08Z</time>
      </trkpt>
      <trkpt lat="45.25447" lon="6.03472">
        <ele>2132.4560546875</ele>
        <time>2017-11-24T10:33:13Z</time>
      </trkpt>
      <trkpt lat="45.25451" lon="6.0347">
        <ele>2133.4560546875</ele>
        <time>2017-11-24T10:33:42Z</time>
      </trkpt>
      <trkpt lat="45.25452" lon="6.03463">
        <ele>2133.4560546875</ele>
        <time>2017-11-24T10:33:46Z</time>
      </trkpt>
      <trkpt lat="45.25455" lon="6.03453">
        <ele>2135.4560546875</ele>
        <time>2017-11-24T10:33:49Z</time>
      </trkpt>
      <trkpt lat="45.25454" lon="6.03446">
        <ele>2136.4560546875</ele>
        <time>2017-11-24T10:33:51Z</time>
      </trkpt>
      <trkpt lat="45.25456" lon="6.03439">
        <ele>2133.4560546875</ele>
        <time>2017-11-24T10:33:54Z</time>
      </trkpt>
      <trkpt lat="45.2546" lon="6.03432">
        <ele>2135.4560546875</ele>
        <time>2017-11-24T10:33:56Z</time>
      </trkpt>
      <trkpt lat="45.25462" lon="6.03425">
        <ele>2137.4560546875</ele>
        <time>2017-11-24T10:33:58Z</time>
      </trkpt>
      <trkpt lat="45.25466" lon="6.03422">
        <ele>2137.4560546875</ele>
        <time>2017-11-24T10:34:00Z</time>
      </trkpt>
      <trkpt lat="45.25469" lon="6.03414">
        <ele>2138.4560546875</ele>
        <time>2017-11-24T10:34:04Z</time>
      </trkpt>
      <trkpt lat="45.25471" lon="6.03406">
        <ele>2138.4560546875</ele>
        <time>2017-11-24T10:34:07Z</time>
      </trkpt>
      <trkpt lat="45.25474" lon="6.034">
        <ele>2136.4560546875</ele>
        <time>2017-11-24T10:34:11Z</time>
      </trkpt>
      <trkpt lat="45.25477" lon="6.03395">
        <ele>2135.4560546875</ele>
        <time>2017-11-24T10:34:16Z</time>
      </trkpt>
      <trkpt lat="45.25479" lon="6.03388">
        <ele>2135.4560546875</ele>
        <time>2017-11-24T10:34:19Z</time>
      </trkpt>
      <trkpt lat="45.25482" lon="6.0338">
        <ele>2133.4560546875</ele>
        <time>2017-11-24T10:34:22Z</time>
      </trkpt>
      <trkpt lat="45.25482" lon="6.03373">
        <ele>2132.4560546875</ele>
        <time>2017-11-24T10:34:26Z</time>
      </trkpt>
      <trkpt lat="45.25483" lon="6.03365">
        <ele>2131.4560546875</ele>
        <time>2017-11-24T10:34:31Z</time>
      </trkpt>
      <trkpt lat="45.25484" lon="6.03359">
        <ele>2133.4560546875</ele>
        <time>2017-11-24T10:34:35Z</time>
      </trkpt>
      <trkpt lat="45.25481" lon="6.03353">
        <ele>2133.4560546875</ele>
        <time>2017-11-24T10:34:39Z</time>
      </trkpt>
      <trkpt lat="45.2548" lon="6.03346">
        <ele>2131.4560546875</ele>
        <time>2017-11-24T10:34:44Z</time>
      </trkpt>
      <trkpt lat="45.25479" lon="6.03338">
        <ele>2130.4560546875</ele>
        <time>2017-11-24T10:34:49Z</time>
      </trkpt>
      <trkpt lat="45.25478" lon="6.0333">
        <ele>2133.4560546875</ele>
        <time>2017-11-24T10:34:57Z</time>
      </trkpt>
      <trkpt lat="45.25478" lon="6.03323">
        <ele>2137.4560546875</ele>
        <time>2017-11-24T10:35:03Z</time>
      </trkpt>
      <trkpt lat="45.25478" lon="6.03316">
        <ele>2140.4560546875</ele>
        <time>2017-11-24T10:35:08Z</time>
      </trkpt>
      <trkpt lat="45.25478" lon="6.03309">
        <ele>2141.455078125</ele>
        <time>2017-11-24T10:35:12Z</time>
      </trkpt>
      <trkpt lat="45.2548" lon="6.03301">
        <ele>2141.455078125</ele>
        <time>2017-11-24T10:35:20Z</time>
      </trkpt>
      <trkpt lat="45.25481" lon="6.03295">
        <ele>2144.455078125</ele>
        <time>2017-11-24T10:35:24Z</time>
      </trkpt>
      <trkpt lat="45.2548" lon="6.03288">
        <ele>2147.455078125</ele>
        <time>2017-11-24T10:35:28Z</time>
      </trkpt>
      <trkpt lat="45.25484" lon="6.03281">
        <ele>2146.455078125</ele>
        <time>2017-11-24T10:35:32Z</time>
      </trkpt>
      <trkpt lat="45.25486" lon="6.03275">
        <ele>2147.455078125</ele>
        <time>2017-11-24T10:35:37Z</time>
      </trkpt>
      <trkpt lat="45.25489" lon="6.0327">
        <ele>2147.455078125</ele>
        <time>2017-11-24T10:35:42Z</time>
      </trkpt>
      <trkpt lat="45.2549" lon="6.03263">
        <ele>2147.455078125</ele>
        <time>2017-11-24T10:35:47Z</time>
      </trkpt>
      <trkpt lat="45.2549" lon="6.03256">
        <ele>2148.455078125</ele>
        <time>2017-11-24T10:35:52Z</time>
      </trkpt>
      <trkpt lat="45.25492" lon="6.03249">
        <ele>2152.455078125</ele>
        <time>2017-11-24T10:35:58Z</time>
      </trkpt>
      <trkpt lat="45.25494" lon="6.03241">
        <ele>2154.455078125</ele>
        <time>2017-11-24T10:36:06Z</time>
      </trkpt>
      <trkpt lat="45.25497" lon="6.03237">
        <ele>2159.455078125</ele>
        <time>2017-11-24T10:36:11Z</time>
      </trkpt>
      <trkpt lat="45.25499" lon="6.03231">
        <ele>2159.455078125</ele>
        <time>2017-11-24T10:36:17Z</time>
      </trkpt>
      <trkpt lat="45.25502" lon="6.03226">
        <ele>2163.455078125</ele>
        <time>2017-11-24T10:36:23Z</time>
      </trkpt>
      <trkpt lat="45.255" lon="6.0322">
        <ele>2163.455078125</ele>
        <time>2017-11-24T10:36:28Z</time>
      </trkpt>
      <trkpt lat="45.255" lon="6.03212">
        <ele>2165.455078125</ele>
        <time>2017-11-24T10:36:32Z</time>
      </trkpt>
      <trkpt lat="45.25499" lon="6.03206">
        <ele>2165.455078125</ele>
        <time>2017-11-24T10:36:35Z</time>
      </trkpt>
      <trkpt lat="45.25494" lon="6.032">
        <ele>2166.455078125</ele>
        <time>2017-11-24T10:36:39Z</time>
      </trkpt>
      <trkpt lat="45.25491" lon="6.03195">
        <ele>2168.455078125</ele>
        <time>2017-11-24T10:36:44Z</time>
      </trkpt>
      <trkpt lat="45.25485" lon="6.03194">
        <ele>2167.455078125</ele>
        <time>2017-11-24T10:36:51Z</time>
      </trkpt>
      <trkpt lat="45.2548" lon="6.03193">
        <ele>2170.455078125</ele>
        <time>2017-11-24T10:36:56Z</time>
      </trkpt>
      <trkpt lat="45.25476" lon="6.03191">
        <ele>2173.455078125</ele>
        <time>2017-11-24T10:37:05Z</time>
      </trkpt>
      <trkpt lat="45.25471" lon="6.03191">
        <ele>2172.455078125</ele>
        <time>2017-11-24T10:37:13Z</time>
      </trkpt>
      <trkpt lat="45.25466" lon="6.0319">
        <ele>2174.455078125</ele>
        <time>2017-11-24T10:37:21Z</time>
      </trkpt>
      <trkpt lat="45.25461" lon="6.03189">
        <ele>2175.455078125</ele>
        <time>2017-11-24T10:37:28Z</time>
      </trkpt>
      <trkpt lat="45.25457" lon="6.03187">
        <ele>2178.455078125</ele>
        <time>2017-11-24T10:37:35Z</time>
      </trkpt>
      <trkpt lat="45.25451" lon="6.03189">
        <ele>2182.455078125</ele>
        <time>2017-11-24T10:37:42Z</time>
      </trkpt>
      <trkpt lat="45.25447" lon="6.0319">
        <ele>2183.455078125</ele>
        <time>2017-11-24T10:37:53Z</time>
      </trkpt>
      <trkpt lat="45.25443" lon="6.03194">
        <ele>2184.455078125</ele>
        <time>2017-11-24T10:38:03Z</time>
      </trkpt>
      <trkpt lat="45.25439" lon="6.03197">
        <ele>2187.455078125</ele>
        <time>2017-11-24T10:38:13Z</time>
      </trkpt>
      <trkpt lat="45.25434" lon="6.03202">
        <ele>2191.455078125</ele>
        <time>2017-11-24T10:38:20Z</time>
      </trkpt>
      <trkpt lat="45.2543" lon="6.03205">
        <ele>2194.455078125</ele>
        <time>2017-11-24T10:38:31Z</time>
      </trkpt>
      <trkpt lat="45.25425" lon="6.03207">
        <ele>2191.455078125</ele>
        <time>2017-11-24T10:38:47Z</time>
      </trkpt>
      <trkpt lat="45.25423" lon="6.03214">
        <ele>2195.455078125</ele>
        <time>2017-11-24T10:39:09Z</time>
      </trkpt>
      <trkpt lat="45.25419" lon="6.03218">
        <ele>2195.455078125</ele>
        <time>2017-11-24T10:39:13Z</time>
      </trkpt>
      <trkpt lat="45.25414" lon="6.0322">
        <ele>2199.455078125</ele>
        <time>2017-11-24T10:39:19Z</time>
      </trkpt>
      <trkpt lat="45.2541" lon="6.03223">
        <ele>2202.455078125</ele>
        <time>2017-11-24T10:39:26Z</time>
      </trkpt>
      <trkpt lat="45.25405" lon="6.03225">
        <ele>2203.455078125</ele>
        <time>2017-11-24T10:39:31Z</time>
      </trkpt>
      <trkpt lat="45.25401" lon="6.03229">
        <ele>2202.455078125</ele>
        <time>2017-11-24T10:39:47Z</time>
      </trkpt>
      <trkpt lat="45.25399" lon="6.03236">
        <ele>2201.455078125</ele>
        <time>2017-11-24T10:39:52Z</time>
      </trkpt>
      <trkpt lat="45.25397" lon="6.03243">
        <ele>2201.455078125</ele>
        <time>2017-11-24T10:40:01Z</time>
      </trkpt>
      <trkpt lat="45.25395" lon="6.0325">
        <ele>2204.455078125</ele>
        <time>2017-11-24T10:40:05Z</time>
      </trkpt>
      <trkpt lat="45.25394" lon="6.03257">
        <ele>2203.455078125</ele>
        <time>2017-11-24T10:40:14Z</time>
      </trkpt>
      <trkpt lat="45.25393" lon="6.03264">
        <ele>2209.455078125</ele>
        <time>2017-11-24T10:40:23Z</time>
      </trkpt>
      <trkpt lat="45.25389" lon="6.03271">
        <ele>2210.455078125</ele>
        <time>2017-11-24T10:40:35Z</time>
      </trkpt>
      <trkpt lat="45.25384" lon="6.03272">
        <ele>2212.455078125</ele>
        <time>2017-11-24T10:40:38Z</time>
      </trkpt>
      <trkpt lat="45.25381" lon="6.0328">
        <ele>2217.455078125</ele>
        <time>2017-11-24T10:40:46Z</time>
      </trkpt>
      <trkpt lat="45.25377" lon="6.03283">
        <ele>2220.455078125</ele>
        <time>2017-11-24T10:40:49Z</time>
      </trkpt>
      <trkpt lat="45.25372" lon="6.03283">
        <ele>2225.455078125</ele>
        <time>2017-11-24T10:41:02Z</time>
      </trkpt>
      <trkpt lat="45.25367" lon="6.03281">
        <ele>2227.455078125</ele>
        <time>2017-11-24T10:41:10Z</time>
      </trkpt>
      <trkpt lat="45.25362" lon="6.03279">
        <ele>2231.455078125</ele>
        <time>2017-11-24T10:41:17Z</time>
      </trkpt>
      <trkpt lat="45.25358" lon="6.03275">
        <ele>2233.455078125</ele>
        <time>2017-11-24T10:41:24Z</time>
      </trkpt>
      <trkpt lat="45.25355" lon="6.03269">
        <ele>2236.455078125</ele>
        <time>2017-11-24T10:41:30Z</time>
      </trkpt>
      <trkpt lat="45.25351" lon="6.03265">
        <ele>2235.455078125</ele>
        <time>2017-11-24T10:41:37Z</time>
      </trkpt>
      <trkpt lat="45.25347" lon="6.03264">
        <ele>2236.455078125</ele>
        <time>2017-11-24T10:41:44Z</time>
      </trkpt>
      <trkpt lat="45.25343" lon="6.0326">
        <ele>2236.455078125</ele>
        <time>2017-11-24T10:41:54Z</time>
      </trkpt>
      <trkpt lat="45.25349" lon="6.03267">
        <ele>2240.455078125</ele>
        <time>2017-11-24T10:46:15Z</time>
      </trkpt>
      <trkpt lat="45.25359" lon="6.03273">
        <ele>2237.455078125</ele>
        <time>2017-11-24T10:46:17Z</time>
      </trkpt>
      <trkpt lat="45.25371" lon="6.0328">
        <ele>2234.455078125</ele>
        <time>2017-11-24T10:46:19Z</time>
      </trkpt>
      <trkpt lat="45.25383" lon="6.0327">
        <ele>2228.455078125</ele>
        <time>2017-11-24T10:46:21Z</time>
      </trkpt>
      <trkpt lat="45.25395" lon="6.03261">
        <ele>2225.455078125</ele>
        <time>2017-11-24T10:46:23Z</time>
      </trkpt>
      <trkpt lat="45.25402" lon="6.03246">
        <ele>2222.455078125</ele>
        <time>2017-11-24T10:46:25Z</time>
      </trkpt>
      <trkpt lat="45.25415" lon="6.03236">
        <ele>2215.455078125</ele>
        <time>2017-11-24T10:46:28Z</time>
      </trkpt>
      <trkpt lat="45.2542" lon="6.0323">
        <ele>2214.455078125</ele>
        <time>2017-11-24T10:46:29Z</time>
      </trkpt>
      <trkpt lat="45.25431" lon="6.03222">
        <ele>2209.455078125</ele>
        <time>2017-11-24T10:46:31Z</time>
      </trkpt>
      <trkpt lat="45.25441" lon="6.0321">
        <ele>2204.455078125</ele>
        <time>2017-11-24T10:46:33Z</time>
      </trkpt>
      <trkpt lat="45.25456" lon="6.03205">
        <ele>2200.455078125</ele>
        <time>2017-11-24T10:46:35Z</time>
      </trkpt>
      <trkpt lat="45.25467" lon="6.03194">
        <ele>2192.455078125</ele>
        <time>2017-11-24T10:46:37Z</time>
      </trkpt>
      <trkpt lat="45.25472" lon="6.03198">
        <ele>2192.455078125</ele>
        <time>2017-11-24T10:46:38Z</time>
      </trkpt>
      <trkpt lat="45.25488" lon="6.03199">
        <ele>2185.455078125</ele>
        <time>2017-11-24T10:46:41Z</time>
      </trkpt>
      <trkpt lat="45.25499" lon="6.032">
        <ele>2180.455078125</ele>
        <time>2017-11-24T10:46:43Z</time>
      </trkpt>
      <trkpt lat="45.25501" lon="6.03221">
        <ele>2175.455078125</ele>
        <time>2017-11-24T10:46:46Z</time>
      </trkpt>
      <trkpt lat="45.25498" lon="6.03246">
        <ele>2171.455078125</ele>
        <time>2017-11-24T10:46:48Z</time>
      </trkpt>
      <trkpt lat="45.25497" lon="6.03263">
        <ele>2166.455078125</ele>
        <time>2017-11-24T10:46:49Z</time>
      </trkpt>
      <trkpt lat="45.25487" lon="6.0329">
        <ele>2163.455078125</ele>
        <time>2017-11-24T10:46:51Z</time>
      </trkpt>
      <trkpt lat="45.25484" lon="6.03305">
        <ele>2159.4560546875</ele>
        <time>2017-11-24T10:46:52Z</time>
      </trkpt>
      <trkpt lat="45.2549" lon="6.03333">
        <ele>2153.4560546875</ele>
        <time>2017-11-24T10:46:54Z</time>
      </trkpt>
      <trkpt lat="45.25507" lon="6.03345">
        <ele>2143.4560546875</ele>
        <time>2017-11-24T10:46:56Z</time>
      </trkpt>
      <trkpt lat="45.25527" lon="6.03333">
        <ele>2136.4560546875</ele>
        <time>2017-11-24T10:46:58Z</time>
      </trkpt>
      <trkpt lat="45.25542" lon="6.03303">
        <ele>2131.4560546875</ele>
        <time>2017-11-24T10:47:00Z</time>
      </trkpt>
      <trkpt lat="45.25555" lon="6.03269">
        <ele>2125.4560546875</ele>
        <time>2017-11-24T10:47:02Z</time>
      </trkpt>
      <trkpt lat="45.25569" lon="6.03235">
        <ele>2120.4560546875</ele>
        <time>2017-11-24T10:47:04Z</time>
      </trkpt>
      <trkpt lat="45.25587" lon="6.03206">
        <ele>2115.4560546875</ele>
        <time>2017-11-24T10:47:06Z</time>
      </trkpt>
      <trkpt lat="45.25603" lon="6.03181">
        <ele>2110.4560546875</ele>
        <time>2017-11-24T10:47:08Z</time>
      </trkpt>
      <trkpt lat="45.2561" lon="6.03156">
        <ele>2107.4560546875</ele>
        <time>2017-11-24T10:47:10Z</time>
      </trkpt>
      <trkpt lat="45.2562" lon="6.03147">
        <ele>2106.4560546875</ele>
        <time>2017-11-24T10:47:12Z</time>
      </trkpt>
      <trkpt lat="45.25639" lon="6.03157">
        <ele>2104.4560546875</ele>
        <time>2017-11-24T10:47:14Z</time>
      </trkpt>
      <trkpt lat="45.25659" lon="6.03174">
        <ele>2097.4560546875</ele>
        <time>2017-11-24T10:47:16Z</time>
      </trkpt>
      <trkpt lat="45.25683" lon="6.03185">
        <ele>2085.4560546875</ele>
        <time>2017-11-24T10:47:18Z</time>
      </trkpt>
      <trkpt lat="45.25713" lon="6.03183">
        <ele>2076.4560546875</ele>
        <time>2017-11-24T10:47:20Z</time>
      </trkpt>
      <trkpt lat="45.2574" lon="6.03191">
        <ele>2071.4560546875</ele>
        <time>2017-11-24T10:47:22Z</time>
      </trkpt>
      <trkpt lat="45.25752" lon="6.03191">
        <ele>2066.4560546875</ele>
        <time>2017-11-24T10:47:23Z</time>
      </trkpt>
      <trkpt lat="45.25777" lon="6.03197">
        <ele>2062.4560546875</ele>
        <time>2017-11-24T10:47:25Z</time>
      </trkpt>
      <trkpt lat="45.25786" lon="6.03198">
        <ele>2061.4560546875</ele>
        <time>2017-11-24T10:47:26Z</time>
      </trkpt>
      <trkpt lat="45.25803" lon="6.03193">
        <ele>2057.4560546875</ele>
        <time>2017-11-24T10:47:28Z</time>
      </trkpt>
      <trkpt lat="45.25806" lon="6.03187">
        <ele>2053.4560546875</ele>
        <time>2017-11-24T10:47:29Z</time>
      </trkpt>
      <trkpt lat="45.2582" lon="6.03178">
        <ele>2048.4560546875</ele>
        <time>2017-11-24T10:47:31Z</time>
      </trkpt>
      <trkpt lat="45.25824" lon="6.03168">
        <ele>2044.4560546875</ele>
        <time>2017-11-24T10:47:32Z</time>
      </trkpt>
      <trkpt lat="45.25824" lon="6.03145">
        <ele>2039.4560546875</ele>
        <time>2017-11-24T10:47:34Z</time>
      </trkpt>
      <trkpt lat="45.2583" lon="6.03123">
        <ele>2037.4560546875</ele>
        <time>2017-11-24T10:47:36Z</time>
      </trkpt>
      <trkpt lat="45.25838" lon="6.03105">
        <ele>2035.4560546875</ele>
        <time>2017-11-24T10:47:38Z</time>
      </trkpt>
      <trkpt lat="45.25848" lon="6.03106">
        <ele>2029.4560546875</ele>
        <time>2017-11-24T10:47:39Z</time>
      </trkpt>
      <trkpt lat="45.25865" lon="6.03105">
        <ele>2026.4560546875</ele>
        <time>2017-11-24T10:47:41Z</time>
      </trkpt>
      <trkpt lat="45.25887" lon="6.03141">
        <ele>2020.4560546875</ele>
        <time>2017-11-24T10:47:44Z</time>
      </trkpt>
      <trkpt lat="45.25901" lon="6.03162">
        <ele>2016.4560546875</ele>
        <time>2017-11-24T10:47:46Z</time>
      </trkpt>
      <trkpt lat="45.25915" lon="6.03164">
        <ele>2008.4560546875</ele>
        <time>2017-11-24T10:47:47Z</time>
      </trkpt>
      <trkpt lat="45.25924" lon="6.03172">
        <ele>2003.4560546875</ele>
        <time>2017-11-24T10:47:48Z</time>
      </trkpt>
      <trkpt lat="45.25946" lon="6.03188">
        <ele>1998.4560546875</ele>
        <time>2017-11-24T10:47:50Z</time>
      </trkpt>
      <trkpt lat="45.25965" lon="6.03202">
        <ele>1994.4560546875</ele>
        <time>2017-11-24T10:47:52Z</time>
      </trkpt>
      <trkpt lat="45.25989" lon="6.03206">
        <ele>1989.4560546875</ele>
        <time>2017-11-24T10:47:54Z</time>
      </trkpt>
      <trkpt lat="45.25999" lon="6.03205">
        <ele>1985.4560546875</ele>
        <time>2017-11-24T10:47:55Z</time>
      </trkpt>
      <trkpt lat="45.26012" lon="6.0319">
        <ele>1979.4560546875</ele>
        <time>2017-11-24T10:47:57Z</time>
      </trkpt>
      <trkpt lat="45.26024" lon="6.03169">
        <ele>1974.4560546875</ele>
        <time>2017-11-24T10:47:59Z</time>
      </trkpt>
      <trkpt lat="45.26027" lon="6.03156">
        <ele>1969.4560546875</ele>
        <time>2017-11-24T10:48:00Z</time>
      </trkpt>
      <trkpt lat="45.26039" lon="6.03129">
        <ele>1957.4560546875</ele>
        <time>2017-11-24T10:48:02Z</time>
      </trkpt>
      <trkpt lat="45.26047" lon="6.03095">
        <ele>1944.4560546875</ele>
        <time>2017-11-24T10:48:04Z</time>
      </trkpt>
      <trkpt lat="45.26053" lon="6.03058">
        <ele>1934.4560546875</ele>
        <time>2017-11-24T10:48:06Z</time>
      </trkpt>
      <trkpt lat="45.26057" lon="6.0302">
        <ele>1928.4560546875</ele>
        <time>2017-11-24T10:48:08Z</time>
      </trkpt>
      <trkpt lat="45.26064" lon="6.02987">
        <ele>1927.4560546875</ele>
        <time>2017-11-24T10:48:10Z</time>
      </trkpt>
      <trkpt lat="45.26068" lon="6.02973">
        <ele>1925.4560546875</ele>
        <time>2017-11-24T10:48:11Z</time>
      </trkpt>
      <trkpt lat="45.26073" lon="6.02948">
        <ele>1920.4560546875</ele>
        <time>2017-11-24T10:48:13Z</time>
      </trkpt>
      <trkpt lat="45.26078" lon="6.02926">
        <ele>1917.4560546875</ele>
        <time>2017-11-24T10:48:15Z</time>
      </trkpt>
      <trkpt lat="45.26084" lon="6.02912">
        <ele>1912.4560546875</ele>
        <time>2017-11-24T10:48:17Z</time>
      </trkpt>
      <trkpt lat="45.26091" lon="6.02897">
        <ele>1908.4560546875</ele>
        <time>2017-11-24T10:48:19Z</time>
      </trkpt>
      <trkpt lat="45.26097" lon="6.02883">
        <ele>1904.4560546875</ele>
        <time>2017-11-24T10:48:21Z</time>
      </trkpt>
      <trkpt lat="45.26097" lon="6.02862">
        <ele>1900.4560546875</ele>
        <time>2017-11-24T10:48:23Z</time>
      </trkpt>
      <trkpt lat="45.26096" lon="6.02851">
        <ele>1895.4560546875</ele>
        <time>2017-11-24T10:48:24Z</time>
      </trkpt>
      <trkpt lat="45.26096" lon="6.02829">
        <ele>1889.4560546875</ele>
        <time>2017-11-24T10:48:26Z</time>
      </trkpt>
      <trkpt lat="45.26095" lon="6.02809">
        <ele>1883.4560546875</ele>
        <time>2017-11-24T10:48:28Z</time>
      </trkpt>
      <trkpt lat="45.26092" lon="6.02782">
        <ele>1875.4560546875</ele>
        <time>2017-11-24T10:48:30Z</time>
      </trkpt>
      <trkpt lat="45.26091" lon="6.02756">
        <ele>1869.4560546875</ele>
        <time>2017-11-24T10:48:32Z</time>
      </trkpt>
      <trkpt lat="45.26095" lon="6.02734">
        <ele>1864.4560546875</ele>
        <time>2017-11-24T10:48:34Z</time>
      </trkpt>
      <trkpt lat="45.26099" lon="6.02714">
        <ele>1861.4560546875</ele>
        <time>2017-11-24T10:48:36Z</time>
      </trkpt>
      <trkpt lat="45.26105" lon="6.02701">
        <ele>1860.4560546875</ele>
        <time>2017-11-24T10:48:38Z</time>
      </trkpt>
      <trkpt lat="45.26111" lon="6.027">
        <ele>1855.4560546875</ele>
        <time>2017-11-24T10:48:40Z</time>
      </trkpt>
      <trkpt lat="45.26116" lon="6.02704">
        <ele>1852.4560546875</ele>
        <time>2017-11-24T10:48:42Z</time>
      </trkpt>
      <trkpt lat="45.26125" lon="6.02712">
        <ele>1847.4560546875</ele>
        <time>2017-11-24T10:48:44Z</time>
      </trkpt>
      <trkpt lat="45.26135" lon="6.0272">
        <ele>1842.4560546875</ele>
        <time>2017-11-24T10:48:46Z</time>
      </trkpt>
      <trkpt lat="45.26144" lon="6.02727">
        <ele>1839.4560546875</ele>
        <time>2017-11-24T10:48:48Z</time>
      </trkpt>
      <trkpt lat="45.26152" lon="6.02736">
        <ele>1837.4560546875</ele>
        <time>2017-11-24T10:48:50Z</time>
      </trkpt>
      <trkpt lat="45.26161" lon="6.02742">
        <ele>1833.4560546875</ele>
        <time>2017-11-24T10:48:52Z</time>
      </trkpt>
      <trkpt lat="45.26166" lon="6.02746">
        <ele>1832.4560546875</ele>
        <time>2017-11-24T10:48:53Z</time>
      </trkpt>
      <trkpt lat="45.26177" lon="6.02755">
        <ele>1825.4560546875</ele>
        <time>2017-11-24T10:48:56Z</time>
      </trkpt>
      <trkpt lat="45.26187" lon="6.02764">
        <ele>1820.4560546875</ele>
        <time>2017-11-24T10:48:59Z</time>
      </trkpt>
      <trkpt lat="45.26195" lon="6.02768">
        <ele>1817.4560546875</ele>
        <time>2017-11-24T10:49:01Z</time>
      </trkpt>
      <trkpt lat="45.26201" lon="6.02772">
        <ele>1815.4560546875</ele>
        <time>2017-11-24T10:49:03Z</time>
      </trkpt>
      <trkpt lat="45.26207" lon="6.02772">
        <ele>1813.4560546875</ele>
        <time>2017-11-24T10:49:05Z</time>
      </trkpt>
      <trkpt lat="45.26212" lon="6.02773">
        <ele>1811.4560546875</ele>
        <time>2017-11-24T10:49:07Z</time>
      </trkpt>
      <trkpt lat="45.26215" lon="6.02782">
        <ele>1807.4560546875</ele>
        <time>2017-11-24T10:49:09Z</time>
      </trkpt>
      <trkpt lat="45.26221" lon="6.0279">
        <ele>1806.4560546875</ele>
        <time>2017-11-24T10:49:11Z</time>
      </trkpt>
      <trkpt lat="45.26225" lon="6.02794">
        <ele>1804.4560546875</ele>
        <time>2017-11-24T10:49:14Z</time>
      </trkpt>
      <trkpt lat="45.26233" lon="6.028">
        <ele>1803.4560546875</ele>
        <time>2017-11-24T10:49:16Z</time>
      </trkpt>
      <trkpt lat="45.26243" lon="6.02808">
        <ele>1797.4560546875</ele>
        <time>2017-11-24T10:49:19Z</time>
      </trkpt>
      <trkpt lat="45.26251" lon="6.02813">
        <ele>1794.4560546875</ele>
        <time>2017-11-24T10:49:21Z</time>
      </trkpt>
      <trkpt lat="45.26258" lon="6.02818">
        <ele>1792.4560546875</ele>
        <time>2017-11-24T10:49:23Z</time>
      </trkpt>
      <trkpt lat="45.26265" lon="6.02822">
        <ele>1789.4560546875</ele>
        <time>2017-11-24T10:49:25Z</time>
      </trkpt>
      <trkpt lat="45.26274" lon="6.02827">
        <ele>1785.4560546875</ele>
        <time>2017-11-24T10:49:27Z</time>
      </trkpt>
      <trkpt lat="45.26287" lon="6.02826">
        <ele>1783.4560546875</ele>
        <time>2017-11-24T10:49:29Z</time>
      </trkpt>
      <trkpt lat="45.26296" lon="6.02818">
        <ele>1780.4560546875</ele>
        <time>2017-11-24T10:49:31Z</time>
      </trkpt>
      <trkpt lat="45.26309" lon="6.02815">
        <ele>1776.4560546875</ele>
        <time>2017-11-24T10:49:33Z</time>
      </trkpt>
      <trkpt lat="45.26333" lon="6.02798">
        <ele>1771.4560546875</ele>
        <time>2017-11-24T10:49:36Z</time>
      </trkpt>
      <trkpt lat="45.26352" lon="6.0278">
        <ele>1764.45703125</ele>
        <time>2017-11-24T10:49:38Z</time>
      </trkpt>
      <trkpt lat="45.26368" lon="6.02756">
        <ele>1761.45703125</ele>
        <time>2017-11-24T10:49:40Z</time>
      </trkpt>
      <trkpt lat="45.26377" lon="6.0273">
        <ele>1760.4560546875</ele>
        <time>2017-11-24T10:49:42Z</time>
      </trkpt>
      <trkpt lat="45.26378" lon="6.02702">
        <ele>1758.4560546875</ele>
        <time>2017-11-24T10:49:44Z</time>
      </trkpt>
      <trkpt lat="45.26375" lon="6.02674">
        <ele>1756.4560546875</ele>
        <time>2017-11-24T10:49:46Z</time>
      </trkpt>
      <trkpt lat="45.26369" lon="6.02645">
        <ele>1754.4560546875</ele>
        <time>2017-11-24T10:49:48Z</time>
      </trkpt>
      <trkpt lat="45.26359" lon="6.02622">
        <ele>1753.4560546875</ele>
        <time>2017-11-24T10:49:50Z</time>
      </trkpt>
      <trkpt lat="45.26354" lon="6.02612">
        <ele>1751.4560546875</ele>
        <time>2017-11-24T10:49:51Z</time>
      </trkpt>
      <trkpt lat="45.26341" lon="6.02594">
        <ele>1750.4560546875</ele>
        <time>2017-11-24T10:49:53Z</time>
      </trkpt>
      <trkpt lat="45.26326" lon="6.0258">
        <ele>1749.4560546875</ele>
        <time>2017-11-24T10:49:55Z</time>
      </trkpt>
      <trkpt lat="45.26312" lon="6.02567">
        <ele>1746.4560546875</ele>
        <time>2017-11-24T10:49:57Z</time>
      </trkpt>
      <trkpt lat="45.26299" lon="6.02556">
        <ele>1742.4560546875</ele>
        <time>2017-11-24T10:49:59Z</time>
      </trkpt>
      <trkpt lat="45.26286" lon="6.02542">
        <ele>1741.4560546875</ele>
        <time>2017-11-24T10:50:01Z</time>
      </trkpt>
      <trkpt lat="45.26276" lon="6.02524">
        <ele>1740.4560546875</ele>
        <time>2017-11-24T10:50:03Z</time>
      </trkpt>
      <trkpt lat="45.26266" lon="6.02503">
        <ele>1739.4560546875</ele>
        <time>2017-11-24T10:50:05Z</time>
      </trkpt>
      <trkpt lat="45.26254" lon="6.02483">
        <ele>1737.4560546875</ele>
        <time>2017-11-24T10:50:07Z</time>
      </trkpt>
      <trkpt lat="45.26244" lon="6.02459">
        <ele>1736.4560546875</ele>
        <time>2017-11-24T10:50:09Z</time>
      </trkpt>
      <trkpt lat="45.26235" lon="6.02436">
        <ele>1733.4560546875</ele>
        <time>2017-11-24T10:50:11Z</time>
      </trkpt>
      <trkpt lat="45.26232" lon="6.0241">
        <ele>1728.4560546875</ele>
        <time>2017-11-24T10:50:13Z</time>
      </trkpt>
      <trkpt lat="45.26227" lon="6.02386">
        <ele>1722.4560546875</ele>
        <time>2017-11-24T10:50:15Z</time>
      </trkpt>
      <trkpt lat="45.26219" lon="6.02362">
        <ele>1720.4560546875</ele>
        <time>2017-11-24T10:50:17Z</time>
      </trkpt>
      <trkpt lat="45.26214" lon="6.02339">
        <ele>1717.4560546875</ele>
        <time>2017-11-24T10:50:19Z</time>
      </trkpt>
      <trkpt lat="45.2621" lon="6.02311">
        <ele>1715.4560546875</ele>
        <time>2017-11-24T10:50:21Z</time>
      </trkpt>
      <trkpt lat="45.2621" lon="6.02302">
        <ele>1712.4560546875</ele>
        <time>2017-11-24T10:50:22Z</time>
      </trkpt>
      <trkpt lat="45.26204" lon="6.02276">
        <ele>1708.4560546875</ele>
        <time>2017-11-24T10:50:24Z</time>
      </trkpt>
      <trkpt lat="45.26203" lon="6.02249">
        <ele>1706.4549560547</ele>
        <time>2017-11-24T10:50:26Z</time>
      </trkpt>
      <trkpt lat="45.26207" lon="6.02222">
        <ele>1704.4549560547</ele>
        <time>2017-11-24T10:50:28Z</time>
      </trkpt>
      <trkpt lat="45.26199" lon="6.02179">
        <ele>1703.4549560547</ele>
        <time>2017-11-24T10:50:30Z</time>
      </trkpt>
      <trkpt lat="45.26193" lon="6.02138">
        <ele>1699.4549560547</ele>
        <time>2017-11-24T10:50:32Z</time>
      </trkpt>
      <trkpt lat="45.26186" lon="6.02099">
        <ele>1696.4549560547</ele>
        <time>2017-11-24T10:50:34Z</time>
      </trkpt>
      <trkpt lat="45.26183" lon="6.02069">
        <ele>1695.4549560547</ele>
        <time>2017-11-24T10:50:36Z</time>
      </trkpt>
      <trkpt lat="45.2618" lon="6.02038">
        <ele>1695.4549560547</ele>
        <time>2017-11-24T10:50:38Z</time>
      </trkpt>
      <trkpt lat="45.2618" lon="6.02022">
        <ele>1691.4549560547</ele>
        <time>2017-11-24T10:50:40Z</time>
      </trkpt>
      <trkpt lat="45.26179" lon="6.02005">
        <ele>1686.4549560547</ele>
        <time>2017-11-24T10:50:42Z</time>
      </trkpt>
      <trkpt lat="45.26187" lon="6.01992">
        <ele>1682.4549560547</ele>
        <time>2017-11-24T10:50:44Z</time>
      </trkpt>
      <trkpt lat="45.2619" lon="6.01976">
        <ele>1677.4549560547</ele>
        <time>2017-11-24T10:50:46Z</time>
      </trkpt>
      <trkpt lat="45.26197" lon="6.01964">
        <ele>1673.4549560547</ele>
        <time>2017-11-24T10:50:48Z</time>
      </trkpt>
      <trkpt lat="45.26209" lon="6.01958">
        <ele>1666.4549560547</ele>
        <time>2017-11-24T10:50:51Z</time>
      </trkpt>
      <trkpt lat="45.26215" lon="6.01958">
        <ele>1662.4549560547</ele>
        <time>2017-11-24T10:50:52Z</time>
      </trkpt>
      <trkpt lat="45.26228" lon="6.01963">
        <ele>1662.4549560547</ele>
        <time>2017-11-24T10:50:54Z</time>
      </trkpt>
      <trkpt lat="45.26241" lon="6.01959">
        <ele>1661.4549560547</ele>
        <time>2017-11-24T10:50:56Z</time>
      </trkpt>
      <trkpt lat="45.26247" lon="6.01961">
        <ele>1658.4549560547</ele>
        <time>2017-11-24T10:50:57Z</time>
      </trkpt>
      <trkpt lat="45.26258" lon="6.0196">
        <ele>1656.4549560547</ele>
        <time>2017-11-24T10:50:59Z</time>
      </trkpt>
      <trkpt lat="45.26269" lon="6.01947">
        <ele>1654.4549560547</ele>
        <time>2017-11-24T10:51:01Z</time>
      </trkpt>
      <trkpt lat="45.26277" lon="6.01931">
        <ele>1652.4549560547</ele>
        <time>2017-11-24T10:51:03Z</time>
      </trkpt>
      <trkpt lat="45.26286" lon="6.01915">
        <ele>1650.4549560547</ele>
        <time>2017-11-24T10:51:05Z</time>
      </trkpt>
      <trkpt lat="45.26291" lon="6.01904">
        <ele>1648.4549560547</ele>
        <time>2017-11-24T10:51:06Z</time>
      </trkpt>
      <trkpt lat="45.26302" lon="6.01892">
        <ele>1643.4549560547</ele>
        <time>2017-11-24T10:51:08Z</time>
      </trkpt>
      <trkpt lat="45.26311" lon="6.01882">
        <ele>1638.4549560547</ele>
        <time>2017-11-24T10:51:10Z</time>
      </trkpt>
      <trkpt lat="45.26323" lon="6.01876">
        <ele>1636.4549560547</ele>
        <time>2017-11-24T10:51:12Z</time>
      </trkpt>
      <trkpt lat="45.26333" lon="6.01861">
        <ele>1630.4549560547</ele>
        <time>2017-11-24T10:51:14Z</time>
      </trkpt>
      <trkpt lat="45.26346" lon="6.01855">
        <ele>1626.4549560547</ele>
        <time>2017-11-24T10:51:16Z</time>
      </trkpt>
      <trkpt lat="45.26359" lon="6.01845">
        <ele>1622.4549560547</ele>
        <time>2017-11-24T10:51:18Z</time>
      </trkpt>
      <trkpt lat="45.26375" lon="6.01836">
        <ele>1614.4549560547</ele>
        <time>2017-11-24T10:51:20Z</time>
      </trkpt>
      <trkpt lat="45.26374" lon="6.01821">
        <ele>1610.4549560547</ele>
        <time>2017-11-24T10:51:22Z</time>
      </trkpt>
      <trkpt lat="45.26381" lon="6.01814">
        <ele>1608.4549560547</ele>
        <time>2017-11-24T10:51:24Z</time>
      </trkpt>
      <trkpt lat="45.26382" lon="6.01807">
        <ele>1606.4549560547</ele>
        <time>2017-11-24T10:51:27Z</time>
      </trkpt>
      <trkpt lat="45.2638" lon="6.01794">
        <ele>1605.4549560547</ele>
        <time>2017-11-24T10:51:29Z</time>
      </trkpt>
      <trkpt lat="45.26379" lon="6.01771">
        <ele>1602.4549560547</ele>
        <time>2017-11-24T10:51:31Z</time>
      </trkpt>
      <trkpt lat="45.26375" lon="6.01746">
        <ele>1601.4549560547</ele>
        <time>2017-11-24T10:51:33Z</time>
      </trkpt>
      <trkpt lat="45.26373" lon="6.01719">
        <ele>1598.4549560547</ele>
        <time>2017-11-24T10:51:35Z</time>
      </trkpt>
      <trkpt lat="45.26373" lon="6.01709">
        <ele>1595.4549560547</ele>
        <time>2017-11-24T10:51:36Z</time>
      </trkpt>
      <trkpt lat="45.26373" lon="6.01695">
        <ele>1592.4549560547</ele>
        <time>2017-11-24T10:51:38Z</time>
      </trkpt>
      <trkpt lat="45.26373" lon="6.01688">
        <ele>1591.4549560547</ele>
        <time>2017-11-24T10:51:39Z</time>
      </trkpt>
      <trkpt lat="45.26374" lon="6.0168">
        <ele>1590.4549560547</ele>
        <time>2017-11-24T10:51:40Z</time>
      </trkpt>
      <trkpt lat="45.2638" lon="6.01665">
        <ele>1585.4549560547</ele>
        <time>2017-11-24T10:51:42Z</time>
      </trkpt>
      <trkpt lat="45.26389" lon="6.01645">
        <ele>1584.4549560547</ele>
        <time>2017-11-24T10:51:44Z</time>
      </trkpt>
      <trkpt lat="45.26395" lon="6.01638">
        <ele>1583.4549560547</ele>
        <time>2017-11-24T10:51:45Z</time>
      </trkpt>
      <trkpt lat="45.26408" lon="6.01628">
        <ele>1580.4549560547</ele>
        <time>2017-11-24T10:51:47Z</time>
      </trkpt>
      <trkpt lat="45.26422" lon="6.0162">
        <ele>1579.4549560547</ele>
        <time>2017-11-24T10:51:49Z</time>
      </trkpt>
      <trkpt lat="45.26437" lon="6.01611">
        <ele>1576.4549560547</ele>
        <time>2017-11-24T10:51:51Z</time>
      </trkpt>
      <trkpt lat="45.26448" lon="6.01602">
        <ele>1573.4549560547</ele>
        <time>2017-11-24T10:51:53Z</time>
      </trkpt>
      <trkpt lat="45.26456" lon="6.0159">
        <ele>1571.4549560547</ele>
        <time>2017-11-24T10:51:55Z</time>
      </trkpt>
      <trkpt lat="45.2646" lon="6.01578">
        <ele>1568.4549560547</ele>
        <time>2017-11-24T10:51:57Z</time>
      </trkpt>
      <trkpt lat="45.26459" lon="6.01568">
        <ele>1569.4549560547</ele>
        <time>2017-11-24T10:51:59Z</time>
      </trkpt>
      <trkpt lat="45.26456" lon="6.01559">
        <ele>1570.4549560547</ele>
        <time>2017-11-24T10:52:01Z</time>
      </trkpt>
      <trkpt lat="45.26456" lon="6.01551">
        <ele>1570.4549560547</ele>
        <time>2017-11-24T10:52:03Z</time>
      </trkpt>
      <trkpt lat="45.26454" lon="6.01545">
        <ele>1571.4549560547</ele>
        <time>2017-11-24T10:52:07Z</time>
      </trkpt>
      <trkpt lat="45.26448" lon="6.01548">
        <ele>1568.4549560547</ele>
        <time>2017-11-24T10:52:24Z</time>
      </trkpt>
      <trkpt lat="45.26447" lon="6.01541">
        <ele>1565.4549560547</ele>
        <time>2017-11-24T10:52:31Z</time>
      </trkpt>
      <trkpt lat="45.26447" lon="6.01533">
        <ele>1564.4549560547</ele>
        <time>2017-11-24T10:52:34Z</time>
      </trkpt>
      <trkpt lat="45.26446" lon="6.01525">
        <ele>1563.4549560547</ele>
        <time>2017-11-24T10:52:37Z</time>
      </trkpt>
      <trkpt lat="45.26442" lon="6.01521">
        <ele>1563.4549560547</ele>
        <time>2017-11-24T10:52:41Z</time>
      </trkpt>
      <trkpt lat="45.26445" lon="6.01515">
        <ele>1563.4549560547</ele>
        <time>2017-11-24T10:53:38Z</time>
      </trkpt>
    </trkseg>
  </trk>
</gpx>